<?xml version="1.0" encoding="utf-8"?>
<gpx xmlns:xsi="http://www.w3.org/2001/XMLSchema-instance" xmlns:xsd="http://www.w3.org/2001/XMLSchema" version="1.1" creator="Shapelink.com" xmlns="http://www.topografix.com/GPX/1/1" xmlns:gpxtpx="http://www.garmin.com/xmlschemas/TrackPointExtension/v1">
  <metadata>
    <name>Längdskidåkning 27.91 km, 2013-01-05</name>
    <desc></desc>
    <author><name>Kim Kronberg</name></author> 
    <time>1970-01-01T01:00:00Z</time>
  </metadata>
  <trk>
    <name>Längdskidåkning 27.91 km, 2013-01-05</name>
    <trkseg>
      <trkpt lat="60.481467" lon="22.261731">
        <ele>24</ele>
        <time>1970-01-01T01:00:00Z</time>
      </trkpt>
      <trkpt lat="60.481471" lon="22.261738">
        <ele>24</ele>
        <time>1970-01-01T01:00:00Z</time>
      </trkpt>
      <trkpt lat="60.481535" lon="22.262011">
        <ele>24</ele>
        <time>1970-01-01T01:00:00Z</time>
      </trkpt>
      <trkpt lat="60.481647" lon="22.262385">
        <ele>24</ele>
        <time>1970-01-01T01:00:00Z</time>
      </trkpt>
      <trkpt lat="60.481676" lon="22.262492">
        <ele>24</ele>
        <time>1970-01-01T01:00:00Z</time>
      </trkpt>
      <trkpt lat="60.481735" lon="22.262663">
        <ele>24</ele>
        <time>1970-01-01T01:00:00Z</time>
      </trkpt>
      <trkpt lat="60.481836" lon="22.262852">
        <ele>24</ele>
        <time>1970-01-01T01:00:00Z</time>
      </trkpt>
      <trkpt lat="60.482018" lon="22.263064">
        <ele>24</ele>
        <time>1970-01-01T01:00:00Z</time>
      </trkpt>
      <trkpt lat="60.482313" lon="22.263431">
        <ele>24</ele>
        <time>1970-01-01T01:00:00Z</time>
      </trkpt>
      <trkpt lat="60.482362" lon="22.263501">
        <ele>24</ele>
        <time>1970-01-01T01:00:00Z</time>
      </trkpt>
      <trkpt lat="60.482611" lon="22.263699">
        <ele>24</ele>
        <time>1970-01-01T01:00:00Z</time>
      </trkpt>
      <trkpt lat="60.48276" lon="22.26374">
        <ele>24.3636</ele>
        <time>1970-01-01T01:00:00Z</time>
      </trkpt>
      <trkpt lat="60.482939" lon="22.263609">
        <ele>24.7273</ele>
        <time>1970-01-01T01:00:00Z</time>
      </trkpt>
      <trkpt lat="60.483077" lon="22.263459">
        <ele>25.0909</ele>
        <time>1970-01-01T01:00:00Z</time>
      </trkpt>
      <trkpt lat="60.483185" lon="22.263332">
        <ele>25.4545</ele>
        <time>1970-01-01T01:00:00Z</time>
      </trkpt>
      <trkpt lat="60.483315" lon="22.263283">
        <ele>25.8182</ele>
        <time>1970-01-01T01:00:00Z</time>
      </trkpt>
      <trkpt lat="60.483446" lon="22.263226">
        <ele>26.1818</ele>
        <time>1970-01-01T01:00:00Z</time>
      </trkpt>
      <trkpt lat="60.483607" lon="22.263115">
        <ele>26.5455</ele>
        <time>1970-01-01T01:00:00Z</time>
      </trkpt>
      <trkpt lat="60.483647" lon="22.263088">
        <ele>26.9091</ele>
        <time>1970-01-01T01:00:00Z</time>
      </trkpt>
      <trkpt lat="60.483803" lon="22.262966">
        <ele>27.2727</ele>
        <time>1970-01-01T01:00:00Z</time>
      </trkpt>
      <trkpt lat="60.483923" lon="22.262934">
        <ele>27.6364</ele>
        <time>1970-01-01T01:00:00Z</time>
      </trkpt>
      <trkpt lat="60.48402" lon="22.262921">
        <ele>28</ele>
        <time>1970-01-01T01:00:00Z</time>
      </trkpt>
      <trkpt lat="60.484124" lon="22.262874">
        <ele>28</ele>
        <time>1970-01-01T01:00:00Z</time>
      </trkpt>
      <trkpt lat="60.484267" lon="22.262844">
        <ele>28</ele>
        <time>1970-01-01T01:00:00Z</time>
      </trkpt>
      <trkpt lat="60.484388" lon="22.262832">
        <ele>28</ele>
        <time>1970-01-01T01:00:00Z</time>
      </trkpt>
      <trkpt lat="60.48454" lon="22.262805">
        <ele>28</ele>
        <time>1970-01-01T01:00:00Z</time>
      </trkpt>
      <trkpt lat="60.484695" lon="22.262817">
        <ele>28</ele>
        <time>1970-01-01T01:00:00Z</time>
      </trkpt>
      <trkpt lat="60.484825" lon="22.2628">
        <ele>28</ele>
        <time>1970-01-01T01:00:00Z</time>
      </trkpt>
      <trkpt lat="60.485011" lon="22.262704">
        <ele>28</ele>
        <time>1970-01-01T01:00:00Z</time>
      </trkpt>
      <trkpt lat="60.485141" lon="22.262625">
        <ele>28</ele>
        <time>1970-01-01T01:00:00Z</time>
      </trkpt>
      <trkpt lat="60.485315" lon="22.262434">
        <ele>28</ele>
        <time>1970-01-01T01:00:00Z</time>
      </trkpt>
      <trkpt lat="60.485378" lon="22.262246">
        <ele>28</ele>
        <time>1970-01-01T01:00:00Z</time>
      </trkpt>
      <trkpt lat="60.485418" lon="22.262111">
        <ele>28</ele>
        <time>1970-01-01T01:00:00Z</time>
      </trkpt>
      <trkpt lat="60.485384" lon="22.26174">
        <ele>28</ele>
        <time>1970-01-01T01:00:00Z</time>
      </trkpt>
      <trkpt lat="60.485345" lon="22.261435">
        <ele>28</ele>
        <time>1970-01-01T01:00:00Z</time>
      </trkpt>
      <trkpt lat="60.48527" lon="22.260964">
        <ele>28</ele>
        <time>1970-01-01T01:00:00Z</time>
      </trkpt>
      <trkpt lat="60.48522" lon="22.260752">
        <ele>28</ele>
        <time>1970-01-01T01:00:00Z</time>
      </trkpt>
      <trkpt lat="60.485191" lon="22.26059">
        <ele>28</ele>
        <time>1970-01-01T01:00:00Z</time>
      </trkpt>
      <trkpt lat="60.485175" lon="22.260308">
        <ele>28</ele>
        <time>1970-01-01T01:00:00Z</time>
      </trkpt>
      <trkpt lat="60.485137" lon="22.259964">
        <ele>28</ele>
        <time>1970-01-01T01:00:00Z</time>
      </trkpt>
      <trkpt lat="60.485102" lon="22.259721">
        <ele>28</ele>
        <time>1970-01-01T01:00:00Z</time>
      </trkpt>
      <trkpt lat="60.485075" lon="22.259514">
        <ele>28.4545</ele>
        <time>1970-01-01T01:00:00Z</time>
      </trkpt>
      <trkpt lat="60.485074" lon="22.259234">
        <ele>28.9091</ele>
        <time>1970-01-01T01:00:00Z</time>
      </trkpt>
      <trkpt lat="60.485084" lon="22.259119">
        <ele>29.3636</ele>
        <time>1970-01-01T01:00:00Z</time>
      </trkpt>
      <trkpt lat="60.485087" lon="22.258815">
        <ele>29.8182</ele>
        <time>1970-01-01T01:00:00Z</time>
      </trkpt>
      <trkpt lat="60.485083" lon="22.258551">
        <ele>30.2727</ele>
        <time>1970-01-01T01:00:00Z</time>
      </trkpt>
      <trkpt lat="60.485037" lon="22.258305">
        <ele>30.7273</ele>
        <time>1970-01-01T01:00:00Z</time>
      </trkpt>
      <trkpt lat="60.48498" lon="22.258067">
        <ele>31.1818</ele>
        <time>1970-01-01T01:00:00Z</time>
      </trkpt>
      <trkpt lat="60.484948" lon="22.257848">
        <ele>31.6364</ele>
        <time>1970-01-01T01:00:00Z</time>
      </trkpt>
      <trkpt lat="60.484916" lon="22.257411">
        <ele>32.0909</ele>
        <time>1970-01-01T01:00:00Z</time>
      </trkpt>
      <trkpt lat="60.484874" lon="22.257173">
        <ele>32.5455</ele>
        <time>1970-01-01T01:00:00Z</time>
      </trkpt>
      <trkpt lat="60.4847" lon="22.25663">
        <ele>33</ele>
        <time>1970-01-01T01:00:00Z</time>
      </trkpt>
      <trkpt lat="60.484615" lon="22.256379">
        <ele>33</ele>
        <time>1970-01-01T01:00:00Z</time>
      </trkpt>
      <trkpt lat="60.484505" lon="22.256158">
        <ele>33</ele>
        <time>1970-01-01T01:00:00Z</time>
      </trkpt>
      <trkpt lat="60.484284" lon="22.255764">
        <ele>33</ele>
        <time>1970-01-01T01:00:00Z</time>
      </trkpt>
      <trkpt lat="60.484014" lon="22.255319">
        <ele>33</ele>
        <time>1970-01-01T01:00:00Z</time>
      </trkpt>
      <trkpt lat="60.483964" lon="22.255247">
        <ele>33</ele>
        <time>1970-01-01T01:00:00Z</time>
      </trkpt>
      <trkpt lat="60.483822" lon="22.254791">
        <ele>32.2727</ele>
        <time>1970-01-01T01:00:00Z</time>
      </trkpt>
      <trkpt lat="60.483792" lon="22.254452">
        <ele>31.5455</ele>
        <time>1970-01-01T01:00:00Z</time>
      </trkpt>
      <trkpt lat="60.483615" lon="22.254106">
        <ele>30.8182</ele>
        <time>1970-01-01T01:00:00Z</time>
      </trkpt>
      <trkpt lat="60.48349" lon="22.254161">
        <ele>30.0909</ele>
        <time>1970-01-01T01:00:00Z</time>
      </trkpt>
      <trkpt lat="60.483367" lon="22.254341">
        <ele>29.3636</ele>
        <time>1970-01-01T01:00:00Z</time>
      </trkpt>
      <trkpt lat="60.483193" lon="22.254583">
        <ele>28.6364</ele>
        <time>1970-01-01T01:00:00Z</time>
      </trkpt>
      <trkpt lat="60.483028" lon="22.254615">
        <ele>27.9091</ele>
        <time>1970-01-01T01:00:00Z</time>
      </trkpt>
      <trkpt lat="60.482894" lon="22.2546">
        <ele>27.1818</ele>
        <time>1970-01-01T01:00:00Z</time>
      </trkpt>
      <trkpt lat="60.482749" lon="22.254626">
        <ele>26.4545</ele>
        <time>1970-01-01T01:00:00Z</time>
      </trkpt>
      <trkpt lat="60.482547" lon="22.25465">
        <ele>25.7273</ele>
        <time>1970-01-01T01:00:00Z</time>
      </trkpt>
      <trkpt lat="60.482469" lon="22.254646">
        <ele>25</ele>
        <time>1970-01-01T01:00:00Z</time>
      </trkpt>
      <trkpt lat="60.482259" lon="22.254685">
        <ele>25</ele>
        <time>1970-01-01T01:00:00Z</time>
      </trkpt>
      <trkpt lat="60.48221" lon="22.254715">
        <ele>25</ele>
        <time>1970-01-01T01:00:00Z</time>
      </trkpt>
      <trkpt lat="60.482016" lon="22.254717">
        <ele>25</ele>
        <time>1970-01-01T01:00:00Z</time>
      </trkpt>
      <trkpt lat="60.481805" lon="22.254542">
        <ele>25</ele>
        <time>1970-01-01T01:00:00Z</time>
      </trkpt>
      <trkpt lat="60.481745" lon="22.254491">
        <ele>25</ele>
        <time>1970-01-01T01:00:00Z</time>
      </trkpt>
      <trkpt lat="60.481468" lon="22.254057">
        <ele>25</ele>
        <time>1970-01-01T01:00:00Z</time>
      </trkpt>
      <trkpt lat="60.481397" lon="22.253576">
        <ele>25</ele>
        <time>1970-01-01T01:00:00Z</time>
      </trkpt>
      <trkpt lat="60.481429" lon="22.253287">
        <ele>25</ele>
        <time>1970-01-01T01:00:00Z</time>
      </trkpt>
      <trkpt lat="60.481478" lon="22.253161">
        <ele>25</ele>
        <time>1970-01-01T01:00:00Z</time>
      </trkpt>
      <trkpt lat="60.48164" lon="22.252864">
        <ele>25</ele>
        <time>1970-01-01T01:00:00Z</time>
      </trkpt>
      <trkpt lat="60.48175" lon="22.252567">
        <ele>25</ele>
        <time>1970-01-01T01:00:00Z</time>
      </trkpt>
      <trkpt lat="60.481808" lon="22.252416">
        <ele>25</ele>
        <time>1970-01-01T01:00:00Z</time>
      </trkpt>
      <trkpt lat="60.481979" lon="22.252361">
        <ele>25</ele>
        <time>1970-01-01T01:00:00Z</time>
      </trkpt>
      <trkpt lat="60.482179" lon="22.252369">
        <ele>25</ele>
        <time>1970-01-01T01:00:00Z</time>
      </trkpt>
      <trkpt lat="60.482225" lon="22.252355">
        <ele>25</ele>
        <time>1970-01-01T01:00:00Z</time>
      </trkpt>
      <trkpt lat="60.482448" lon="22.252185">
        <ele>25</ele>
        <time>1970-01-01T01:00:00Z</time>
      </trkpt>
      <trkpt lat="60.482533" lon="22.252065">
        <ele>25</ele>
        <time>1970-01-01T01:00:00Z</time>
      </trkpt>
      <trkpt lat="60.482639" lon="22.252075">
        <ele>25</ele>
        <time>1970-01-01T01:00:00Z</time>
      </trkpt>
      <trkpt lat="60.482746" lon="22.252258">
        <ele>25</ele>
        <time>1970-01-01T01:00:00Z</time>
      </trkpt>
      <trkpt lat="60.48281" lon="22.252412">
        <ele>25.7273</ele>
        <time>1970-01-01T01:00:00Z</time>
      </trkpt>
      <trkpt lat="60.482858" lon="22.252534">
        <ele>26.4545</ele>
        <time>1970-01-01T01:00:00Z</time>
      </trkpt>
      <trkpt lat="60.482987" lon="22.252716">
        <ele>27.1818</ele>
        <time>1970-01-01T01:00:00Z</time>
      </trkpt>
      <trkpt lat="60.483089" lon="22.252772">
        <ele>27.9091</ele>
        <time>1970-01-01T01:00:00Z</time>
      </trkpt>
      <trkpt lat="60.48322" lon="22.252717">
        <ele>28.6364</ele>
        <time>1970-01-01T01:00:00Z</time>
      </trkpt>
      <trkpt lat="60.483352" lon="22.252575">
        <ele>29.3636</ele>
        <time>1970-01-01T01:00:00Z</time>
      </trkpt>
      <trkpt lat="60.483495" lon="22.252441">
        <ele>30.0909</ele>
        <time>1970-01-01T01:00:00Z</time>
      </trkpt>
      <trkpt lat="60.483586" lon="22.25232">
        <ele>30.8182</ele>
        <time>1970-01-01T01:00:00Z</time>
      </trkpt>
      <trkpt lat="60.48368" lon="22.25199">
        <ele>30.8182</ele>
        <time>1970-01-01T01:00:00Z</time>
      </trkpt>
      <trkpt lat="60.483643" lon="22.251688">
        <ele>30.8182</ele>
        <time>1970-01-01T01:00:00Z</time>
      </trkpt>
      <trkpt lat="60.483597" lon="22.251529">
        <ele>30.8182</ele>
        <time>1970-01-01T01:00:00Z</time>
      </trkpt>
      <trkpt lat="60.483486" lon="22.251342">
        <ele>30.0909</ele>
        <time>1970-01-01T01:00:00Z</time>
      </trkpt>
      <trkpt lat="60.48336" lon="22.251287">
        <ele>29.3636</ele>
        <time>1970-01-01T01:00:00Z</time>
      </trkpt>
      <trkpt lat="60.483297" lon="22.25133">
        <ele>28.6364</ele>
        <time>1970-01-01T01:00:00Z</time>
      </trkpt>
      <trkpt lat="60.483126" lon="22.251531">
        <ele>27.9091</ele>
        <time>1970-01-01T01:00:00Z</time>
      </trkpt>
      <trkpt lat="60.482957" lon="22.25178">
        <ele>27.1818</ele>
        <time>1970-01-01T01:00:00Z</time>
      </trkpt>
      <trkpt lat="60.482802" lon="22.252033">
        <ele>26.4545</ele>
        <time>1970-01-01T01:00:00Z</time>
      </trkpt>
      <trkpt lat="60.482628" lon="22.252095">
        <ele>25.7273</ele>
        <time>1970-01-01T01:00:00Z</time>
      </trkpt>
      <trkpt lat="60.482518" lon="22.252134">
        <ele>25</ele>
        <time>1970-01-01T01:00:00Z</time>
      </trkpt>
      <trkpt lat="60.482482" lon="22.252181">
        <ele>25</ele>
        <time>1970-01-01T01:00:00Z</time>
      </trkpt>
      <trkpt lat="60.482356" lon="22.252384">
        <ele>25</ele>
        <time>1970-01-01T01:00:00Z</time>
      </trkpt>
      <trkpt lat="60.482172" lon="22.252387">
        <ele>25</ele>
        <time>1970-01-01T01:00:00Z</time>
      </trkpt>
      <trkpt lat="60.482052" lon="22.252226">
        <ele>25</ele>
        <time>1970-01-01T01:00:00Z</time>
      </trkpt>
      <trkpt lat="60.481975" lon="22.251999">
        <ele>25</ele>
        <time>1970-01-01T01:00:00Z</time>
      </trkpt>
      <trkpt lat="60.481864" lon="22.251594">
        <ele>25</ele>
        <time>1970-01-01T01:00:00Z</time>
      </trkpt>
      <trkpt lat="60.481759" lon="22.251428">
        <ele>25</ele>
        <time>1970-01-01T01:00:00Z</time>
      </trkpt>
      <trkpt lat="60.481722" lon="22.251427">
        <ele>25</ele>
        <time>1970-01-01T01:00:00Z</time>
      </trkpt>
      <trkpt lat="60.481546" lon="22.251602">
        <ele>25</ele>
        <time>1970-01-01T01:00:00Z</time>
      </trkpt>
      <trkpt lat="60.481373" lon="22.25178">
        <ele>25</ele>
        <time>1970-01-01T01:00:00Z</time>
      </trkpt>
      <trkpt lat="60.481171" lon="22.251899">
        <ele>25</ele>
        <time>1970-01-01T01:00:00Z</time>
      </trkpt>
      <trkpt lat="60.480769" lon="22.252132">
        <ele>25</ele>
        <time>1970-01-01T01:00:00Z</time>
      </trkpt>
      <trkpt lat="60.480504" lon="22.252363">
        <ele>25</ele>
        <time>1970-01-01T01:00:00Z</time>
      </trkpt>
      <trkpt lat="60.480377" lon="22.252519">
        <ele>25</ele>
        <time>1970-01-01T01:00:00Z</time>
      </trkpt>
      <trkpt lat="60.480158" lon="22.252805">
        <ele>25</ele>
        <time>1970-01-01T01:00:00Z</time>
      </trkpt>
      <trkpt lat="60.480112" lon="22.252867">
        <ele>25</ele>
        <time>1970-01-01T01:00:00Z</time>
      </trkpt>
      <trkpt lat="60.480001" lon="22.253149">
        <ele>25</ele>
        <time>1970-01-01T01:00:00Z</time>
      </trkpt>
      <trkpt lat="60.480033" lon="22.253325">
        <ele>25</ele>
        <time>1970-01-01T01:00:00Z</time>
      </trkpt>
      <trkpt lat="60.48016" lon="22.253501">
        <ele>25</ele>
        <time>1970-01-01T01:00:00Z</time>
      </trkpt>
      <trkpt lat="60.480227" lon="22.253513">
        <ele>25</ele>
        <time>1970-01-01T01:00:00Z</time>
      </trkpt>
      <trkpt lat="60.480428" lon="22.253398">
        <ele>25</ele>
        <time>1970-01-01T01:00:00Z</time>
      </trkpt>
      <trkpt lat="60.480577" lon="22.253269">
        <ele>25</ele>
        <time>1970-01-01T01:00:00Z</time>
      </trkpt>
      <trkpt lat="60.480669" lon="22.25322">
        <ele>25</ele>
        <time>1970-01-01T01:00:00Z</time>
      </trkpt>
      <trkpt lat="60.480771" lon="22.253235">
        <ele>25</ele>
        <time>1970-01-01T01:00:00Z</time>
      </trkpt>
      <trkpt lat="60.480922" lon="22.253362">
        <ele>25</ele>
        <time>1970-01-01T01:00:00Z</time>
      </trkpt>
      <trkpt lat="60.481017" lon="22.253454">
        <ele>25</ele>
        <time>1970-01-01T01:00:00Z</time>
      </trkpt>
      <trkpt lat="60.481114" lon="22.25356">
        <ele>25</ele>
        <time>1970-01-01T01:00:00Z</time>
      </trkpt>
      <trkpt lat="60.481206" lon="22.253691">
        <ele>25</ele>
        <time>1970-01-01T01:00:00Z</time>
      </trkpt>
      <trkpt lat="60.481291" lon="22.253813">
        <ele>25</ele>
        <time>1970-01-01T01:00:00Z</time>
      </trkpt>
      <trkpt lat="60.481379" lon="22.253953">
        <ele>25</ele>
        <time>1970-01-01T01:00:00Z</time>
      </trkpt>
      <trkpt lat="60.481469" lon="22.254091">
        <ele>25</ele>
        <time>1970-01-01T01:00:00Z</time>
      </trkpt>
      <trkpt lat="60.48152" lon="22.254187">
        <ele>25</ele>
        <time>1970-01-01T01:00:00Z</time>
      </trkpt>
      <trkpt lat="60.481565" lon="22.254413">
        <ele>25</ele>
        <time>1970-01-01T01:00:00Z</time>
      </trkpt>
      <trkpt lat="60.481555" lon="22.254474">
        <ele>25</ele>
        <time>1970-01-01T01:00:00Z</time>
      </trkpt>
      <trkpt lat="60.48144" lon="22.25475">
        <ele>25</ele>
        <time>1970-01-01T01:00:00Z</time>
      </trkpt>
      <trkpt lat="60.481275" lon="22.254915">
        <ele>25</ele>
        <time>1970-01-01T01:00:00Z</time>
      </trkpt>
      <trkpt lat="60.481226" lon="22.254948">
        <ele>25</ele>
        <time>1970-01-01T01:00:00Z</time>
      </trkpt>
      <trkpt lat="60.481095" lon="22.255067">
        <ele>25</ele>
        <time>1970-01-01T01:00:00Z</time>
      </trkpt>
      <trkpt lat="60.480991" lon="22.25518">
        <ele>25</ele>
        <time>1970-01-01T01:00:00Z</time>
      </trkpt>
      <trkpt lat="60.480889" lon="22.255288">
        <ele>25</ele>
        <time>1970-01-01T01:00:00Z</time>
      </trkpt>
      <trkpt lat="60.480805" lon="22.255404">
        <ele>25</ele>
        <time>1970-01-01T01:00:00Z</time>
      </trkpt>
      <trkpt lat="60.480757" lon="22.25557">
        <ele>25</ele>
        <time>1970-01-01T01:00:00Z</time>
      </trkpt>
      <trkpt lat="60.480737" lon="22.255748">
        <ele>25</ele>
        <time>1970-01-01T01:00:00Z</time>
      </trkpt>
      <trkpt lat="60.480742" lon="22.255861">
        <ele>25</ele>
        <time>1970-01-01T01:00:00Z</time>
      </trkpt>
      <trkpt lat="60.480774" lon="22.256023">
        <ele>25</ele>
        <time>1970-01-01T01:00:00Z</time>
      </trkpt>
      <trkpt lat="60.480794" lon="22.256055">
        <ele>25</ele>
        <time>1970-01-01T01:00:00Z</time>
      </trkpt>
      <trkpt lat="60.480936" lon="22.256282">
        <ele>25</ele>
        <time>1970-01-01T01:00:00Z</time>
      </trkpt>
      <trkpt lat="60.481048" lon="22.256428">
        <ele>25</ele>
        <time>1970-01-01T01:00:00Z</time>
      </trkpt>
      <trkpt lat="60.481131" lon="22.256597">
        <ele>25</ele>
        <time>1970-01-01T01:00:00Z</time>
      </trkpt>
      <trkpt lat="60.481199" lon="22.256795">
        <ele>25</ele>
        <time>1970-01-01T01:00:00Z</time>
      </trkpt>
      <trkpt lat="60.481229" lon="22.256951">
        <ele>25</ele>
        <time>1970-01-01T01:00:00Z</time>
      </trkpt>
      <trkpt lat="60.481222" lon="22.257178">
        <ele>24.9091</ele>
        <time>1970-01-01T01:00:00Z</time>
      </trkpt>
      <trkpt lat="60.481172" lon="22.25736">
        <ele>24.8182</ele>
        <time>1970-01-01T01:00:00Z</time>
      </trkpt>
      <trkpt lat="60.481173" lon="22.257483">
        <ele>24.7273</ele>
        <time>1970-01-01T01:00:00Z</time>
      </trkpt>
      <trkpt lat="60.481122" lon="22.257741">
        <ele>24.6364</ele>
        <time>1970-01-01T01:00:00Z</time>
      </trkpt>
      <trkpt lat="60.481096" lon="22.257928">
        <ele>24.5455</ele>
        <time>1970-01-01T01:00:00Z</time>
      </trkpt>
      <trkpt lat="60.481044" lon="22.258463">
        <ele>24.4545</ele>
        <time>1970-01-01T01:00:00Z</time>
      </trkpt>
      <trkpt lat="60.48109" lon="22.259002">
        <ele>24.3636</ele>
        <time>1970-01-01T01:00:00Z</time>
      </trkpt>
      <trkpt lat="60.481116" lon="22.259264">
        <ele>24.2727</ele>
        <time>1970-01-01T01:00:00Z</time>
      </trkpt>
      <trkpt lat="60.481193" lon="22.259612">
        <ele>24.1818</ele>
        <time>1970-01-01T01:00:00Z</time>
      </trkpt>
      <trkpt lat="60.481252" lon="22.259908">
        <ele>24.0909</ele>
        <time>1970-01-01T01:00:00Z</time>
      </trkpt>
      <trkpt lat="60.481302" lon="22.260357">
        <ele>24</ele>
        <time>1970-01-01T01:00:00Z</time>
      </trkpt>
      <trkpt lat="60.481333" lon="22.260775">
        <ele>24</ele>
        <time>1970-01-01T01:00:00Z</time>
      </trkpt>
      <trkpt lat="60.481439" lon="22.261367">
        <ele>24</ele>
        <time>1970-01-01T01:00:00Z</time>
      </trkpt>
      <trkpt lat="60.481472" lon="22.261542">
        <ele>24</ele>
        <time>1970-01-01T01:00:00Z</time>
      </trkpt>
      <trkpt lat="60.481607" lon="22.262022">
        <ele>24</ele>
        <time>1970-01-01T01:00:00Z</time>
      </trkpt>
      <trkpt lat="60.481632" lon="22.262109">
        <ele>24</ele>
        <time>1970-01-01T01:00:00Z</time>
      </trkpt>
      <trkpt lat="60.481707" lon="22.262393">
        <ele>24</ele>
        <time>1970-01-01T01:00:00Z</time>
      </trkpt>
      <trkpt lat="60.481769" lon="22.262561">
        <ele>24</ele>
        <time>1970-01-01T01:00:00Z</time>
      </trkpt>
      <trkpt lat="60.481829" lon="22.262687">
        <ele>24</ele>
        <time>1970-01-01T01:00:00Z</time>
      </trkpt>
      <trkpt lat="60.48198" lon="22.262928">
        <ele>24</ele>
        <time>1970-01-01T01:00:00Z</time>
      </trkpt>
      <trkpt lat="60.482019" lon="22.262985">
        <ele>24</ele>
        <time>1970-01-01T01:00:00Z</time>
      </trkpt>
      <trkpt lat="60.482279" lon="22.26331">
        <ele>24</ele>
        <time>1970-01-01T01:00:00Z</time>
      </trkpt>
      <trkpt lat="60.482501" lon="22.263516">
        <ele>24</ele>
        <time>1970-01-01T01:00:00Z</time>
      </trkpt>
      <trkpt lat="60.482638" lon="22.263646">
        <ele>24</ele>
        <time>1970-01-01T01:00:00Z</time>
      </trkpt>
      <trkpt lat="60.482765" lon="22.263684">
        <ele>24.3636</ele>
        <time>1970-01-01T01:00:00Z</time>
      </trkpt>
      <trkpt lat="60.482967" lon="22.263647">
        <ele>24.7273</ele>
        <time>1970-01-01T01:00:00Z</time>
      </trkpt>
      <trkpt lat="60.483081" lon="22.26352">
        <ele>25.0909</ele>
        <time>1970-01-01T01:00:00Z</time>
      </trkpt>
      <trkpt lat="60.483129" lon="22.263454">
        <ele>25.4545</ele>
        <time>1970-01-01T01:00:00Z</time>
      </trkpt>
      <trkpt lat="60.48325" lon="22.263341">
        <ele>25.8182</ele>
        <time>1970-01-01T01:00:00Z</time>
      </trkpt>
      <trkpt lat="60.483404" lon="22.263279">
        <ele>26.1818</ele>
        <time>1970-01-01T01:00:00Z</time>
      </trkpt>
      <trkpt lat="60.483568" lon="22.263194">
        <ele>26.5455</ele>
        <time>1970-01-01T01:00:00Z</time>
      </trkpt>
      <trkpt lat="60.483723" lon="22.263085">
        <ele>26.9091</ele>
        <time>1970-01-01T01:00:00Z</time>
      </trkpt>
      <trkpt lat="60.48382" lon="22.26304">
        <ele>27.2727</ele>
        <time>1970-01-01T01:00:00Z</time>
      </trkpt>
      <trkpt lat="60.483929" lon="22.263003">
        <ele>27.6364</ele>
        <time>1970-01-01T01:00:00Z</time>
      </trkpt>
      <trkpt lat="60.484062" lon="22.26298">
        <ele>28</ele>
        <time>1970-01-01T01:00:00Z</time>
      </trkpt>
      <trkpt lat="60.484118" lon="22.262948">
        <ele>28</ele>
        <time>1970-01-01T01:00:00Z</time>
      </trkpt>
      <trkpt lat="60.484265" lon="22.262952">
        <ele>28</ele>
        <time>1970-01-01T01:00:00Z</time>
      </trkpt>
      <trkpt lat="60.484383" lon="22.262929">
        <ele>28</ele>
        <time>1970-01-01T01:00:00Z</time>
      </trkpt>
      <trkpt lat="60.484565" lon="22.262909">
        <ele>28</ele>
        <time>1970-01-01T01:00:00Z</time>
      </trkpt>
      <trkpt lat="60.484784" lon="22.262872">
        <ele>28</ele>
        <time>1970-01-01T01:00:00Z</time>
      </trkpt>
      <trkpt lat="60.484911" lon="22.262845">
        <ele>28</ele>
        <time>1970-01-01T01:00:00Z</time>
      </trkpt>
      <trkpt lat="60.485057" lon="22.262768">
        <ele>28</ele>
        <time>1970-01-01T01:00:00Z</time>
      </trkpt>
      <trkpt lat="60.485081" lon="22.26276">
        <ele>28</ele>
        <time>1970-01-01T01:00:00Z</time>
      </trkpt>
      <trkpt lat="60.485215" lon="22.262606">
        <ele>28</ele>
        <time>1970-01-01T01:00:00Z</time>
      </trkpt>
      <trkpt lat="60.485321" lon="22.262423">
        <ele>28</ele>
        <time>1970-01-01T01:00:00Z</time>
      </trkpt>
      <trkpt lat="60.485345" lon="22.262363">
        <ele>28</ele>
        <time>1970-01-01T01:00:00Z</time>
      </trkpt>
      <trkpt lat="60.485363" lon="22.262087">
        <ele>28</ele>
        <time>1970-01-01T01:00:00Z</time>
      </trkpt>
      <trkpt lat="60.485327" lon="22.261783">
        <ele>28</ele>
        <time>1970-01-01T01:00:00Z</time>
      </trkpt>
      <trkpt lat="60.485317" lon="22.2617">
        <ele>28</ele>
        <time>1970-01-01T01:00:00Z</time>
      </trkpt>
      <trkpt lat="60.485247" lon="22.261279">
        <ele>28</ele>
        <time>1970-01-01T01:00:00Z</time>
      </trkpt>
      <trkpt lat="60.485203" lon="22.261022">
        <ele>28</ele>
        <time>1970-01-01T01:00:00Z</time>
      </trkpt>
      <trkpt lat="60.485183" lon="22.260827">
        <ele>28</ele>
        <time>1970-01-01T01:00:00Z</time>
      </trkpt>
      <trkpt lat="60.48518" lon="22.260637">
        <ele>28</ele>
        <time>1970-01-01T01:00:00Z</time>
      </trkpt>
      <trkpt lat="60.485182" lon="22.260152">
        <ele>28</ele>
        <time>1970-01-01T01:00:00Z</time>
      </trkpt>
      <trkpt lat="60.485142" lon="22.259874">
        <ele>28</ele>
        <time>1970-01-01T01:00:00Z</time>
      </trkpt>
      <trkpt lat="60.485127" lon="22.259816">
        <ele>28</ele>
        <time>1970-01-01T01:00:00Z</time>
      </trkpt>
      <trkpt lat="60.485099" lon="22.259646">
        <ele>28</ele>
        <time>1970-01-01T01:00:00Z</time>
      </trkpt>
      <trkpt lat="60.485065" lon="22.25945">
        <ele>28</ele>
        <time>1970-01-01T01:00:00Z</time>
      </trkpt>
      <trkpt lat="60.485056" lon="22.259389">
        <ele>28.4545</ele>
        <time>1970-01-01T01:00:00Z</time>
      </trkpt>
      <trkpt lat="60.485052" lon="22.259068">
        <ele>28.9091</ele>
        <time>1970-01-01T01:00:00Z</time>
      </trkpt>
      <trkpt lat="60.485048" lon="22.259007">
        <ele>29.3636</ele>
        <time>1970-01-01T01:00:00Z</time>
      </trkpt>
      <trkpt lat="60.485076" lon="22.258634">
        <ele>29.8182</ele>
        <time>1970-01-01T01:00:00Z</time>
      </trkpt>
      <trkpt lat="60.485059" lon="22.258442">
        <ele>30.2727</ele>
        <time>1970-01-01T01:00:00Z</time>
      </trkpt>
      <trkpt lat="60.485051" lon="22.258348">
        <ele>30.7273</ele>
        <time>1970-01-01T01:00:00Z</time>
      </trkpt>
      <trkpt lat="60.484988" lon="22.258046">
        <ele>31.1818</ele>
        <time>1970-01-01T01:00:00Z</time>
      </trkpt>
      <trkpt lat="60.484933" lon="22.257775">
        <ele>31.6364</ele>
        <time>1970-01-01T01:00:00Z</time>
      </trkpt>
      <trkpt lat="60.484836" lon="22.257386">
        <ele>32.0909</ele>
        <time>1970-01-01T01:00:00Z</time>
      </trkpt>
      <trkpt lat="60.484791" lon="22.257141">
        <ele>32.5455</ele>
        <time>1970-01-01T01:00:00Z</time>
      </trkpt>
      <trkpt lat="60.484639" lon="22.256591">
        <ele>33</ele>
        <time>1970-01-01T01:00:00Z</time>
      </trkpt>
      <trkpt lat="60.484613" lon="22.256491">
        <ele>33</ele>
        <time>1970-01-01T01:00:00Z</time>
      </trkpt>
      <trkpt lat="60.484516" lon="22.256139">
        <ele>33</ele>
        <time>1970-01-01T01:00:00Z</time>
      </trkpt>
      <trkpt lat="60.484356" lon="22.255859">
        <ele>33</ele>
        <time>1970-01-01T01:00:00Z</time>
      </trkpt>
      <trkpt lat="60.484106" lon="22.25544">
        <ele>33</ele>
        <time>1970-01-01T01:00:00Z</time>
      </trkpt>
      <trkpt lat="60.484001" lon="22.255284">
        <ele>33</ele>
        <time>1970-01-01T01:00:00Z</time>
      </trkpt>
      <trkpt lat="60.483847" lon="22.254856">
        <ele>33</ele>
        <time>1970-01-01T01:00:00Z</time>
      </trkpt>
      <trkpt lat="60.48382" lon="22.254561">
        <ele>32.2727</ele>
        <time>1970-01-01T01:00:00Z</time>
      </trkpt>
      <trkpt lat="60.48381" lon="22.25445">
        <ele>31.5455</ele>
        <time>1970-01-01T01:00:00Z</time>
      </trkpt>
      <trkpt lat="60.48366" lon="22.254069">
        <ele>30.8182</ele>
        <time>1970-01-01T01:00:00Z</time>
      </trkpt>
      <trkpt lat="60.483458" lon="22.254093">
        <ele>30.0909</ele>
        <time>1970-01-01T01:00:00Z</time>
      </trkpt>
      <trkpt lat="60.483374" lon="22.254198">
        <ele>29.3636</ele>
        <time>1970-01-01T01:00:00Z</time>
      </trkpt>
      <trkpt lat="60.483322" lon="22.254292">
        <ele>28.6364</ele>
        <time>1970-01-01T01:00:00Z</time>
      </trkpt>
      <trkpt lat="60.483176" lon="22.254425">
        <ele>27.9091</ele>
        <time>1970-01-01T01:00:00Z</time>
      </trkpt>
      <trkpt lat="60.483144" lon="22.254447">
        <ele>27.1818</ele>
        <time>1970-01-01T01:00:00Z</time>
      </trkpt>
      <trkpt lat="60.482992" lon="22.254536">
        <ele>26.4545</ele>
        <time>1970-01-01T01:00:00Z</time>
      </trkpt>
      <trkpt lat="60.482852" lon="22.254559">
        <ele>25.7273</ele>
        <time>1970-01-01T01:00:00Z</time>
      </trkpt>
      <trkpt lat="60.482707" lon="22.254587">
        <ele>25</ele>
        <time>1970-01-01T01:00:00Z</time>
      </trkpt>
      <trkpt lat="60.482649" lon="22.254581">
        <ele>25</ele>
        <time>1970-01-01T01:00:00Z</time>
      </trkpt>
      <trkpt lat="60.48249" lon="22.254648">
        <ele>25</ele>
        <time>1970-01-01T01:00:00Z</time>
      </trkpt>
      <trkpt lat="60.482458" lon="22.254648">
        <ele>25</ele>
        <time>1970-01-01T01:00:00Z</time>
      </trkpt>
      <trkpt lat="60.482327" lon="22.25476">
        <ele>25</ele>
        <time>1970-01-01T01:00:00Z</time>
      </trkpt>
      <trkpt lat="60.482279" lon="22.254748">
        <ele>25</ele>
        <time>1970-01-01T01:00:00Z</time>
      </trkpt>
      <trkpt lat="60.482164" lon="22.254838">
        <ele>25</ele>
        <time>1970-01-01T01:00:00Z</time>
      </trkpt>
      <trkpt lat="60.4821" lon="22.254861">
        <ele>25</ele>
        <time>1970-01-01T01:00:00Z</time>
      </trkpt>
      <trkpt lat="60.481902" lon="22.254758">
        <ele>25</ele>
        <time>1970-01-01T01:00:00Z</time>
      </trkpt>
      <trkpt lat="60.481753" lon="22.254638">
        <ele>25</ele>
        <time>1970-01-01T01:00:00Z</time>
      </trkpt>
      <trkpt lat="60.481586" lon="22.254392">
        <ele>25</ele>
        <time>1970-01-01T01:00:00Z</time>
      </trkpt>
      <trkpt lat="60.481489" lon="22.254191">
        <ele>25</ele>
        <time>1970-01-01T01:00:00Z</time>
      </trkpt>
      <trkpt lat="60.481393" lon="22.253715">
        <ele>25</ele>
        <time>1970-01-01T01:00:00Z</time>
      </trkpt>
      <trkpt lat="60.481438" lon="22.253412">
        <ele>25</ele>
        <time>1970-01-01T01:00:00Z</time>
      </trkpt>
      <trkpt lat="60.481547" lon="22.253121">
        <ele>25</ele>
        <time>1970-01-01T01:00:00Z</time>
      </trkpt>
      <trkpt lat="60.481777" lon="22.252649">
        <ele>25</ele>
        <time>1970-01-01T01:00:00Z</time>
      </trkpt>
      <trkpt lat="60.481832" lon="22.252513">
        <ele>25</ele>
        <time>1970-01-01T01:00:00Z</time>
      </trkpt>
      <trkpt lat="60.482005" lon="22.252423">
        <ele>25</ele>
        <time>1970-01-01T01:00:00Z</time>
      </trkpt>
      <trkpt lat="60.48215" lon="22.2524">
        <ele>25</ele>
        <time>1970-01-01T01:00:00Z</time>
      </trkpt>
      <trkpt lat="60.482314" lon="22.252295">
        <ele>25</ele>
        <time>1970-01-01T01:00:00Z</time>
      </trkpt>
      <trkpt lat="60.482508" lon="22.252048">
        <ele>25</ele>
        <time>1970-01-01T01:00:00Z</time>
      </trkpt>
      <trkpt lat="60.482612" lon="22.252046">
        <ele>25</ele>
        <time>1970-01-01T01:00:00Z</time>
      </trkpt>
      <trkpt lat="60.482723" lon="22.252253">
        <ele>25</ele>
        <time>1970-01-01T01:00:00Z</time>
      </trkpt>
      <trkpt lat="60.48281" lon="22.252498">
        <ele>25</ele>
        <time>1970-01-01T01:00:00Z</time>
      </trkpt>
      <trkpt lat="60.48288" lon="22.252686">
        <ele>25.7273</ele>
        <time>1970-01-01T01:00:00Z</time>
      </trkpt>
      <trkpt lat="60.482973" lon="22.25277">
        <ele>26.4545</ele>
        <time>1970-01-01T01:00:00Z</time>
      </trkpt>
      <trkpt lat="60.483059" lon="22.252737">
        <ele>27.1818</ele>
        <time>1970-01-01T01:00:00Z</time>
      </trkpt>
      <trkpt lat="60.483199" lon="22.252592">
        <ele>27.9091</ele>
        <time>1970-01-01T01:00:00Z</time>
      </trkpt>
      <trkpt lat="60.483328" lon="22.252496">
        <ele>28.6364</ele>
        <time>1970-01-01T01:00:00Z</time>
      </trkpt>
      <trkpt lat="60.483443" lon="22.252359">
        <ele>29.3636</ele>
        <time>1970-01-01T01:00:00Z</time>
      </trkpt>
      <trkpt lat="60.483533" lon="22.252209">
        <ele>29.3636</ele>
        <time>1970-01-01T01:00:00Z</time>
      </trkpt>
      <trkpt lat="60.483598" lon="22.251958">
        <ele>29.3636</ele>
        <time>1970-01-01T01:00:00Z</time>
      </trkpt>
      <trkpt lat="60.483592" lon="22.251772">
        <ele>29.3636</ele>
        <time>1970-01-01T01:00:00Z</time>
      </trkpt>
      <trkpt lat="60.483536" lon="22.251553">
        <ele>29.3636</ele>
        <time>1970-01-01T01:00:00Z</time>
      </trkpt>
      <trkpt lat="60.483467" lon="22.251385">
        <ele>29.3636</ele>
        <time>1970-01-01T01:00:00Z</time>
      </trkpt>
      <trkpt lat="60.483327" lon="22.251304">
        <ele>28.6364</ele>
        <time>1970-01-01T01:00:00Z</time>
      </trkpt>
      <trkpt lat="60.48325" lon="22.251316">
        <ele>27.9091</ele>
        <time>1970-01-01T01:00:00Z</time>
      </trkpt>
      <trkpt lat="60.48308" lon="22.251489">
        <ele>27.1818</ele>
        <time>1970-01-01T01:00:00Z</time>
      </trkpt>
      <trkpt lat="60.482932" lon="22.251729">
        <ele>26.4545</ele>
        <time>1970-01-01T01:00:00Z</time>
      </trkpt>
      <trkpt lat="60.482827" lon="22.251919">
        <ele>25.7273</ele>
        <time>1970-01-01T01:00:00Z</time>
      </trkpt>
      <trkpt lat="60.482697" lon="22.252057">
        <ele>25</ele>
        <time>1970-01-01T01:00:00Z</time>
      </trkpt>
      <trkpt lat="60.482593" lon="22.252027">
        <ele>25</ele>
        <time>1970-01-01T01:00:00Z</time>
      </trkpt>
      <trkpt lat="60.482448" lon="22.25208">
        <ele>25</ele>
        <time>1970-01-01T01:00:00Z</time>
      </trkpt>
      <trkpt lat="60.482344" lon="22.252202">
        <ele>25</ele>
        <time>1970-01-01T01:00:00Z</time>
      </trkpt>
      <trkpt lat="60.482171" lon="22.252322">
        <ele>25</ele>
        <time>1970-01-01T01:00:00Z</time>
      </trkpt>
      <trkpt lat="60.482042" lon="22.252172">
        <ele>25</ele>
        <time>1970-01-01T01:00:00Z</time>
      </trkpt>
      <trkpt lat="60.481906" lon="22.25186">
        <ele>25</ele>
        <time>1970-01-01T01:00:00Z</time>
      </trkpt>
      <trkpt lat="60.481851" lon="22.251688">
        <ele>25</ele>
        <time>1970-01-01T01:00:00Z</time>
      </trkpt>
      <trkpt lat="60.481773" lon="22.251491">
        <ele>25</ele>
        <time>1970-01-01T01:00:00Z</time>
      </trkpt>
      <trkpt lat="60.481675" lon="22.251358">
        <ele>25</ele>
        <time>1970-01-01T01:00:00Z</time>
      </trkpt>
      <trkpt lat="60.481587" lon="22.251373">
        <ele>25</ele>
        <time>1970-01-01T01:00:00Z</time>
      </trkpt>
      <trkpt lat="60.481552" lon="22.251404">
        <ele>25</ele>
        <time>1970-01-01T01:00:00Z</time>
      </trkpt>
      <trkpt lat="60.481384" lon="22.251627">
        <ele>25</ele>
        <time>1970-01-01T01:00:00Z</time>
      </trkpt>
      <trkpt lat="60.481279" lon="22.251753">
        <ele>25</ele>
        <time>1970-01-01T01:00:00Z</time>
      </trkpt>
      <trkpt lat="60.481051" lon="22.251938">
        <ele>25</ele>
        <time>1970-01-01T01:00:00Z</time>
      </trkpt>
      <trkpt lat="60.48089" lon="22.25205">
        <ele>25</ele>
        <time>1970-01-01T01:00:00Z</time>
      </trkpt>
      <trkpt lat="60.480792" lon="22.25214">
        <ele>25</ele>
        <time>1970-01-01T01:00:00Z</time>
      </trkpt>
      <trkpt lat="60.480559" lon="22.25235">
        <ele>25</ele>
        <time>1970-01-01T01:00:00Z</time>
      </trkpt>
      <trkpt lat="60.480356" lon="22.252553">
        <ele>25</ele>
        <time>1970-01-01T01:00:00Z</time>
      </trkpt>
      <trkpt lat="60.480213" lon="22.252749">
        <ele>25</ele>
        <time>1970-01-01T01:00:00Z</time>
      </trkpt>
      <trkpt lat="60.480017" lon="22.253049">
        <ele>25</ele>
        <time>1970-01-01T01:00:00Z</time>
      </trkpt>
      <trkpt lat="60.480001" lon="22.253267">
        <ele>25</ele>
        <time>1970-01-01T01:00:00Z</time>
      </trkpt>
      <trkpt lat="60.480022" lon="22.253336">
        <ele>25</ele>
        <time>1970-01-01T01:00:00Z</time>
      </trkpt>
      <trkpt lat="60.480264" lon="22.253569">
        <ele>25</ele>
        <time>1970-01-01T01:00:00Z</time>
      </trkpt>
      <trkpt lat="60.480426" lon="22.253515">
        <ele>25</ele>
        <time>1970-01-01T01:00:00Z</time>
      </trkpt>
      <trkpt lat="60.480554" lon="22.253391">
        <ele>25</ele>
        <time>1970-01-01T01:00:00Z</time>
      </trkpt>
      <trkpt lat="60.480667" lon="22.253323">
        <ele>25</ele>
        <time>1970-01-01T01:00:00Z</time>
      </trkpt>
      <trkpt lat="60.48077" lon="22.253329">
        <ele>25</ele>
        <time>1970-01-01T01:00:00Z</time>
      </trkpt>
      <trkpt lat="60.480791" lon="22.253336">
        <ele>25</ele>
        <time>1970-01-01T01:00:00Z</time>
      </trkpt>
      <trkpt lat="60.480911" lon="22.253447">
        <ele>25</ele>
        <time>1970-01-01T01:00:00Z</time>
      </trkpt>
      <trkpt lat="60.480971" lon="22.253503">
        <ele>25</ele>
        <time>1970-01-01T01:00:00Z</time>
      </trkpt>
      <trkpt lat="60.481088" lon="22.25359">
        <ele>25</ele>
        <time>1970-01-01T01:00:00Z</time>
      </trkpt>
      <trkpt lat="60.481205" lon="22.25375">
        <ele>25</ele>
        <time>1970-01-01T01:00:00Z</time>
      </trkpt>
      <trkpt lat="60.481308" lon="22.253897">
        <ele>25</ele>
        <time>1970-01-01T01:00:00Z</time>
      </trkpt>
      <trkpt lat="60.481392" lon="22.254019">
        <ele>25</ele>
        <time>1970-01-01T01:00:00Z</time>
      </trkpt>
      <trkpt lat="60.481489" lon="22.254176">
        <ele>25</ele>
        <time>1970-01-01T01:00:00Z</time>
      </trkpt>
      <trkpt lat="60.481536" lon="22.254304">
        <ele>25</ele>
        <time>1970-01-01T01:00:00Z</time>
      </trkpt>
      <trkpt lat="60.481561" lon="22.25442">
        <ele>25</ele>
        <time>1970-01-01T01:00:00Z</time>
      </trkpt>
      <trkpt lat="60.481498" lon="22.254653">
        <ele>25</ele>
        <time>1970-01-01T01:00:00Z</time>
      </trkpt>
      <trkpt lat="60.481328" lon="22.25482">
        <ele>25</ele>
        <time>1970-01-01T01:00:00Z</time>
      </trkpt>
      <trkpt lat="60.481162" lon="22.255044">
        <ele>25</ele>
        <time>1970-01-01T01:00:00Z</time>
      </trkpt>
      <trkpt lat="60.481084" lon="22.255124">
        <ele>25</ele>
        <time>1970-01-01T01:00:00Z</time>
      </trkpt>
      <trkpt lat="60.480934" lon="22.255304">
        <ele>25</ele>
        <time>1970-01-01T01:00:00Z</time>
      </trkpt>
      <trkpt lat="60.480839" lon="22.255483">
        <ele>25</ele>
        <time>1970-01-01T01:00:00Z</time>
      </trkpt>
      <trkpt lat="60.480795" lon="22.255638">
        <ele>25</ele>
        <time>1970-01-01T01:00:00Z</time>
      </trkpt>
      <trkpt lat="60.480776" lon="22.255781">
        <ele>25</ele>
        <time>1970-01-01T01:00:00Z</time>
      </trkpt>
      <trkpt lat="60.480769" lon="22.255983">
        <ele>25</ele>
        <time>1970-01-01T01:00:00Z</time>
      </trkpt>
      <trkpt lat="60.480815" lon="22.256096">
        <ele>25</ele>
        <time>1970-01-01T01:00:00Z</time>
      </trkpt>
      <trkpt lat="60.480967" lon="22.256308">
        <ele>25</ele>
        <time>1970-01-01T01:00:00Z</time>
      </trkpt>
      <trkpt lat="60.481065" lon="22.256469">
        <ele>25</ele>
        <time>1970-01-01T01:00:00Z</time>
      </trkpt>
      <trkpt lat="60.481127" lon="22.256574">
        <ele>25</ele>
        <time>1970-01-01T01:00:00Z</time>
      </trkpt>
      <trkpt lat="60.481156" lon="22.256633">
        <ele>25</ele>
        <time>1970-01-01T01:00:00Z</time>
      </trkpt>
      <trkpt lat="60.481199" lon="22.256842">
        <ele>25</ele>
        <time>1970-01-01T01:00:00Z</time>
      </trkpt>
      <trkpt lat="60.481215" lon="22.257027">
        <ele>25</ele>
        <time>1970-01-01T01:00:00Z</time>
      </trkpt>
      <trkpt lat="60.481216" lon="22.257254">
        <ele>24.9091</ele>
        <time>1970-01-01T01:00:00Z</time>
      </trkpt>
      <trkpt lat="60.481208" lon="22.257435">
        <ele>24.8182</ele>
        <time>1970-01-01T01:00:00Z</time>
      </trkpt>
      <trkpt lat="60.481187" lon="22.257607">
        <ele>24.7273</ele>
        <time>1970-01-01T01:00:00Z</time>
      </trkpt>
      <trkpt lat="60.481164" lon="22.257739">
        <ele>24.6364</ele>
        <time>1970-01-01T01:00:00Z</time>
      </trkpt>
      <trkpt lat="60.481106" lon="22.258109">
        <ele>24.5455</ele>
        <time>1970-01-01T01:00:00Z</time>
      </trkpt>
      <trkpt lat="60.481063" lon="22.258444">
        <ele>24.4545</ele>
        <time>1970-01-01T01:00:00Z</time>
      </trkpt>
      <trkpt lat="60.481133" lon="22.259121">
        <ele>24.3636</ele>
        <time>1970-01-01T01:00:00Z</time>
      </trkpt>
      <trkpt lat="60.481203" lon="22.259596">
        <ele>24.2727</ele>
        <time>1970-01-01T01:00:00Z</time>
      </trkpt>
      <trkpt lat="60.481291" lon="22.260091">
        <ele>24.1818</ele>
        <time>1970-01-01T01:00:00Z</time>
      </trkpt>
      <trkpt lat="60.481302" lon="22.260262">
        <ele>24.0909</ele>
        <time>1970-01-01T01:00:00Z</time>
      </trkpt>
      <trkpt lat="60.481365" lon="22.260649">
        <ele>24</ele>
        <time>1970-01-01T01:00:00Z</time>
      </trkpt>
      <trkpt lat="60.481408" lon="22.260928">
        <ele>24</ele>
        <time>1970-01-01T01:00:00Z</time>
      </trkpt>
      <trkpt lat="60.481476" lon="22.261371">
        <ele>24</ele>
        <time>1970-01-01T01:00:00Z</time>
      </trkpt>
      <trkpt lat="60.481491" lon="22.261463">
        <ele>24</ele>
        <time>1970-01-01T01:00:00Z</time>
      </trkpt>
      <trkpt lat="60.481584" lon="22.261988">
        <ele>24</ele>
        <time>1970-01-01T01:00:00Z</time>
      </trkpt>
      <trkpt lat="60.481702" lon="22.262387">
        <ele>24</ele>
        <time>1970-01-01T01:00:00Z</time>
      </trkpt>
      <trkpt lat="60.481813" lon="22.262701">
        <ele>24</ele>
        <time>1970-01-01T01:00:00Z</time>
      </trkpt>
      <trkpt lat="60.481921" lon="22.262895">
        <ele>24</ele>
        <time>1970-01-01T01:00:00Z</time>
      </trkpt>
      <trkpt lat="60.482033" lon="22.26304">
        <ele>24</ele>
        <time>1970-01-01T01:00:00Z</time>
      </trkpt>
      <trkpt lat="60.482308" lon="22.263328">
        <ele>24</ele>
        <time>1970-01-01T01:00:00Z</time>
      </trkpt>
      <trkpt lat="60.482499" lon="22.263537">
        <ele>24</ele>
        <time>1970-01-01T01:00:00Z</time>
      </trkpt>
      <trkpt lat="60.482679" lon="22.263662">
        <ele>24</ele>
        <time>1970-01-01T01:00:00Z</time>
      </trkpt>
      <trkpt lat="60.482821" lon="22.26366">
        <ele>24.3636</ele>
        <time>1970-01-01T01:00:00Z</time>
      </trkpt>
      <trkpt lat="60.482963" lon="22.263522">
        <ele>24.7273</ele>
        <time>1970-01-01T01:00:00Z</time>
      </trkpt>
      <trkpt lat="60.483073" lon="22.263405">
        <ele>25.0909</ele>
        <time>1970-01-01T01:00:00Z</time>
      </trkpt>
      <trkpt lat="60.483196" lon="22.263284">
        <ele>25.4545</ele>
        <time>1970-01-01T01:00:00Z</time>
      </trkpt>
      <trkpt lat="60.48322" lon="22.263257">
        <ele>25.8182</ele>
        <time>1970-01-01T01:00:00Z</time>
      </trkpt>
      <trkpt lat="60.483363" lon="22.263204">
        <ele>26.1818</ele>
        <time>1970-01-01T01:00:00Z</time>
      </trkpt>
      <trkpt lat="60.483536" lon="22.26311">
        <ele>26.5455</ele>
        <time>1970-01-01T01:00:00Z</time>
      </trkpt>
      <trkpt lat="60.483674" lon="22.263048">
        <ele>26.9091</ele>
        <time>1970-01-01T01:00:00Z</time>
      </trkpt>
      <trkpt lat="60.483787" lon="22.262965">
        <ele>27.2727</ele>
        <time>1970-01-01T01:00:00Z</time>
      </trkpt>
      <trkpt lat="60.4839" lon="22.262934">
        <ele>27.6364</ele>
        <time>1970-01-01T01:00:00Z</time>
      </trkpt>
      <trkpt lat="60.484041" lon="22.262892">
        <ele>28</ele>
        <time>1970-01-01T01:00:00Z</time>
      </trkpt>
      <trkpt lat="60.484134" lon="22.262899">
        <ele>28</ele>
        <time>1970-01-01T01:00:00Z</time>
      </trkpt>
      <trkpt lat="60.484251" lon="22.262882">
        <ele>28</ele>
        <time>1970-01-01T01:00:00Z</time>
      </trkpt>
      <trkpt lat="60.484366" lon="22.262834">
        <ele>28</ele>
        <time>1970-01-01T01:00:00Z</time>
      </trkpt>
      <trkpt lat="60.484446" lon="22.262823">
        <ele>28</ele>
        <time>1970-01-01T01:00:00Z</time>
      </trkpt>
      <trkpt lat="60.484629" lon="22.26282">
        <ele>28</ele>
        <time>1970-01-01T01:00:00Z</time>
      </trkpt>
      <trkpt lat="60.484733" lon="22.262803">
        <ele>28</ele>
        <time>1970-01-01T01:00:00Z</time>
      </trkpt>
      <trkpt lat="60.484761" lon="22.262805">
        <ele>28</ele>
        <time>1970-01-01T01:00:00Z</time>
      </trkpt>
      <trkpt lat="60.484903" lon="22.26276">
        <ele>28</ele>
        <time>1970-01-01T01:00:00Z</time>
      </trkpt>
      <trkpt lat="60.484929" lon="22.262752">
        <ele>28</ele>
        <time>1970-01-01T01:00:00Z</time>
      </trkpt>
      <trkpt lat="60.48505" lon="22.262702">
        <ele>28</ele>
        <time>1970-01-01T01:00:00Z</time>
      </trkpt>
      <trkpt lat="60.485266" lon="22.262439">
        <ele>28</ele>
        <time>1970-01-01T01:00:00Z</time>
      </trkpt>
      <trkpt lat="60.485332" lon="22.262183">
        <ele>28</ele>
        <time>1970-01-01T01:00:00Z</time>
      </trkpt>
      <trkpt lat="60.485369" lon="22.261913">
        <ele>28</ele>
        <time>1970-01-01T01:00:00Z</time>
      </trkpt>
      <trkpt lat="60.485351" lon="22.261651">
        <ele>28</ele>
        <time>1970-01-01T01:00:00Z</time>
      </trkpt>
      <trkpt lat="60.48534" lon="22.261512">
        <ele>28</ele>
        <time>1970-01-01T01:00:00Z</time>
      </trkpt>
      <trkpt lat="60.485311" lon="22.261068">
        <ele>28</ele>
        <time>1970-01-01T01:00:00Z</time>
      </trkpt>
      <trkpt lat="60.485264" lon="22.260717">
        <ele>28</ele>
        <time>1970-01-01T01:00:00Z</time>
      </trkpt>
      <trkpt lat="60.485248" lon="22.260471">
        <ele>28</ele>
        <time>1970-01-01T01:00:00Z</time>
      </trkpt>
      <trkpt lat="60.485223" lon="22.260092">
        <ele>28</ele>
        <time>1970-01-01T01:00:00Z</time>
      </trkpt>
      <trkpt lat="60.485195" lon="22.259788">
        <ele>28</ele>
        <time>1970-01-01T01:00:00Z</time>
      </trkpt>
      <trkpt lat="60.485146" lon="22.259567">
        <ele>28</ele>
        <time>1970-01-01T01:00:00Z</time>
      </trkpt>
      <trkpt lat="60.485114" lon="22.259354">
        <ele>28.4545</ele>
        <time>1970-01-01T01:00:00Z</time>
      </trkpt>
      <trkpt lat="60.485114" lon="22.259183">
        <ele>28.9091</ele>
        <time>1970-01-01T01:00:00Z</time>
      </trkpt>
      <trkpt lat="60.485102" lon="22.259053">
        <ele>29.3636</ele>
        <time>1970-01-01T01:00:00Z</time>
      </trkpt>
      <trkpt lat="60.48514" lon="22.258751">
        <ele>29.8182</ele>
        <time>1970-01-01T01:00:00Z</time>
      </trkpt>
      <trkpt lat="60.485115" lon="22.258532">
        <ele>30.2727</ele>
        <time>1970-01-01T01:00:00Z</time>
      </trkpt>
      <trkpt lat="60.485082" lon="22.258389">
        <ele>30.7273</ele>
        <time>1970-01-01T01:00:00Z</time>
      </trkpt>
      <trkpt lat="60.485044" lon="22.258178">
        <ele>31.1818</ele>
        <time>1970-01-01T01:00:00Z</time>
      </trkpt>
      <trkpt lat="60.485015" lon="22.257918">
        <ele>31.6364</ele>
        <time>1970-01-01T01:00:00Z</time>
      </trkpt>
      <trkpt lat="60.484927" lon="22.257409">
        <ele>32.0909</ele>
        <time>1970-01-01T01:00:00Z</time>
      </trkpt>
      <trkpt lat="60.484808" lon="22.256871">
        <ele>32.5455</ele>
        <time>1970-01-01T01:00:00Z</time>
      </trkpt>
      <trkpt lat="60.484753" lon="22.25652">
        <ele>33</ele>
        <time>1970-01-01T01:00:00Z</time>
      </trkpt>
      <trkpt lat="60.484653" lon="22.256274">
        <ele>33</ele>
        <time>1970-01-01T01:00:00Z</time>
      </trkpt>
      <trkpt lat="60.484449" lon="22.255922">
        <ele>33</ele>
        <time>1970-01-01T01:00:00Z</time>
      </trkpt>
      <trkpt lat="60.484175" lon="22.255517">
        <ele>33</ele>
        <time>1970-01-01T01:00:00Z</time>
      </trkpt>
      <trkpt lat="60.484021" lon="22.255279">
        <ele>33</ele>
        <time>1970-01-01T01:00:00Z</time>
      </trkpt>
      <trkpt lat="60.483899" lon="22.254921">
        <ele>33</ele>
        <time>1970-01-01T01:00:00Z</time>
      </trkpt>
      <trkpt lat="60.483891" lon="22.254838">
        <ele>33</ele>
        <time>1970-01-01T01:00:00Z</time>
      </trkpt>
      <trkpt lat="60.483865" lon="22.254629">
        <ele>33</ele>
        <time>1970-01-01T01:00:00Z</time>
      </trkpt>
      <trkpt lat="60.483791" lon="22.254257">
        <ele>32.2727</ele>
        <time>1970-01-01T01:00:00Z</time>
      </trkpt>
      <trkpt lat="60.483668" lon="22.254122">
        <ele>31.5455</ele>
        <time>1970-01-01T01:00:00Z</time>
      </trkpt>
      <trkpt lat="60.483507" lon="22.254141">
        <ele>30.8182</ele>
        <time>1970-01-01T01:00:00Z</time>
      </trkpt>
      <trkpt lat="60.483393" lon="22.254271">
        <ele>30.0909</ele>
        <time>1970-01-01T01:00:00Z</time>
      </trkpt>
      <trkpt lat="60.483351" lon="22.254347">
        <ele>29.3636</ele>
        <time>1970-01-01T01:00:00Z</time>
      </trkpt>
      <trkpt lat="60.483182" lon="22.254482">
        <ele>28.6364</ele>
        <time>1970-01-01T01:00:00Z</time>
      </trkpt>
      <trkpt lat="60.483052" lon="22.254527">
        <ele>27.9091</ele>
        <time>1970-01-01T01:00:00Z</time>
      </trkpt>
      <trkpt lat="60.482914" lon="22.254564">
        <ele>27.1818</ele>
        <time>1970-01-01T01:00:00Z</time>
      </trkpt>
      <trkpt lat="60.48266" lon="22.254606">
        <ele>26.4545</ele>
        <time>1970-01-01T01:00:00Z</time>
      </trkpt>
      <trkpt lat="60.482516" lon="22.254626">
        <ele>25.7273</ele>
        <time>1970-01-01T01:00:00Z</time>
      </trkpt>
      <trkpt lat="60.48241" lon="22.254636">
        <ele>25</ele>
        <time>1970-01-01T01:00:00Z</time>
      </trkpt>
      <trkpt lat="60.482291" lon="22.254697">
        <ele>25</ele>
        <time>1970-01-01T01:00:00Z</time>
      </trkpt>
      <trkpt lat="60.482157" lon="22.254773">
        <ele>25</ele>
        <time>1970-01-01T01:00:00Z</time>
      </trkpt>
      <trkpt lat="60.48197" lon="22.254748">
        <ele>25</ele>
        <time>1970-01-01T01:00:00Z</time>
      </trkpt>
      <trkpt lat="60.48192" lon="22.254725">
        <ele>25</ele>
        <time>1970-01-01T01:00:00Z</time>
      </trkpt>
      <trkpt lat="60.48181" lon="22.254634">
        <ele>25</ele>
        <time>1970-01-01T01:00:00Z</time>
      </trkpt>
      <trkpt lat="60.481517" lon="22.254122">
        <ele>25</ele>
        <time>1970-01-01T01:00:00Z</time>
      </trkpt>
      <trkpt lat="60.48142" lon="22.253659">
        <ele>25</ele>
        <time>1970-01-01T01:00:00Z</time>
      </trkpt>
      <trkpt lat="60.481457" lon="22.25346">
        <ele>25</ele>
        <time>1970-01-01T01:00:00Z</time>
      </trkpt>
      <trkpt lat="60.481502" lon="22.253306">
        <ele>25</ele>
        <time>1970-01-01T01:00:00Z</time>
      </trkpt>
      <trkpt lat="60.481582" lon="22.253085">
        <ele>25</ele>
        <time>1970-01-01T01:00:00Z</time>
      </trkpt>
      <trkpt lat="60.481678" lon="22.252864">
        <ele>25</ele>
        <time>1970-01-01T01:00:00Z</time>
      </trkpt>
      <trkpt lat="60.481751" lon="22.252719">
        <ele>25</ele>
        <time>1970-01-01T01:00:00Z</time>
      </trkpt>
      <trkpt lat="60.481904" lon="22.252363">
        <ele>25</ele>
        <time>1970-01-01T01:00:00Z</time>
      </trkpt>
      <trkpt lat="60.482071" lon="22.252347">
        <ele>25</ele>
        <time>1970-01-01T01:00:00Z</time>
      </trkpt>
      <trkpt lat="60.482189" lon="22.252335">
        <ele>25</ele>
        <time>1970-01-01T01:00:00Z</time>
      </trkpt>
      <trkpt lat="60.482271" lon="22.252305">
        <ele>25</ele>
        <time>1970-01-01T01:00:00Z</time>
      </trkpt>
      <trkpt lat="60.482441" lon="22.252142">
        <ele>25</ele>
        <time>1970-01-01T01:00:00Z</time>
      </trkpt>
      <trkpt lat="60.482583" lon="22.251982">
        <ele>25</ele>
        <time>1970-01-01T01:00:00Z</time>
      </trkpt>
      <trkpt lat="60.482697" lon="22.252102">
        <ele>25</ele>
        <time>1970-01-01T01:00:00Z</time>
      </trkpt>
      <trkpt lat="60.482764" lon="22.252254">
        <ele>25.7273</ele>
        <time>1970-01-01T01:00:00Z</time>
      </trkpt>
      <trkpt lat="60.482844" lon="22.252459">
        <ele>26.4545</ele>
        <time>1970-01-01T01:00:00Z</time>
      </trkpt>
      <trkpt lat="60.482944" lon="22.252664">
        <ele>27.1818</ele>
        <time>1970-01-01T01:00:00Z</time>
      </trkpt>
      <trkpt lat="60.483089" lon="22.252749">
        <ele>27.9091</ele>
        <time>1970-01-01T01:00:00Z</time>
      </trkpt>
      <trkpt lat="60.483218" lon="22.252682">
        <ele>28.6364</ele>
        <time>1970-01-01T01:00:00Z</time>
      </trkpt>
      <trkpt lat="60.483374" lon="22.252507">
        <ele>29.3636</ele>
        <time>1970-01-01T01:00:00Z</time>
      </trkpt>
      <trkpt lat="60.483494" lon="22.252367">
        <ele>30.0909</ele>
        <time>1970-01-01T01:00:00Z</time>
      </trkpt>
      <trkpt lat="60.483556" lon="22.252298">
        <ele>30.0909</ele>
        <time>1970-01-01T01:00:00Z</time>
      </trkpt>
      <trkpt lat="60.483635" lon="22.25207">
        <ele>30.0909</ele>
        <time>1970-01-01T01:00:00Z</time>
      </trkpt>
      <trkpt lat="60.483663" lon="22.251835">
        <ele>30.0909</ele>
        <time>1970-01-01T01:00:00Z</time>
      </trkpt>
      <trkpt lat="60.483565" lon="22.251504">
        <ele>30.0909</ele>
        <time>1970-01-01T01:00:00Z</time>
      </trkpt>
      <trkpt lat="60.483514" lon="22.25141">
        <ele>29.3636</ele>
        <time>1970-01-01T01:00:00Z</time>
      </trkpt>
      <trkpt lat="60.483301" lon="22.251348">
        <ele>28.6364</ele>
        <time>1970-01-01T01:00:00Z</time>
      </trkpt>
      <trkpt lat="60.483116" lon="22.251443">
        <ele>27.9091</ele>
        <time>1970-01-01T01:00:00Z</time>
      </trkpt>
      <trkpt lat="60.483039" lon="22.251514">
        <ele>27.1818</ele>
        <time>1970-01-01T01:00:00Z</time>
      </trkpt>
      <trkpt lat="60.482927" lon="22.251669">
        <ele>26.4545</ele>
        <time>1970-01-01T01:00:00Z</time>
      </trkpt>
      <trkpt lat="60.482776" lon="22.251901">
        <ele>25.7273</ele>
        <time>1970-01-01T01:00:00Z</time>
      </trkpt>
      <trkpt lat="60.482655" lon="22.252071">
        <ele>25</ele>
        <time>1970-01-01T01:00:00Z</time>
      </trkpt>
      <trkpt lat="60.482496" lon="22.252085">
        <ele>25</ele>
        <time>1970-01-01T01:00:00Z</time>
      </trkpt>
      <trkpt lat="60.482379" lon="22.252221">
        <ele>25</ele>
        <time>1970-01-01T01:00:00Z</time>
      </trkpt>
      <trkpt lat="60.482273" lon="22.25243">
        <ele>25</ele>
        <time>1970-01-01T01:00:00Z</time>
      </trkpt>
      <trkpt lat="60.482162" lon="22.252464">
        <ele>25</ele>
        <time>1970-01-01T01:00:00Z</time>
      </trkpt>
      <trkpt lat="60.482069" lon="22.252261">
        <ele>25</ele>
        <time>1970-01-01T01:00:00Z</time>
      </trkpt>
      <trkpt lat="60.481975" lon="22.251987">
        <ele>25</ele>
        <time>1970-01-01T01:00:00Z</time>
      </trkpt>
      <trkpt lat="60.48193" lon="22.251733">
        <ele>25</ele>
        <time>1970-01-01T01:00:00Z</time>
      </trkpt>
      <trkpt lat="60.481847" lon="22.25151">
        <ele>25</ele>
        <time>1970-01-01T01:00:00Z</time>
      </trkpt>
      <trkpt lat="60.481629" lon="22.251369">
        <ele>25</ele>
        <time>1970-01-01T01:00:00Z</time>
      </trkpt>
      <trkpt lat="60.481425" lon="22.251607">
        <ele>25</ele>
        <time>1970-01-01T01:00:00Z</time>
      </trkpt>
      <trkpt lat="60.481401" lon="22.251647">
        <ele>25</ele>
        <time>1970-01-01T01:00:00Z</time>
      </trkpt>
      <trkpt lat="60.481253" lon="22.251872">
        <ele>25</ele>
        <time>1970-01-01T01:00:00Z</time>
      </trkpt>
      <trkpt lat="60.481017" lon="22.252052">
        <ele>25</ele>
        <time>1970-01-01T01:00:00Z</time>
      </trkpt>
      <trkpt lat="60.480903" lon="22.252117">
        <ele>25</ele>
        <time>1970-01-01T01:00:00Z</time>
      </trkpt>
      <trkpt lat="60.480741" lon="22.252234">
        <ele>25</ele>
        <time>1970-01-01T01:00:00Z</time>
      </trkpt>
      <trkpt lat="60.480589" lon="22.252347">
        <ele>25</ele>
        <time>1970-01-01T01:00:00Z</time>
      </trkpt>
      <trkpt lat="60.480384" lon="22.252567">
        <ele>25</ele>
        <time>1970-01-01T01:00:00Z</time>
      </trkpt>
      <trkpt lat="60.480229" lon="22.252794">
        <ele>25</ele>
        <time>1970-01-01T01:00:00Z</time>
      </trkpt>
      <trkpt lat="60.480055" lon="22.252962">
        <ele>25</ele>
        <time>1970-01-01T01:00:00Z</time>
      </trkpt>
      <trkpt lat="60.479981" lon="22.253235">
        <ele>25</ele>
        <time>1970-01-01T01:00:00Z</time>
      </trkpt>
      <trkpt lat="60.480076" lon="22.253563">
        <ele>25</ele>
        <time>1970-01-01T01:00:00Z</time>
      </trkpt>
      <trkpt lat="60.480227" lon="22.25358">
        <ele>25</ele>
        <time>1970-01-01T01:00:00Z</time>
      </trkpt>
      <trkpt lat="60.480357" lon="22.253472">
        <ele>25</ele>
        <time>1970-01-01T01:00:00Z</time>
      </trkpt>
      <trkpt lat="60.480397" lon="22.253437">
        <ele>25</ele>
        <time>1970-01-01T01:00:00Z</time>
      </trkpt>
      <trkpt lat="60.480582" lon="22.253273">
        <ele>25</ele>
        <time>1970-01-01T01:00:00Z</time>
      </trkpt>
      <trkpt lat="60.480704" lon="22.253248">
        <ele>25</ele>
        <time>1970-01-01T01:00:00Z</time>
      </trkpt>
      <trkpt lat="60.480826" lon="22.253351">
        <ele>25</ele>
        <time>1970-01-01T01:00:00Z</time>
      </trkpt>
      <trkpt lat="60.48092" lon="22.253431">
        <ele>25</ele>
        <time>1970-01-01T01:00:00Z</time>
      </trkpt>
      <trkpt lat="60.48094" lon="22.253452">
        <ele>25</ele>
        <time>1970-01-01T01:00:00Z</time>
      </trkpt>
      <trkpt lat="60.481062" lon="22.253535">
        <ele>25</ele>
        <time>1970-01-01T01:00:00Z</time>
      </trkpt>
      <trkpt lat="60.481176" lon="22.253645">
        <ele>25</ele>
        <time>1970-01-01T01:00:00Z</time>
      </trkpt>
      <trkpt lat="60.48129" lon="22.253815">
        <ele>25</ele>
        <time>1970-01-01T01:00:00Z</time>
      </trkpt>
      <trkpt lat="60.48138" lon="22.253956">
        <ele>25</ele>
        <time>1970-01-01T01:00:00Z</time>
      </trkpt>
      <trkpt lat="60.481445" lon="22.254095">
        <ele>25</ele>
        <time>1970-01-01T01:00:00Z</time>
      </trkpt>
      <trkpt lat="60.481515" lon="22.254199">
        <ele>25</ele>
        <time>1970-01-01T01:00:00Z</time>
      </trkpt>
      <trkpt lat="60.481563" lon="22.25446">
        <ele>25</ele>
        <time>1970-01-01T01:00:00Z</time>
      </trkpt>
      <trkpt lat="60.481531" lon="22.254548">
        <ele>25</ele>
        <time>1970-01-01T01:00:00Z</time>
      </trkpt>
      <trkpt lat="60.48136" lon="22.254736">
        <ele>25</ele>
        <time>1970-01-01T01:00:00Z</time>
      </trkpt>
      <trkpt lat="60.48119" lon="22.254908">
        <ele>25</ele>
        <time>1970-01-01T01:00:00Z</time>
      </trkpt>
      <trkpt lat="60.481094" lon="22.254979">
        <ele>25</ele>
        <time>1970-01-01T01:00:00Z</time>
      </trkpt>
      <trkpt lat="60.480939" lon="22.255119">
        <ele>25</ele>
        <time>1970-01-01T01:00:00Z</time>
      </trkpt>
      <trkpt lat="60.480868" lon="22.255253">
        <ele>25</ele>
        <time>1970-01-01T01:00:00Z</time>
      </trkpt>
      <trkpt lat="60.480808" lon="22.255384">
        <ele>25</ele>
        <time>1970-01-01T01:00:00Z</time>
      </trkpt>
      <trkpt lat="60.480754" lon="22.255631">
        <ele>25</ele>
        <time>1970-01-01T01:00:00Z</time>
      </trkpt>
      <trkpt lat="60.480765" lon="22.255838">
        <ele>25</ele>
        <time>1970-01-01T01:00:00Z</time>
      </trkpt>
      <trkpt lat="60.480768" lon="22.255907">
        <ele>25</ele>
        <time>1970-01-01T01:00:00Z</time>
      </trkpt>
      <trkpt lat="60.480823" lon="22.256031">
        <ele>25</ele>
        <time>1970-01-01T01:00:00Z</time>
      </trkpt>
      <trkpt lat="60.480904" lon="22.256139">
        <ele>25</ele>
        <time>1970-01-01T01:00:00Z</time>
      </trkpt>
      <trkpt lat="60.481005" lon="22.256266">
        <ele>25</ele>
        <time>1970-01-01T01:00:00Z</time>
      </trkpt>
      <trkpt lat="60.481087" lon="22.256401">
        <ele>25</ele>
        <time>1970-01-01T01:00:00Z</time>
      </trkpt>
      <trkpt lat="60.481154" lon="22.25654">
        <ele>25</ele>
        <time>1970-01-01T01:00:00Z</time>
      </trkpt>
      <trkpt lat="60.481216" lon="22.256713">
        <ele>25</ele>
        <time>1970-01-01T01:00:00Z</time>
      </trkpt>
      <trkpt lat="60.481252" lon="22.256972">
        <ele>25</ele>
        <time>1970-01-01T01:00:00Z</time>
      </trkpt>
      <trkpt lat="60.481257" lon="22.257015">
        <ele>25</ele>
        <time>1970-01-01T01:00:00Z</time>
      </trkpt>
      <trkpt lat="60.481276" lon="22.257278">
        <ele>24.9091</ele>
        <time>1970-01-01T01:00:00Z</time>
      </trkpt>
      <trkpt lat="60.481259" lon="22.257464">
        <ele>24.8182</ele>
        <time>1970-01-01T01:00:00Z</time>
      </trkpt>
      <trkpt lat="60.481235" lon="22.257606">
        <ele>24.7273</ele>
        <time>1970-01-01T01:00:00Z</time>
      </trkpt>
      <trkpt lat="60.481193" lon="22.257751">
        <ele>24.6364</ele>
        <time>1970-01-01T01:00:00Z</time>
      </trkpt>
      <trkpt lat="60.481126" lon="22.25805">
        <ele>24.5455</ele>
        <time>1970-01-01T01:00:00Z</time>
      </trkpt>
      <trkpt lat="60.481054" lon="22.258474">
        <ele>24.4545</ele>
        <time>1970-01-01T01:00:00Z</time>
      </trkpt>
      <trkpt lat="60.48112" lon="22.259263">
        <ele>24.3636</ele>
        <time>1970-01-01T01:00:00Z</time>
      </trkpt>
      <trkpt lat="60.481181" lon="22.259826">
        <ele>24.2727</ele>
        <time>1970-01-01T01:00:00Z</time>
      </trkpt>
      <trkpt lat="60.481204" lon="22.260042">
        <ele>24.1818</ele>
        <time>1970-01-01T01:00:00Z</time>
      </trkpt>
      <trkpt lat="60.481275" lon="22.260375">
        <ele>24.0909</ele>
        <time>1970-01-01T01:00:00Z</time>
      </trkpt>
      <trkpt lat="60.481342" lon="22.260622">
        <ele>24</ele>
        <time>1970-01-01T01:00:00Z</time>
      </trkpt>
      <trkpt lat="60.481381" lon="22.260845">
        <ele>24</ele>
        <time>1970-01-01T01:00:00Z</time>
      </trkpt>
      <trkpt lat="60.481448" lon="22.261262">
        <ele>24</ele>
        <time>1970-01-01T01:00:00Z</time>
      </trkpt>
      <trkpt lat="60.481512" lon="22.261525">
        <ele>24</ele>
        <time>1970-01-01T01:00:00Z</time>
      </trkpt>
      <trkpt lat="60.481558" lon="22.261696">
        <ele>24</ele>
        <time>1970-01-01T01:00:00Z</time>
      </trkpt>
      <trkpt lat="60.481708" lon="22.262326">
        <ele>24</ele>
        <time>1970-01-01T01:00:00Z</time>
      </trkpt>
      <trkpt lat="60.481769" lon="22.262502">
        <ele>24</ele>
        <time>1970-01-01T01:00:00Z</time>
      </trkpt>
      <trkpt lat="60.481881" lon="22.262715">
        <ele>24</ele>
        <time>1970-01-01T01:00:00Z</time>
      </trkpt>
      <trkpt lat="60.482051" lon="22.26292">
        <ele>24</ele>
        <time>1970-01-01T01:00:00Z</time>
      </trkpt>
      <trkpt lat="60.482208" lon="22.263124">
        <ele>24</ele>
        <time>1970-01-01T01:00:00Z</time>
      </trkpt>
      <trkpt lat="60.482371" lon="22.263324">
        <ele>24</ele>
        <time>1970-01-01T01:00:00Z</time>
      </trkpt>
      <trkpt lat="60.482481" lon="22.263445">
        <ele>24</ele>
        <time>1970-01-01T01:00:00Z</time>
      </trkpt>
      <trkpt lat="60.482645" lon="22.263565">
        <ele>24</ele>
        <time>1970-01-01T01:00:00Z</time>
      </trkpt>
      <trkpt lat="60.48284" lon="22.263619">
        <ele>24</ele>
        <time>1970-01-01T01:00:00Z</time>
      </trkpt>
      <trkpt lat="60.482879" lon="22.263591">
        <ele>24.3636</ele>
        <time>1970-01-01T01:00:00Z</time>
      </trkpt>
      <trkpt lat="60.482942" lon="22.263535">
        <ele>24.7273</ele>
        <time>1970-01-01T01:00:00Z</time>
      </trkpt>
      <trkpt lat="60.483076" lon="22.263385">
        <ele>25.0909</ele>
        <time>1970-01-01T01:00:00Z</time>
      </trkpt>
      <trkpt lat="60.4831" lon="22.263358">
        <ele>25.4545</ele>
        <time>1970-01-01T01:00:00Z</time>
      </trkpt>
      <trkpt lat="60.483269" lon="22.263194">
        <ele>25.8182</ele>
        <time>1970-01-01T01:00:00Z</time>
      </trkpt>
      <trkpt lat="60.483379" lon="22.263162">
        <ele>26.1818</ele>
        <time>1970-01-01T01:00:00Z</time>
      </trkpt>
      <trkpt lat="60.483507" lon="22.263087">
        <ele>26.5455</ele>
        <time>1970-01-01T01:00:00Z</time>
      </trkpt>
      <trkpt lat="60.483663" lon="22.263018">
        <ele>26.9091</ele>
        <time>1970-01-01T01:00:00Z</time>
      </trkpt>
      <trkpt lat="60.483833" lon="22.262901">
        <ele>27.2727</ele>
        <time>1970-01-01T01:00:00Z</time>
      </trkpt>
      <trkpt lat="60.483936" lon="22.262879">
        <ele>27.6364</ele>
        <time>1970-01-01T01:00:00Z</time>
      </trkpt>
      <trkpt lat="60.484039" lon="22.262852">
        <ele>28</ele>
        <time>1970-01-01T01:00:00Z</time>
      </trkpt>
      <trkpt lat="60.484118" lon="22.262845">
        <ele>28</ele>
        <time>1970-01-01T01:00:00Z</time>
      </trkpt>
      <trkpt lat="60.484246" lon="22.262823">
        <ele>28</ele>
        <time>1970-01-01T01:00:00Z</time>
      </trkpt>
      <trkpt lat="60.484366" lon="22.262789">
        <ele>28</ele>
        <time>1970-01-01T01:00:00Z</time>
      </trkpt>
      <trkpt lat="60.48447" lon="22.262774">
        <ele>28</ele>
        <time>1970-01-01T01:00:00Z</time>
      </trkpt>
      <trkpt lat="60.484596" lon="22.262735">
        <ele>28</ele>
        <time>1970-01-01T01:00:00Z</time>
      </trkpt>
      <trkpt lat="60.484716" lon="22.262703">
        <ele>28</ele>
        <time>1970-01-01T01:00:00Z</time>
      </trkpt>
      <trkpt lat="60.484874" lon="22.262698">
        <ele>28</ele>
        <time>1970-01-01T01:00:00Z</time>
      </trkpt>
      <trkpt lat="60.485005" lon="22.262645">
        <ele>28</ele>
        <time>1970-01-01T01:00:00Z</time>
      </trkpt>
      <trkpt lat="60.485156" lon="22.262524">
        <ele>28</ele>
        <time>1970-01-01T01:00:00Z</time>
      </trkpt>
      <trkpt lat="60.485328" lon="22.262256">
        <ele>28</ele>
        <time>1970-01-01T01:00:00Z</time>
      </trkpt>
      <trkpt lat="60.485359" lon="22.262081">
        <ele>28</ele>
        <time>1970-01-01T01:00:00Z</time>
      </trkpt>
      <trkpt lat="60.485376" lon="22.261864">
        <ele>28</ele>
        <time>1970-01-01T01:00:00Z</time>
      </trkpt>
      <trkpt lat="60.485372" lon="22.261579">
        <ele>28</ele>
        <time>1970-01-01T01:00:00Z</time>
      </trkpt>
      <trkpt lat="60.485349" lon="22.261315">
        <ele>28</ele>
        <time>1970-01-01T01:00:00Z</time>
      </trkpt>
      <trkpt lat="60.485305" lon="22.261117">
        <ele>28</ele>
        <time>1970-01-01T01:00:00Z</time>
      </trkpt>
      <trkpt lat="60.485285" lon="22.260986">
        <ele>28</ele>
        <time>1970-01-01T01:00:00Z</time>
      </trkpt>
      <trkpt lat="60.485255" lon="22.260737">
        <ele>28</ele>
        <time>1970-01-01T01:00:00Z</time>
      </trkpt>
      <trkpt lat="60.485224" lon="22.260447">
        <ele>28</ele>
        <time>1970-01-01T01:00:00Z</time>
      </trkpt>
      <trkpt lat="60.485217" lon="22.260362">
        <ele>28</ele>
        <time>1970-01-01T01:00:00Z</time>
      </trkpt>
      <trkpt lat="60.485163" lon="22.25997">
        <ele>28</ele>
        <time>1970-01-01T01:00:00Z</time>
      </trkpt>
      <trkpt lat="60.48512" lon="22.259667">
        <ele>28</ele>
        <time>1970-01-01T01:00:00Z</time>
      </trkpt>
      <trkpt lat="60.485101" lon="22.259534">
        <ele>28</ele>
        <time>1970-01-01T01:00:00Z</time>
      </trkpt>
      <trkpt lat="60.485101" lon="22.25922">
        <ele>28.4545</ele>
        <time>1970-01-01T01:00:00Z</time>
      </trkpt>
      <trkpt lat="60.485098" lon="22.258958">
        <ele>28.9091</ele>
        <time>1970-01-01T01:00:00Z</time>
      </trkpt>
      <trkpt lat="60.485096" lon="22.258824">
        <ele>29.3636</ele>
        <time>1970-01-01T01:00:00Z</time>
      </trkpt>
      <trkpt lat="60.485073" lon="22.258541">
        <ele>29.8182</ele>
        <time>1970-01-01T01:00:00Z</time>
      </trkpt>
      <trkpt lat="60.485058" lon="22.258446">
        <ele>30.2727</ele>
        <time>1970-01-01T01:00:00Z</time>
      </trkpt>
      <trkpt lat="60.484989" lon="22.258197">
        <ele>30.7273</ele>
        <time>1970-01-01T01:00:00Z</time>
      </trkpt>
      <trkpt lat="60.484962" lon="22.257908">
        <ele>31.1818</ele>
        <time>1970-01-01T01:00:00Z</time>
      </trkpt>
      <trkpt lat="60.484955" lon="22.25761">
        <ele>31.6364</ele>
        <time>1970-01-01T01:00:00Z</time>
      </trkpt>
      <trkpt lat="60.484921" lon="22.257237">
        <ele>32.0909</ele>
        <time>1970-01-01T01:00:00Z</time>
      </trkpt>
      <trkpt lat="60.484844" lon="22.256882">
        <ele>32.5455</ele>
        <time>1970-01-01T01:00:00Z</time>
      </trkpt>
      <trkpt lat="60.484742" lon="22.25652">
        <ele>33</ele>
        <time>1970-01-01T01:00:00Z</time>
      </trkpt>
      <trkpt lat="60.484672" lon="22.256276">
        <ele>33</ele>
        <time>1970-01-01T01:00:00Z</time>
      </trkpt>
      <trkpt lat="60.484554" lon="22.256006">
        <ele>33</ele>
        <time>1970-01-01T01:00:00Z</time>
      </trkpt>
      <trkpt lat="60.484155" lon="22.255506">
        <ele>33</ele>
        <time>1970-01-01T01:00:00Z</time>
      </trkpt>
      <trkpt lat="60.483953" lon="22.255194">
        <ele>33</ele>
        <time>1970-01-01T01:00:00Z</time>
      </trkpt>
      <trkpt lat="60.483847" lon="22.254953">
        <ele>33</ele>
        <time>1970-01-01T01:00:00Z</time>
      </trkpt>
      <trkpt lat="60.483803" lon="22.254688">
        <ele>32.2727</ele>
        <time>1970-01-01T01:00:00Z</time>
      </trkpt>
      <trkpt lat="60.483736" lon="22.254259">
        <ele>31.5455</ele>
        <time>1970-01-01T01:00:00Z</time>
      </trkpt>
      <trkpt lat="60.483577" lon="22.254094">
        <ele>30.8182</ele>
        <time>1970-01-01T01:00:00Z</time>
      </trkpt>
      <trkpt lat="60.483438" lon="22.25419">
        <ele>30.0909</ele>
        <time>1970-01-01T01:00:00Z</time>
      </trkpt>
      <trkpt lat="60.483361" lon="22.254255">
        <ele>29.3636</ele>
        <time>1970-01-01T01:00:00Z</time>
      </trkpt>
      <trkpt lat="60.483236" lon="22.254394">
        <ele>28.6364</ele>
        <time>1970-01-01T01:00:00Z</time>
      </trkpt>
      <trkpt lat="60.483121" lon="22.254458">
        <ele>27.9091</ele>
        <time>1970-01-01T01:00:00Z</time>
      </trkpt>
      <trkpt lat="60.48297" lon="22.254506">
        <ele>27.1818</ele>
        <time>1970-01-01T01:00:00Z</time>
      </trkpt>
      <trkpt lat="60.482792" lon="22.254601">
        <ele>26.4545</ele>
        <time>1970-01-01T01:00:00Z</time>
      </trkpt>
      <trkpt lat="60.4826" lon="22.254619">
        <ele>25.7273</ele>
        <time>1970-01-01T01:00:00Z</time>
      </trkpt>
      <trkpt lat="60.482465" lon="22.254669">
        <ele>25</ele>
        <time>1970-01-01T01:00:00Z</time>
      </trkpt>
      <trkpt lat="60.482362" lon="22.25473">
        <ele>25</ele>
        <time>1970-01-01T01:00:00Z</time>
      </trkpt>
      <trkpt lat="60.482302" lon="22.254762">
        <ele>25</ele>
        <time>1970-01-01T01:00:00Z</time>
      </trkpt>
      <trkpt lat="60.482223" lon="22.254748">
        <ele>25</ele>
        <time>1970-01-01T01:00:00Z</time>
      </trkpt>
      <trkpt lat="60.482207" lon="22.254759">
        <ele>25</ele>
        <time>1970-01-01T01:00:00Z</time>
      </trkpt>
      <trkpt lat="60.482121" lon="22.25477">
        <ele>25</ele>
        <time>1970-01-01T01:00:00Z</time>
      </trkpt>
      <trkpt lat="60.482068" lon="22.254767">
        <ele>25</ele>
        <time>1970-01-01T01:00:00Z</time>
      </trkpt>
      <trkpt lat="60.481835" lon="22.254638">
        <ele>25</ele>
        <time>1970-01-01T01:00:00Z</time>
      </trkpt>
      <trkpt lat="60.481724" lon="22.254525">
        <ele>25</ele>
        <time>1970-01-01T01:00:00Z</time>
      </trkpt>
      <trkpt lat="60.48152" lon="22.254169">
        <ele>25</ele>
        <time>1970-01-01T01:00:00Z</time>
      </trkpt>
      <trkpt lat="60.481411" lon="22.253736">
        <ele>25</ele>
        <time>1970-01-01T01:00:00Z</time>
      </trkpt>
      <trkpt lat="60.481463" lon="22.253451">
        <ele>25</ele>
        <time>1970-01-01T01:00:00Z</time>
      </trkpt>
      <trkpt lat="60.481485" lon="22.253378">
        <ele>25</ele>
        <time>1970-01-01T01:00:00Z</time>
      </trkpt>
      <trkpt lat="60.481681" lon="22.252914">
        <ele>25</ele>
        <time>1970-01-01T01:00:00Z</time>
      </trkpt>
      <trkpt lat="60.481709" lon="22.252854">
        <ele>25</ele>
        <time>1970-01-01T01:00:00Z</time>
      </trkpt>
      <trkpt lat="60.481825" lon="22.252485">
        <ele>25</ele>
        <time>1970-01-01T01:00:00Z</time>
      </trkpt>
      <trkpt lat="60.481983" lon="22.252341">
        <ele>25</ele>
        <time>1970-01-01T01:00:00Z</time>
      </trkpt>
      <trkpt lat="60.482073" lon="22.252324">
        <ele>25</ele>
        <time>1970-01-01T01:00:00Z</time>
      </trkpt>
      <trkpt lat="60.482257" lon="22.252256">
        <ele>25</ele>
        <time>1970-01-01T01:00:00Z</time>
      </trkpt>
      <trkpt lat="60.482432" lon="22.252104">
        <ele>25</ele>
        <time>1970-01-01T01:00:00Z</time>
      </trkpt>
      <trkpt lat="60.482509" lon="22.252027">
        <ele>25</ele>
        <time>1970-01-01T01:00:00Z</time>
      </trkpt>
      <trkpt lat="60.482649" lon="22.252063">
        <ele>25</ele>
        <time>1970-01-01T01:00:00Z</time>
      </trkpt>
      <trkpt lat="60.482732" lon="22.252215">
        <ele>25</ele>
        <time>1970-01-01T01:00:00Z</time>
      </trkpt>
      <trkpt lat="60.48285" lon="22.252467">
        <ele>25.7273</ele>
        <time>1970-01-01T01:00:00Z</time>
      </trkpt>
      <trkpt lat="60.482966" lon="22.252676">
        <ele>26.4545</ele>
        <time>1970-01-01T01:00:00Z</time>
      </trkpt>
      <trkpt lat="60.483081" lon="22.25275">
        <ele>27.1818</ele>
        <time>1970-01-01T01:00:00Z</time>
      </trkpt>
      <trkpt lat="60.48319" lon="22.252667">
        <ele>27.9091</ele>
        <time>1970-01-01T01:00:00Z</time>
      </trkpt>
      <trkpt lat="60.483307" lon="22.252541">
        <ele>28.6364</ele>
        <time>1970-01-01T01:00:00Z</time>
      </trkpt>
      <trkpt lat="60.483427" lon="22.252412">
        <ele>29.3636</ele>
        <time>1970-01-01T01:00:00Z</time>
      </trkpt>
      <trkpt lat="60.48355" lon="22.252254">
        <ele>30.0909</ele>
        <time>1970-01-01T01:00:00Z</time>
      </trkpt>
      <trkpt lat="60.483641" lon="22.252058">
        <ele>30.8182</ele>
        <time>1970-01-01T01:00:00Z</time>
      </trkpt>
      <trkpt lat="60.483673" lon="22.25186">
        <ele>30.8182</ele>
        <time>1970-01-01T01:00:00Z</time>
      </trkpt>
      <trkpt lat="60.483667" lon="22.251785">
        <ele>30.8182</ele>
        <time>1970-01-01T01:00:00Z</time>
      </trkpt>
      <trkpt lat="60.483632" lon="22.251577">
        <ele>30.8182</ele>
        <time>1970-01-01T01:00:00Z</time>
      </trkpt>
      <trkpt lat="60.483495" lon="22.251345">
        <ele>30.0909</ele>
        <time>1970-01-01T01:00:00Z</time>
      </trkpt>
      <trkpt lat="60.48337" lon="22.251234">
        <ele>29.3636</ele>
        <time>1970-01-01T01:00:00Z</time>
      </trkpt>
      <trkpt lat="60.483274" lon="22.251263">
        <ele>28.6364</ele>
        <time>1970-01-01T01:00:00Z</time>
      </trkpt>
      <trkpt lat="60.483236" lon="22.251299">
        <ele>27.9091</ele>
        <time>1970-01-01T01:00:00Z</time>
      </trkpt>
      <trkpt lat="60.483129" lon="22.25142">
        <ele>27.1818</ele>
        <time>1970-01-01T01:00:00Z</time>
      </trkpt>
      <trkpt lat="60.483062" lon="22.251523">
        <ele>26.4545</ele>
        <time>1970-01-01T01:00:00Z</time>
      </trkpt>
      <trkpt lat="60.482957" lon="22.251662">
        <ele>25.7273</ele>
        <time>1970-01-01T01:00:00Z</time>
      </trkpt>
      <trkpt lat="60.482859" lon="22.251791">
        <ele>25</ele>
        <time>1970-01-01T01:00:00Z</time>
      </trkpt>
      <trkpt lat="60.482687" lon="22.252018">
        <ele>25</ele>
        <time>1970-01-01T01:00:00Z</time>
      </trkpt>
      <trkpt lat="60.482523" lon="22.252026">
        <ele>25</ele>
        <time>1970-01-01T01:00:00Z</time>
      </trkpt>
      <trkpt lat="60.48244" lon="22.252041">
        <ele>25</ele>
        <time>1970-01-01T01:00:00Z</time>
      </trkpt>
      <trkpt lat="60.48228" lon="22.252219">
        <ele>25</ele>
        <time>1970-01-01T01:00:00Z</time>
      </trkpt>
      <trkpt lat="60.482133" lon="22.252314">
        <ele>25</ele>
        <time>1970-01-01T01:00:00Z</time>
      </trkpt>
      <trkpt lat="60.482096" lon="22.252312">
        <ele>25</ele>
        <time>1970-01-01T01:00:00Z</time>
      </trkpt>
      <trkpt lat="60.481976" lon="22.251979">
        <ele>25</ele>
        <time>1970-01-01T01:00:00Z</time>
      </trkpt>
      <trkpt lat="60.481919" lon="22.251821">
        <ele>25</ele>
        <time>1970-01-01T01:00:00Z</time>
      </trkpt>
      <trkpt lat="60.48182" lon="22.251504">
        <ele>25</ele>
        <time>1970-01-01T01:00:00Z</time>
      </trkpt>
      <trkpt lat="60.481653" lon="22.251352">
        <ele>25</ele>
        <time>1970-01-01T01:00:00Z</time>
      </trkpt>
      <trkpt lat="60.481567" lon="22.251459">
        <ele>25</ele>
        <time>1970-01-01T01:00:00Z</time>
      </trkpt>
      <trkpt lat="60.481386" lon="22.251701">
        <ele>25</ele>
        <time>1970-01-01T01:00:00Z</time>
      </trkpt>
      <trkpt lat="60.481339" lon="22.251747">
        <ele>25</ele>
        <time>1970-01-01T01:00:00Z</time>
      </trkpt>
      <trkpt lat="60.481078" lon="22.251992">
        <ele>25</ele>
        <time>1970-01-01T01:00:00Z</time>
      </trkpt>
      <trkpt lat="60.480857" lon="22.252128">
        <ele>25</ele>
        <time>1970-01-01T01:00:00Z</time>
      </trkpt>
      <trkpt lat="60.480645" lon="22.252341">
        <ele>25</ele>
        <time>1970-01-01T01:00:00Z</time>
      </trkpt>
      <trkpt lat="60.480601" lon="22.252382">
        <ele>25</ele>
        <time>1970-01-01T01:00:00Z</time>
      </trkpt>
      <trkpt lat="60.480427" lon="22.252553">
        <ele>25</ele>
        <time>1970-01-01T01:00:00Z</time>
      </trkpt>
      <trkpt lat="60.480361" lon="22.252631">
        <ele>25</ele>
        <time>1970-01-01T01:00:00Z</time>
      </trkpt>
      <trkpt lat="60.480195" lon="22.25284">
        <ele>25</ele>
        <time>1970-01-01T01:00:00Z</time>
      </trkpt>
      <trkpt lat="60.480022" lon="22.253092">
        <ele>25</ele>
        <time>1970-01-01T01:00:00Z</time>
      </trkpt>
      <trkpt lat="60.480018" lon="22.253302">
        <ele>25</ele>
        <time>1970-01-01T01:00:00Z</time>
      </trkpt>
      <trkpt lat="60.480028" lon="22.253362">
        <ele>25</ele>
        <time>1970-01-01T01:00:00Z</time>
      </trkpt>
      <trkpt lat="60.480206" lon="22.25357">
        <ele>25</ele>
        <time>1970-01-01T01:00:00Z</time>
      </trkpt>
      <trkpt lat="60.480323" lon="22.253527">
        <ele>25</ele>
        <time>1970-01-01T01:00:00Z</time>
      </trkpt>
      <trkpt lat="60.480436" lon="22.253447">
        <ele>25</ele>
        <time>1970-01-01T01:00:00Z</time>
      </trkpt>
      <trkpt lat="60.480543" lon="22.253351">
        <ele>25</ele>
        <time>1970-01-01T01:00:00Z</time>
      </trkpt>
      <trkpt lat="60.480657" lon="22.253279">
        <ele>25</ele>
        <time>1970-01-01T01:00:00Z</time>
      </trkpt>
      <trkpt lat="60.480771" lon="22.253287">
        <ele>25</ele>
        <time>1970-01-01T01:00:00Z</time>
      </trkpt>
      <trkpt lat="60.480893" lon="22.253421">
        <ele>25</ele>
        <time>1970-01-01T01:00:00Z</time>
      </trkpt>
      <trkpt lat="60.480969" lon="22.253494">
        <ele>25</ele>
        <time>1970-01-01T01:00:00Z</time>
      </trkpt>
      <trkpt lat="60.481041" lon="22.253553">
        <ele>25</ele>
        <time>1970-01-01T01:00:00Z</time>
      </trkpt>
      <trkpt lat="60.481152" lon="22.253674">
        <ele>25</ele>
        <time>1970-01-01T01:00:00Z</time>
      </trkpt>
      <trkpt lat="60.481254" lon="22.253805">
        <ele>25</ele>
        <time>1970-01-01T01:00:00Z</time>
      </trkpt>
      <trkpt lat="60.481339" lon="22.253963">
        <ele>25</ele>
        <time>1970-01-01T01:00:00Z</time>
      </trkpt>
      <trkpt lat="60.481462" lon="22.254084">
        <ele>25</ele>
        <time>1970-01-01T01:00:00Z</time>
      </trkpt>
      <trkpt lat="60.481512" lon="22.254171">
        <ele>25</ele>
        <time>1970-01-01T01:00:00Z</time>
      </trkpt>
      <trkpt lat="60.481516" lon="22.254421">
        <ele>25</ele>
        <time>1970-01-01T01:00:00Z</time>
      </trkpt>
      <trkpt lat="60.481447" lon="22.254622">
        <ele>25</ele>
        <time>1970-01-01T01:00:00Z</time>
      </trkpt>
      <trkpt lat="60.481371" lon="22.254728">
        <ele>25</ele>
        <time>1970-01-01T01:00:00Z</time>
      </trkpt>
      <trkpt lat="60.481225" lon="22.254967">
        <ele>25</ele>
        <time>1970-01-01T01:00:00Z</time>
      </trkpt>
      <trkpt lat="60.481054" lon="22.2552">
        <ele>25</ele>
        <time>1970-01-01T01:00:00Z</time>
      </trkpt>
      <trkpt lat="60.480924" lon="22.255369">
        <ele>25</ele>
        <time>1970-01-01T01:00:00Z</time>
      </trkpt>
      <trkpt lat="60.480894" lon="22.25541">
        <ele>25</ele>
        <time>1970-01-01T01:00:00Z</time>
      </trkpt>
      <trkpt lat="60.480842" lon="22.25554">
        <ele>25</ele>
        <time>1970-01-01T01:00:00Z</time>
      </trkpt>
      <trkpt lat="60.480785" lon="22.255711">
        <ele>25</ele>
        <time>1970-01-01T01:00:00Z</time>
      </trkpt>
      <trkpt lat="60.480794" lon="22.255891">
        <ele>25</ele>
        <time>1970-01-01T01:00:00Z</time>
      </trkpt>
      <trkpt lat="60.480809" lon="22.256014">
        <ele>25</ele>
        <time>1970-01-01T01:00:00Z</time>
      </trkpt>
      <trkpt lat="60.480931" lon="22.256208">
        <ele>25</ele>
        <time>1970-01-01T01:00:00Z</time>
      </trkpt>
      <trkpt lat="60.480993" lon="22.25629">
        <ele>25</ele>
        <time>1970-01-01T01:00:00Z</time>
      </trkpt>
      <trkpt lat="60.481074" lon="22.256415">
        <ele>25</ele>
        <time>1970-01-01T01:00:00Z</time>
      </trkpt>
      <trkpt lat="60.48113" lon="22.256536">
        <ele>25</ele>
        <time>1970-01-01T01:00:00Z</time>
      </trkpt>
      <trkpt lat="60.481184" lon="22.256644">
        <ele>25</ele>
        <time>1970-01-01T01:00:00Z</time>
      </trkpt>
      <trkpt lat="60.481202" lon="22.256676">
        <ele>25</ele>
        <time>1970-01-01T01:00:00Z</time>
      </trkpt>
      <trkpt lat="60.481216" lon="22.256703">
        <ele>25</ele>
        <time>1970-01-01T01:00:00Z</time>
      </trkpt>
      <trkpt lat="60.481233" lon="22.256728">
        <ele>25</ele>
        <time>1970-01-01T01:00:00Z</time>
      </trkpt>
      <trkpt lat="60.481267" lon="22.256798">
        <ele>25</ele>
        <time>1970-01-01T01:00:00Z</time>
      </trkpt>
      <trkpt lat="60.481318" lon="22.256916">
        <ele>25</ele>
        <time>1970-01-01T01:00:00Z</time>
      </trkpt>
      <trkpt lat="60.481328" lon="22.256937">
        <ele>25</ele>
        <time>1970-01-01T01:00:00Z</time>
      </trkpt>
      <trkpt lat="60.481355" lon="22.257107">
        <ele>25</ele>
        <time>1970-01-01T01:00:00Z</time>
      </trkpt>
      <trkpt lat="60.481355" lon="22.257151">
        <ele>24.9091</ele>
        <time>1970-01-01T01:00:00Z</time>
      </trkpt>
      <trkpt lat="60.481274" lon="22.257513">
        <ele>24.8182</ele>
        <time>1970-01-01T01:00:00Z</time>
      </trkpt>
      <trkpt lat="60.481263" lon="22.25761">
        <ele>24.7273</ele>
        <time>1970-01-01T01:00:00Z</time>
      </trkpt>
      <trkpt lat="60.481204" lon="22.257799">
        <ele>24.6364</ele>
        <time>1970-01-01T01:00:00Z</time>
      </trkpt>
      <trkpt lat="60.481127" lon="22.258105">
        <ele>24.5455</ele>
        <time>1970-01-01T01:00:00Z</time>
      </trkpt>
      <trkpt lat="60.481026" lon="22.258701">
        <ele>24.4545</ele>
        <time>1970-01-01T01:00:00Z</time>
      </trkpt>
      <trkpt lat="60.481083" lon="22.259366">
        <ele>24.3636</ele>
        <time>1970-01-01T01:00:00Z</time>
      </trkpt>
      <trkpt lat="60.481132" lon="22.259571">
        <ele>24.2727</ele>
        <time>1970-01-01T01:00:00Z</time>
      </trkpt>
      <trkpt lat="60.481177" lon="22.259884">
        <ele>24.1818</ele>
        <time>1970-01-01T01:00:00Z</time>
      </trkpt>
      <trkpt lat="60.481212" lon="22.260174">
        <ele>24.0909</ele>
        <time>1970-01-01T01:00:00Z</time>
      </trkpt>
      <trkpt lat="60.481224" lon="22.260361">
        <ele>24</ele>
        <time>1970-01-01T01:00:00Z</time>
      </trkpt>
      <trkpt lat="60.481268" lon="22.260729">
        <ele>24</ele>
        <time>1970-01-01T01:00:00Z</time>
      </trkpt>
      <trkpt lat="60.48128" lon="22.260807">
        <ele>24</ele>
        <time>1970-01-01T01:00:00Z</time>
      </trkpt>
      <trkpt lat="60.481336" lon="22.261162">
        <ele>24</ele>
        <time>1970-01-01T01:00:00Z</time>
      </trkpt>
      <trkpt lat="60.481449" lon="22.261632">
        <ele>24</ele>
        <time>1970-01-01T01:00:00Z</time>
      </trkpt>
      <trkpt lat="60.481508" lon="22.26193">
        <ele>24</ele>
        <time>1970-01-01T01:00:00Z</time>
      </trkpt>
      <trkpt lat="60.481642" lon="22.262447">
        <ele>24</ele>
        <time>1970-01-01T01:00:00Z</time>
      </trkpt>
      <trkpt lat="60.481763" lon="22.262742">
        <ele>24</ele>
        <time>1970-01-01T01:00:00Z</time>
      </trkpt>
      <trkpt lat="60.481924" lon="22.263009">
        <ele>24</ele>
        <time>1970-01-01T01:00:00Z</time>
      </trkpt>
      <trkpt lat="60.481959" lon="22.263049">
        <ele>24</ele>
        <time>1970-01-01T01:00:00Z</time>
      </trkpt>
      <trkpt lat="60.482061" lon="22.263162">
        <ele>24</ele>
        <time>1970-01-01T01:00:00Z</time>
      </trkpt>
      <trkpt lat="60.482279" lon="22.263458">
        <ele>24</ele>
        <time>1970-01-01T01:00:00Z</time>
      </trkpt>
      <trkpt lat="60.482477" lon="22.263629">
        <ele>24</ele>
        <time>1970-01-01T01:00:00Z</time>
      </trkpt>
      <trkpt lat="60.482658" lon="22.263702">
        <ele>24.3636</ele>
        <time>1970-01-01T01:00:00Z</time>
      </trkpt>
      <trkpt lat="60.482847" lon="22.263647">
        <ele>24.7273</ele>
        <time>1970-01-01T01:00:00Z</time>
      </trkpt>
      <trkpt lat="60.482991" lon="22.263537">
        <ele>25.0909</ele>
        <time>1970-01-01T01:00:00Z</time>
      </trkpt>
      <trkpt lat="60.483099" lon="22.263385">
        <ele>25.4545</ele>
        <time>1970-01-01T01:00:00Z</time>
      </trkpt>
      <trkpt lat="60.483205" lon="22.263276">
        <ele>25.8182</ele>
        <time>1970-01-01T01:00:00Z</time>
      </trkpt>
      <trkpt lat="60.483372" lon="22.263243">
        <ele>26.1818</ele>
        <time>1970-01-01T01:00:00Z</time>
      </trkpt>
      <trkpt lat="60.483546" lon="22.263169">
        <ele>26.5455</ele>
        <time>1970-01-01T01:00:00Z</time>
      </trkpt>
      <trkpt lat="60.483721" lon="22.263081">
        <ele>26.9091</ele>
        <time>1970-01-01T01:00:00Z</time>
      </trkpt>
      <trkpt lat="60.483828" lon="22.263055">
        <ele>27.2727</ele>
        <time>1970-01-01T01:00:00Z</time>
      </trkpt>
      <trkpt lat="60.483892" lon="22.262999">
        <ele>27.6364</ele>
        <time>1970-01-01T01:00:00Z</time>
      </trkpt>
      <trkpt lat="60.483993" lon="22.262955">
        <ele>28</ele>
        <time>1970-01-01T01:00:00Z</time>
      </trkpt>
      <trkpt lat="60.484013" lon="22.262938">
        <ele>28</ele>
        <time>1970-01-01T01:00:00Z</time>
      </trkpt>
      <trkpt lat="60.484127" lon="22.262922">
        <ele>28</ele>
        <time>1970-01-01T01:00:00Z</time>
      </trkpt>
      <trkpt lat="60.484182" lon="22.262905">
        <ele>28</ele>
        <time>1970-01-01T01:00:00Z</time>
      </trkpt>
      <trkpt lat="60.484365" lon="22.262863">
        <ele>28</ele>
        <time>1970-01-01T01:00:00Z</time>
      </trkpt>
      <trkpt lat="60.484536" lon="22.262835">
        <ele>28</ele>
        <time>1970-01-01T01:00:00Z</time>
      </trkpt>
      <trkpt lat="60.484687" lon="22.262825">
        <ele>28</ele>
        <time>1970-01-01T01:00:00Z</time>
      </trkpt>
      <trkpt lat="60.484823" lon="22.26282">
        <ele>28</ele>
        <time>1970-01-01T01:00:00Z</time>
      </trkpt>
      <trkpt lat="60.484927" lon="22.262798">
        <ele>28</ele>
        <time>1970-01-01T01:00:00Z</time>
      </trkpt>
      <trkpt lat="60.48504" lon="22.262729">
        <ele>28</ele>
        <time>1970-01-01T01:00:00Z</time>
      </trkpt>
      <trkpt lat="60.485194" lon="22.2626">
        <ele>28</ele>
        <time>1970-01-01T01:00:00Z</time>
      </trkpt>
      <trkpt lat="60.485303" lon="22.262422">
        <ele>28</ele>
        <time>1970-01-01T01:00:00Z</time>
      </trkpt>
      <trkpt lat="60.485413" lon="22.262158">
        <ele>28</ele>
        <time>1970-01-01T01:00:00Z</time>
      </trkpt>
      <trkpt lat="60.485433" lon="22.261942">
        <ele>28</ele>
        <time>1970-01-01T01:00:00Z</time>
      </trkpt>
      <trkpt lat="60.485419" lon="22.261676">
        <ele>28</ele>
        <time>1970-01-01T01:00:00Z</time>
      </trkpt>
      <trkpt lat="60.485386" lon="22.261384">
        <ele>28</ele>
        <time>1970-01-01T01:00:00Z</time>
      </trkpt>
      <trkpt lat="60.48536" lon="22.261077">
        <ele>28</ele>
        <time>1970-01-01T01:00:00Z</time>
      </trkpt>
      <trkpt lat="60.485333" lon="22.260831">
        <ele>28</ele>
        <time>1970-01-01T01:00:00Z</time>
      </trkpt>
      <trkpt lat="60.485321" lon="22.260683">
        <ele>28</ele>
        <time>1970-01-01T01:00:00Z</time>
      </trkpt>
      <trkpt lat="60.485317" lon="22.260375">
        <ele>28</ele>
        <time>1970-01-01T01:00:00Z</time>
      </trkpt>
      <trkpt lat="60.485302" lon="22.260034">
        <ele>28</ele>
        <time>1970-01-01T01:00:00Z</time>
      </trkpt>
      <trkpt lat="60.485255" lon="22.259711">
        <ele>28</ele>
        <time>1970-01-01T01:00:00Z</time>
      </trkpt>
      <trkpt lat="60.485212" lon="22.25952">
        <ele>28</ele>
        <time>1970-01-01T01:00:00Z</time>
      </trkpt>
      <trkpt lat="60.485198" lon="22.259287">
        <ele>28.4545</ele>
        <time>1970-01-01T01:00:00Z</time>
      </trkpt>
      <trkpt lat="60.485172" lon="22.25905">
        <ele>28.9091</ele>
        <time>1970-01-01T01:00:00Z</time>
      </trkpt>
      <trkpt lat="60.485154" lon="22.258776">
        <ele>29.3636</ele>
        <time>1970-01-01T01:00:00Z</time>
      </trkpt>
      <trkpt lat="60.485155" lon="22.258591">
        <ele>29.8182</ele>
        <time>1970-01-01T01:00:00Z</time>
      </trkpt>
      <trkpt lat="60.485137" lon="22.258464">
        <ele>30.2727</ele>
        <time>1970-01-01T01:00:00Z</time>
      </trkpt>
      <trkpt lat="60.485131" lon="22.258412">
        <ele>30.7273</ele>
        <time>1970-01-01T01:00:00Z</time>
      </trkpt>
      <trkpt lat="60.485088" lon="22.258143">
        <ele>31.1818</ele>
        <time>1970-01-01T01:00:00Z</time>
      </trkpt>
      <trkpt lat="60.485074" lon="22.258084">
        <ele>31.6364</ele>
        <time>1970-01-01T01:00:00Z</time>
      </trkpt>
      <trkpt lat="60.484989" lon="22.257771">
        <ele>32.0909</ele>
        <time>1970-01-01T01:00:00Z</time>
      </trkpt>
      <trkpt lat="60.484904" lon="22.257432">
        <ele>32.5455</ele>
        <time>1970-01-01T01:00:00Z</time>
      </trkpt>
      <trkpt lat="60.484881" lon="22.257315">
        <ele>33</ele>
        <time>1970-01-01T01:00:00Z</time>
      </trkpt>
      <trkpt lat="60.484809" lon="22.256988">
        <ele>33</ele>
        <time>1970-01-01T01:00:00Z</time>
      </trkpt>
      <trkpt lat="60.484735" lon="22.256621">
        <ele>33</ele>
        <time>1970-01-01T01:00:00Z</time>
      </trkpt>
      <trkpt lat="60.484703" lon="22.256537">
        <ele>33</ele>
        <time>1970-01-01T01:00:00Z</time>
      </trkpt>
      <trkpt lat="60.484572" lon="22.256199">
        <ele>33</ele>
        <time>1970-01-01T01:00:00Z</time>
      </trkpt>
      <trkpt lat="60.484336" lon="22.255779">
        <ele>33</ele>
        <time>1970-01-01T01:00:00Z</time>
      </trkpt>
      <trkpt lat="60.483959" lon="22.255196">
        <ele>33</ele>
        <time>1970-01-01T01:00:00Z</time>
      </trkpt>
      <trkpt lat="60.483808" lon="22.254743">
        <ele>32.2727</ele>
        <time>1970-01-01T01:00:00Z</time>
      </trkpt>
      <trkpt lat="60.483761" lon="22.254428">
        <ele>31.5455</ele>
        <time>1970-01-01T01:00:00Z</time>
      </trkpt>
      <trkpt lat="60.483705" lon="22.254218">
        <ele>30.8182</ele>
        <time>1970-01-01T01:00:00Z</time>
      </trkpt>
      <trkpt lat="60.483565" lon="22.254163">
        <ele>30.0909</ele>
        <time>1970-01-01T01:00:00Z</time>
      </trkpt>
      <trkpt lat="60.48348" lon="22.254238">
        <ele>29.3636</ele>
        <time>1970-01-01T01:00:00Z</time>
      </trkpt>
      <trkpt lat="60.483324" lon="22.254461">
        <ele>28.6364</ele>
        <time>1970-01-01T01:00:00Z</time>
      </trkpt>
      <trkpt lat="60.483221" lon="22.254538">
        <ele>27.9091</ele>
        <time>1970-01-01T01:00:00Z</time>
      </trkpt>
      <trkpt lat="60.483186" lon="22.25457">
        <ele>27.1818</ele>
        <time>1970-01-01T01:00:00Z</time>
      </trkpt>
      <trkpt lat="60.483044" lon="22.254588">
        <ele>26.4545</ele>
        <time>1970-01-01T01:00:00Z</time>
      </trkpt>
      <trkpt lat="60.482813" lon="22.254613">
        <ele>25.7273</ele>
        <time>1970-01-01T01:00:00Z</time>
      </trkpt>
      <trkpt lat="60.482651" lon="22.25463">
        <ele>25</ele>
        <time>1970-01-01T01:00:00Z</time>
      </trkpt>
      <trkpt lat="60.482566" lon="22.254634">
        <ele>25</ele>
        <time>1970-01-01T01:00:00Z</time>
      </trkpt>
      <trkpt lat="60.482424" lon="22.254644">
        <ele>25</ele>
        <time>1970-01-01T01:00:00Z</time>
      </trkpt>
      <trkpt lat="60.482309" lon="22.254687">
        <ele>25</ele>
        <time>1970-01-01T01:00:00Z</time>
      </trkpt>
      <trkpt lat="60.482233" lon="22.254752">
        <ele>25</ele>
        <time>1970-01-01T01:00:00Z</time>
      </trkpt>
      <trkpt lat="60.482173" lon="22.254756">
        <ele>25</ele>
        <time>1970-01-01T01:00:00Z</time>
      </trkpt>
      <trkpt lat="60.481907" lon="22.254666">
        <ele>25</ele>
        <time>1970-01-01T01:00:00Z</time>
      </trkpt>
      <trkpt lat="60.481733" lon="22.254499">
        <ele>25</ele>
        <time>1970-01-01T01:00:00Z</time>
      </trkpt>
      <trkpt lat="60.481513" lon="22.2541">
        <ele>25</ele>
        <time>1970-01-01T01:00:00Z</time>
      </trkpt>
      <trkpt lat="60.481428" lon="22.253647">
        <ele>25</ele>
        <time>1970-01-01T01:00:00Z</time>
      </trkpt>
      <trkpt lat="60.4815" lon="22.253351">
        <ele>25</ele>
        <time>1970-01-01T01:00:00Z</time>
      </trkpt>
      <trkpt lat="60.481567" lon="22.253158">
        <ele>25</ele>
        <time>1970-01-01T01:00:00Z</time>
      </trkpt>
      <trkpt lat="60.481687" lon="22.252813">
        <ele>25</ele>
        <time>1970-01-01T01:00:00Z</time>
      </trkpt>
      <trkpt lat="60.481743" lon="22.252611">
        <ele>25</ele>
        <time>1970-01-01T01:00:00Z</time>
      </trkpt>
      <trkpt lat="60.48188" lon="22.252365">
        <ele>25</ele>
        <time>1970-01-01T01:00:00Z</time>
      </trkpt>
      <trkpt lat="60.481922" lon="22.252352">
        <ele>25</ele>
        <time>1970-01-01T01:00:00Z</time>
      </trkpt>
      <trkpt lat="60.482006" lon="22.252343">
        <ele>25</ele>
        <time>1970-01-01T01:00:00Z</time>
      </trkpt>
      <trkpt lat="60.48219" lon="22.252283">
        <ele>25</ele>
        <time>1970-01-01T01:00:00Z</time>
      </trkpt>
      <trkpt lat="60.482371" lon="22.252134">
        <ele>25</ele>
        <time>1970-01-01T01:00:00Z</time>
      </trkpt>
      <trkpt lat="60.482461" lon="22.252009">
        <ele>25</ele>
        <time>1970-01-01T01:00:00Z</time>
      </trkpt>
      <trkpt lat="60.482607" lon="22.252027">
        <ele>25</ele>
        <time>1970-01-01T01:00:00Z</time>
      </trkpt>
      <trkpt lat="60.482742" lon="22.252179">
        <ele>25</ele>
        <time>1970-01-01T01:00:00Z</time>
      </trkpt>
      <trkpt lat="60.482814" lon="22.252318">
        <ele>25</ele>
        <time>1970-01-01T01:00:00Z</time>
      </trkpt>
      <trkpt lat="60.48283" lon="22.252363">
        <ele>25.7273</ele>
        <time>1970-01-01T01:00:00Z</time>
      </trkpt>
      <trkpt lat="60.482954" lon="22.252601">
        <ele>26.4545</ele>
        <time>1970-01-01T01:00:00Z</time>
      </trkpt>
      <trkpt lat="60.483068" lon="22.252707">
        <ele>27.1818</ele>
        <time>1970-01-01T01:00:00Z</time>
      </trkpt>
      <trkpt lat="60.483171" lon="22.252635">
        <ele>27.9091</ele>
        <time>1970-01-01T01:00:00Z</time>
      </trkpt>
      <trkpt lat="60.48328" lon="22.25251">
        <ele>28.6364</ele>
        <time>1970-01-01T01:00:00Z</time>
      </trkpt>
      <trkpt lat="60.48336" lon="22.252426">
        <ele>29.3636</ele>
        <time>1970-01-01T01:00:00Z</time>
      </trkpt>
      <trkpt lat="60.483469" lon="22.252304">
        <ele>30.0909</ele>
        <time>1970-01-01T01:00:00Z</time>
      </trkpt>
      <trkpt lat="60.483561" lon="22.25217">
        <ele>30.8182</ele>
        <time>1970-01-01T01:00:00Z</time>
      </trkpt>
      <trkpt lat="60.483609" lon="22.252106">
        <ele>31.5455</ele>
        <time>1970-01-01T01:00:00Z</time>
      </trkpt>
      <trkpt lat="60.483654" lon="22.25195">
        <ele>31.5455</ele>
        <time>1970-01-01T01:00:00Z</time>
      </trkpt>
      <trkpt lat="60.483657" lon="22.251747">
        <ele>31.5455</ele>
        <time>1970-01-01T01:00:00Z</time>
      </trkpt>
      <trkpt lat="60.48363" lon="22.251641">
        <ele>30.8182</ele>
        <time>1970-01-01T01:00:00Z</time>
      </trkpt>
      <trkpt lat="60.48351" lon="22.25141">
        <ele>30.0909</ele>
        <time>1970-01-01T01:00:00Z</time>
      </trkpt>
      <trkpt lat="60.483385" lon="22.251308">
        <ele>29.3636</ele>
        <time>1970-01-01T01:00:00Z</time>
      </trkpt>
      <trkpt lat="60.483299" lon="22.251299">
        <ele>28.6364</ele>
        <time>1970-01-01T01:00:00Z</time>
      </trkpt>
      <trkpt lat="60.483122" lon="22.251477">
        <ele>27.9091</ele>
        <time>1970-01-01T01:00:00Z</time>
      </trkpt>
      <trkpt lat="60.483008" lon="22.251692">
        <ele>27.1818</ele>
        <time>1970-01-01T01:00:00Z</time>
      </trkpt>
      <trkpt lat="60.482873" lon="22.251878">
        <ele>26.4545</ele>
        <time>1970-01-01T01:00:00Z</time>
      </trkpt>
      <trkpt lat="60.482735" lon="22.252076">
        <ele>25.7273</ele>
        <time>1970-01-01T01:00:00Z</time>
      </trkpt>
      <trkpt lat="60.482661" lon="22.252117">
        <ele>25</ele>
        <time>1970-01-01T01:00:00Z</time>
      </trkpt>
      <trkpt lat="60.48249" lon="22.252142">
        <ele>25</ele>
        <time>1970-01-01T01:00:00Z</time>
      </trkpt>
      <trkpt lat="60.482344" lon="22.252284">
        <ele>25</ele>
        <time>1970-01-01T01:00:00Z</time>
      </trkpt>
      <trkpt lat="60.482314" lon="22.252316">
        <ele>25</ele>
        <time>1970-01-01T01:00:00Z</time>
      </trkpt>
      <trkpt lat="60.482141" lon="22.252318">
        <ele>25</ele>
        <time>1970-01-01T01:00:00Z</time>
      </trkpt>
      <trkpt lat="60.482024" lon="22.252118">
        <ele>25</ele>
        <time>1970-01-01T01:00:00Z</time>
      </trkpt>
      <trkpt lat="60.481923" lon="22.251835">
        <ele>25</ele>
        <time>1970-01-01T01:00:00Z</time>
      </trkpt>
      <trkpt lat="60.481883" lon="22.251684">
        <ele>25</ele>
        <time>1970-01-01T01:00:00Z</time>
      </trkpt>
      <trkpt lat="60.481723" lon="22.251358">
        <ele>25</ele>
        <time>1970-01-01T01:00:00Z</time>
      </trkpt>
      <trkpt lat="60.481601" lon="22.251396">
        <ele>25</ele>
        <time>1970-01-01T01:00:00Z</time>
      </trkpt>
      <trkpt lat="60.481566" lon="22.251439">
        <ele>25</ele>
        <time>1970-01-01T01:00:00Z</time>
      </trkpt>
      <trkpt lat="60.481389" lon="22.25171">
        <ele>25</ele>
        <time>1970-01-01T01:00:00Z</time>
      </trkpt>
      <trkpt lat="60.481306" lon="22.251831">
        <ele>25</ele>
        <time>1970-01-01T01:00:00Z</time>
      </trkpt>
      <trkpt lat="60.48107" lon="22.252054">
        <ele>25</ele>
        <time>1970-01-01T01:00:00Z</time>
      </trkpt>
      <trkpt lat="60.480895" lon="22.252164">
        <ele>25</ele>
        <time>1970-01-01T01:00:00Z</time>
      </trkpt>
      <trkpt lat="60.480642" lon="22.252363">
        <ele>25</ele>
        <time>1970-01-01T01:00:00Z</time>
      </trkpt>
      <trkpt lat="60.480594" lon="22.2524">
        <ele>25</ele>
        <time>1970-01-01T01:00:00Z</time>
      </trkpt>
      <trkpt lat="60.480415" lon="22.252598">
        <ele>25</ele>
        <time>1970-01-01T01:00:00Z</time>
      </trkpt>
      <trkpt lat="60.480165" lon="22.252841">
        <ele>25</ele>
        <time>1970-01-01T01:00:00Z</time>
      </trkpt>
      <trkpt lat="60.480121" lon="22.252885">
        <ele>25</ele>
        <time>1970-01-01T01:00:00Z</time>
      </trkpt>
      <trkpt lat="60.48002" lon="22.253042">
        <ele>25</ele>
        <time>1970-01-01T01:00:00Z</time>
      </trkpt>
      <trkpt lat="60.479984" lon="22.253333">
        <ele>25</ele>
        <time>1970-01-01T01:00:00Z</time>
      </trkpt>
      <trkpt lat="60.480059" lon="22.253455">
        <ele>25</ele>
        <time>1970-01-01T01:00:00Z</time>
      </trkpt>
      <trkpt lat="60.480176" lon="22.253461">
        <ele>25</ele>
        <time>1970-01-01T01:00:00Z</time>
      </trkpt>
      <trkpt lat="60.480212" lon="22.253467">
        <ele>25</ele>
        <time>1970-01-01T01:00:00Z</time>
      </trkpt>
      <trkpt lat="60.480293" lon="22.253481">
        <ele>25</ele>
        <time>1970-01-01T01:00:00Z</time>
      </trkpt>
      <trkpt lat="60.480463" lon="22.253367">
        <ele>25</ele>
        <time>1970-01-01T01:00:00Z</time>
      </trkpt>
      <trkpt lat="60.480628" lon="22.253247">
        <ele>25</ele>
        <time>1970-01-01T01:00:00Z</time>
      </trkpt>
      <trkpt lat="60.480759" lon="22.253205">
        <ele>25</ele>
        <time>1970-01-01T01:00:00Z</time>
      </trkpt>
      <trkpt lat="60.480887" lon="22.253288">
        <ele>25</ele>
        <time>1970-01-01T01:00:00Z</time>
      </trkpt>
      <trkpt lat="60.48097" lon="22.253349">
        <ele>25</ele>
        <time>1970-01-01T01:00:00Z</time>
      </trkpt>
      <trkpt lat="60.481034" lon="22.253443">
        <ele>25</ele>
        <time>1970-01-01T01:00:00Z</time>
      </trkpt>
      <trkpt lat="60.481051" lon="22.253462">
        <ele>25</ele>
        <time>1970-01-01T01:00:00Z</time>
      </trkpt>
      <trkpt lat="60.481149" lon="22.25356">
        <ele>25</ele>
        <time>1970-01-01T01:00:00Z</time>
      </trkpt>
      <trkpt lat="60.481265" lon="22.253705">
        <ele>25</ele>
        <time>1970-01-01T01:00:00Z</time>
      </trkpt>
      <trkpt lat="60.481378" lon="22.253879">
        <ele>25</ele>
        <time>1970-01-01T01:00:00Z</time>
      </trkpt>
      <trkpt lat="60.481467" lon="22.254042">
        <ele>25</ele>
        <time>1970-01-01T01:00:00Z</time>
      </trkpt>
      <trkpt lat="60.481534" lon="22.254208">
        <ele>25</ele>
        <time>1970-01-01T01:00:00Z</time>
      </trkpt>
      <trkpt lat="60.481555" lon="22.254308">
        <ele>25</ele>
        <time>1970-01-01T01:00:00Z</time>
      </trkpt>
      <trkpt lat="60.481487" lon="22.254559">
        <ele>25</ele>
        <time>1970-01-01T01:00:00Z</time>
      </trkpt>
      <trkpt lat="60.481281" lon="22.254771">
        <ele>25</ele>
        <time>1970-01-01T01:00:00Z</time>
      </trkpt>
      <trkpt lat="60.481095" lon="22.254942">
        <ele>25</ele>
        <time>1970-01-01T01:00:00Z</time>
      </trkpt>
      <trkpt lat="60.48106" lon="22.25499">
        <ele>25</ele>
        <time>1970-01-01T01:00:00Z</time>
      </trkpt>
      <trkpt lat="60.48094" lon="22.255147">
        <ele>25</ele>
        <time>1970-01-01T01:00:00Z</time>
      </trkpt>
      <trkpt lat="60.480842" lon="22.255286">
        <ele>25</ele>
        <time>1970-01-01T01:00:00Z</time>
      </trkpt>
      <trkpt lat="60.480795" lon="22.255423">
        <ele>25</ele>
        <time>1970-01-01T01:00:00Z</time>
      </trkpt>
      <trkpt lat="60.480781" lon="22.255613">
        <ele>25</ele>
        <time>1970-01-01T01:00:00Z</time>
      </trkpt>
      <trkpt lat="60.480777" lon="22.255807">
        <ele>25</ele>
        <time>1970-01-01T01:00:00Z</time>
      </trkpt>
      <trkpt lat="60.48078" lon="22.255979">
        <ele>25</ele>
        <time>1970-01-01T01:00:00Z</time>
      </trkpt>
      <trkpt lat="60.4808" lon="22.256041">
        <ele>25</ele>
        <time>1970-01-01T01:00:00Z</time>
      </trkpt>
      <trkpt lat="60.480867" lon="22.256143">
        <ele>25</ele>
        <time>1970-01-01T01:00:00Z</time>
      </trkpt>
      <trkpt lat="60.480985" lon="22.256318">
        <ele>25</ele>
        <time>1970-01-01T01:00:00Z</time>
      </trkpt>
      <trkpt lat="60.481063" lon="22.256453">
        <ele>25</ele>
        <time>1970-01-01T01:00:00Z</time>
      </trkpt>
      <trkpt lat="60.481124" lon="22.256577">
        <ele>25</ele>
        <time>1970-01-01T01:00:00Z</time>
      </trkpt>
      <trkpt lat="60.481152" lon="22.256656">
        <ele>25</ele>
        <time>1970-01-01T01:00:00Z</time>
      </trkpt>
      <trkpt lat="60.481178" lon="22.256869">
        <ele>25</ele>
        <time>1970-01-01T01:00:00Z</time>
      </trkpt>
      <trkpt lat="60.481192" lon="22.25706">
        <ele>25</ele>
        <time>1970-01-01T01:00:00Z</time>
      </trkpt>
      <trkpt lat="60.4812" lon="22.257352">
        <ele>25</ele>
        <time>1970-01-01T01:00:00Z</time>
      </trkpt>
      <trkpt lat="60.481166" lon="22.257528">
        <ele>24.9091</ele>
        <time>1970-01-01T01:00:00Z</time>
      </trkpt>
      <trkpt lat="60.48116" lon="22.257578">
        <ele>24.8182</ele>
        <time>1970-01-01T01:00:00Z</time>
      </trkpt>
      <trkpt lat="60.481147" lon="22.257792">
        <ele>24.7273</ele>
        <time>1970-01-01T01:00:00Z</time>
      </trkpt>
      <trkpt lat="60.481078" lon="22.257973">
        <ele>24.6364</ele>
        <time>1970-01-01T01:00:00Z</time>
      </trkpt>
      <trkpt lat="60.481016" lon="22.258321">
        <ele>24.5455</ele>
        <time>1970-01-01T01:00:00Z</time>
      </trkpt>
      <trkpt lat="60.48101" lon="22.258444">
        <ele>24.4545</ele>
        <time>1970-01-01T01:00:00Z</time>
      </trkpt>
      <trkpt lat="60.481018" lon="22.258708">
        <ele>24.3636</ele>
        <time>1970-01-01T01:00:00Z</time>
      </trkpt>
      <trkpt lat="60.4811" lon="22.259277">
        <ele>24.2727</ele>
        <time>1970-01-01T01:00:00Z</time>
      </trkpt>
      <trkpt lat="60.481188" lon="22.259891">
        <ele>24.1818</ele>
        <time>1970-01-01T01:00:00Z</time>
      </trkpt>
      <trkpt lat="60.481199" lon="22.259986">
        <ele>24.0909</ele>
        <time>1970-01-01T01:00:00Z</time>
      </trkpt>
      <trkpt lat="60.481268" lon="22.260355">
        <ele>24</ele>
        <time>1970-01-01T01:00:00Z</time>
      </trkpt>
      <trkpt lat="60.481289" lon="22.260409">
        <ele>24</ele>
        <time>1970-01-01T01:00:00Z</time>
      </trkpt>
      <trkpt lat="60.48137" lon="22.260872">
        <ele>24</ele>
        <time>1970-01-01T01:00:00Z</time>
      </trkpt>
      <trkpt lat="60.481391" lon="22.261063">
        <ele>24</ele>
        <time>1970-01-01T01:00:00Z</time>
      </trkpt>
      <trkpt lat="60.481438" lon="22.261386">
        <ele>24</ele>
        <time>1970-01-01T01:00:00Z</time>
      </trkpt>
      <trkpt lat="60.48154" lon="22.261892">
        <ele>24</ele>
        <time>1970-01-01T01:00:00Z</time>
      </trkpt>
      <trkpt lat="60.481649" lon="22.262307">
        <ele>24</ele>
        <time>1970-01-01T01:00:00Z</time>
      </trkpt>
      <trkpt lat="60.481731" lon="22.262552">
        <ele>24</ele>
        <time>1970-01-01T01:00:00Z</time>
      </trkpt>
      <trkpt lat="60.481877" lon="22.262871">
        <ele>24</ele>
        <time>1970-01-01T01:00:00Z</time>
      </trkpt>
      <trkpt lat="60.481987" lon="22.263032">
        <ele>24</ele>
        <time>1970-01-01T01:00:00Z</time>
      </trkpt>
      <trkpt lat="60.482216" lon="22.263234">
        <ele>24</ele>
        <time>1970-01-01T01:00:00Z</time>
      </trkpt>
      <trkpt lat="60.482429" lon="22.263413">
        <ele>24</ele>
        <time>1970-01-01T01:00:00Z</time>
      </trkpt>
      <trkpt lat="60.482593" lon="22.263523">
        <ele>24</ele>
        <time>1970-01-01T01:00:00Z</time>
      </trkpt>
      <trkpt lat="60.482772" lon="22.263606">
        <ele>24.3636</ele>
        <time>1970-01-01T01:00:00Z</time>
      </trkpt>
      <trkpt lat="60.482831" lon="22.263627">
        <ele>24.7273</ele>
        <time>1970-01-01T01:00:00Z</time>
      </trkpt>
      <trkpt lat="60.482976" lon="22.263506">
        <ele>25.0909</ele>
        <time>1970-01-01T01:00:00Z</time>
      </trkpt>
      <trkpt lat="60.483105" lon="22.263372">
        <ele>25.4545</ele>
        <time>1970-01-01T01:00:00Z</time>
      </trkpt>
      <trkpt lat="60.483183" lon="22.263319">
        <ele>25.8182</ele>
        <time>1970-01-01T01:00:00Z</time>
      </trkpt>
      <trkpt lat="60.48337" lon="22.263261">
        <ele>26.1818</ele>
        <time>1970-01-01T01:00:00Z</time>
      </trkpt>
      <trkpt lat="60.483519" lon="22.263189">
        <ele>26.5455</ele>
        <time>1970-01-01T01:00:00Z</time>
      </trkpt>
      <trkpt lat="60.483686" lon="22.263102">
        <ele>26.9091</ele>
        <time>1970-01-01T01:00:00Z</time>
      </trkpt>
      <trkpt lat="60.483811" lon="22.263036">
        <ele>27.2727</ele>
        <time>1970-01-01T01:00:00Z</time>
      </trkpt>
      <trkpt lat="60.483989" lon="22.262956">
        <ele>27.6364</ele>
        <time>1970-01-01T01:00:00Z</time>
      </trkpt>
      <trkpt lat="60.484116" lon="22.26292">
        <ele>28</ele>
        <time>1970-01-01T01:00:00Z</time>
      </trkpt>
      <trkpt lat="60.484171" lon="22.262895">
        <ele>28</ele>
        <time>1970-01-01T01:00:00Z</time>
      </trkpt>
      <trkpt lat="60.484277" lon="22.262868">
        <ele>28</ele>
        <time>1970-01-01T01:00:00Z</time>
      </trkpt>
      <trkpt lat="60.48441" lon="22.262822">
        <ele>28</ele>
        <time>1970-01-01T01:00:00Z</time>
      </trkpt>
      <trkpt lat="60.484542" lon="22.262766">
        <ele>28</ele>
        <time>1970-01-01T01:00:00Z</time>
      </trkpt>
      <trkpt lat="60.484713" lon="22.262776">
        <ele>28</ele>
        <time>1970-01-01T01:00:00Z</time>
      </trkpt>
      <trkpt lat="60.48484" lon="22.262793">
        <ele>28</ele>
        <time>1970-01-01T01:00:00Z</time>
      </trkpt>
      <trkpt lat="60.485" lon="22.262707">
        <ele>28</ele>
        <time>1970-01-01T01:00:00Z</time>
      </trkpt>
      <trkpt lat="60.485151" lon="22.2626">
        <ele>28</ele>
        <time>1970-01-01T01:00:00Z</time>
      </trkpt>
      <trkpt lat="60.485289" lon="22.26241">
        <ele>28</ele>
        <time>1970-01-01T01:00:00Z</time>
      </trkpt>
      <trkpt lat="60.485397" lon="22.262111">
        <ele>28</ele>
        <time>1970-01-01T01:00:00Z</time>
      </trkpt>
      <trkpt lat="60.485434" lon="22.261878">
        <ele>28</ele>
        <time>1970-01-01T01:00:00Z</time>
      </trkpt>
      <trkpt lat="60.4854" lon="22.26156">
        <ele>28</ele>
        <time>1970-01-01T01:00:00Z</time>
      </trkpt>
      <trkpt lat="60.485377" lon="22.261189">
        <ele>28</ele>
        <time>1970-01-01T01:00:00Z</time>
      </trkpt>
      <trkpt lat="60.485368" lon="22.261126">
        <ele>28</ele>
        <time>1970-01-01T01:00:00Z</time>
      </trkpt>
      <trkpt lat="60.485317" lon="22.260812">
        <ele>28</ele>
        <time>1970-01-01T01:00:00Z</time>
      </trkpt>
      <trkpt lat="60.485281" lon="22.260657">
        <ele>28</ele>
        <time>1970-01-01T01:00:00Z</time>
      </trkpt>
      <trkpt lat="60.485277" lon="22.260409">
        <ele>28</ele>
        <time>1970-01-01T01:00:00Z</time>
      </trkpt>
      <trkpt lat="60.485234" lon="22.260098">
        <ele>28</ele>
        <time>1970-01-01T01:00:00Z</time>
      </trkpt>
      <trkpt lat="60.485204" lon="22.259862">
        <ele>28</ele>
        <time>1970-01-01T01:00:00Z</time>
      </trkpt>
      <trkpt lat="60.485155" lon="22.259638">
        <ele>28</ele>
        <time>1970-01-01T01:00:00Z</time>
      </trkpt>
      <trkpt lat="60.485144" lon="22.259398">
        <ele>28</ele>
        <time>1970-01-01T01:00:00Z</time>
      </trkpt>
      <trkpt lat="60.485136" lon="22.259119">
        <ele>28.4545</ele>
        <time>1970-01-01T01:00:00Z</time>
      </trkpt>
      <trkpt lat="60.485133" lon="22.258896">
        <ele>28.9091</ele>
        <time>1970-01-01T01:00:00Z</time>
      </trkpt>
      <trkpt lat="60.485151" lon="22.258735">
        <ele>29.3636</ele>
        <time>1970-01-01T01:00:00Z</time>
      </trkpt>
      <trkpt lat="60.485152" lon="22.258679">
        <ele>29.8182</ele>
        <time>1970-01-01T01:00:00Z</time>
      </trkpt>
      <trkpt lat="60.485119" lon="22.258458">
        <ele>30.2727</ele>
        <time>1970-01-01T01:00:00Z</time>
      </trkpt>
      <trkpt lat="60.485077" lon="22.258186">
        <ele>30.7273</ele>
        <time>1970-01-01T01:00:00Z</time>
      </trkpt>
      <trkpt lat="60.485029" lon="22.257849">
        <ele>31.1818</ele>
        <time>1970-01-01T01:00:00Z</time>
      </trkpt>
      <trkpt lat="60.484978" lon="22.257544">
        <ele>31.6364</ele>
        <time>1970-01-01T01:00:00Z</time>
      </trkpt>
      <trkpt lat="60.484826" lon="22.256993">
        <ele>32.0909</ele>
        <time>1970-01-01T01:00:00Z</time>
      </trkpt>
      <trkpt lat="60.484708" lon="22.256608">
        <ele>32.5455</ele>
        <time>1970-01-01T01:00:00Z</time>
      </trkpt>
      <trkpt lat="60.484673" lon="22.256521">
        <ele>33</ele>
        <time>1970-01-01T01:00:00Z</time>
      </trkpt>
      <trkpt lat="60.484575" lon="22.256282">
        <ele>33</ele>
        <time>1970-01-01T01:00:00Z</time>
      </trkpt>
      <trkpt lat="60.484393" lon="22.255986">
        <ele>33</ele>
        <time>1970-01-01T01:00:00Z</time>
      </trkpt>
      <trkpt lat="60.484145" lon="22.255519">
        <ele>33</ele>
        <time>1970-01-01T01:00:00Z</time>
      </trkpt>
      <trkpt lat="60.484003" lon="22.25529">
        <ele>33</ele>
        <time>1970-01-01T01:00:00Z</time>
      </trkpt>
      <trkpt lat="60.483909" lon="22.255067">
        <ele>33</ele>
        <time>1970-01-01T01:00:00Z</time>
      </trkpt>
      <trkpt lat="60.483823" lon="22.254636">
        <ele>33</ele>
        <time>1970-01-01T01:00:00Z</time>
      </trkpt>
      <trkpt lat="60.483768" lon="22.254311">
        <ele>32.2727</ele>
        <time>1970-01-01T01:00:00Z</time>
      </trkpt>
      <trkpt lat="60.483742" lon="22.254236">
        <ele>31.5455</ele>
        <time>1970-01-01T01:00:00Z</time>
      </trkpt>
      <trkpt lat="60.483533" lon="22.254077">
        <ele>30.8182</ele>
        <time>1970-01-01T01:00:00Z</time>
      </trkpt>
      <trkpt lat="60.483471" lon="22.254133">
        <ele>30.0909</ele>
        <time>1970-01-01T01:00:00Z</time>
      </trkpt>
      <trkpt lat="60.483414" lon="22.254206">
        <ele>29.3636</ele>
        <time>1970-01-01T01:00:00Z</time>
      </trkpt>
      <trkpt lat="60.48331" lon="22.254347">
        <ele>28.6364</ele>
        <time>1970-01-01T01:00:00Z</time>
      </trkpt>
      <trkpt lat="60.483156" lon="22.254425">
        <ele>27.9091</ele>
        <time>1970-01-01T01:00:00Z</time>
      </trkpt>
      <trkpt lat="60.483125" lon="22.254442">
        <ele>27.1818</ele>
        <time>1970-01-01T01:00:00Z</time>
      </trkpt>
      <trkpt lat="60.482939" lon="22.254577">
        <ele>26.4545</ele>
        <time>1970-01-01T01:00:00Z</time>
      </trkpt>
      <trkpt lat="60.482838" lon="22.254624">
        <ele>25.7273</ele>
        <time>1970-01-01T01:00:00Z</time>
      </trkpt>
      <trkpt lat="60.4827" lon="22.254705">
        <ele>25</ele>
        <time>1970-01-01T01:00:00Z</time>
      </trkpt>
      <trkpt lat="60.482545" lon="22.25474">
        <ele>25</ele>
        <time>1970-01-01T01:00:00Z</time>
      </trkpt>
      <trkpt lat="60.482413" lon="22.254781">
        <ele>25</ele>
        <time>1970-01-01T01:00:00Z</time>
      </trkpt>
      <trkpt lat="60.482251" lon="22.254821">
        <ele>25</ele>
        <time>1970-01-01T01:00:00Z</time>
      </trkpt>
      <trkpt lat="60.482183" lon="22.254859">
        <ele>25</ele>
        <time>1970-01-01T01:00:00Z</time>
      </trkpt>
      <trkpt lat="60.48206" lon="22.254797">
        <ele>25</ele>
        <time>1970-01-01T01:00:00Z</time>
      </trkpt>
      <trkpt lat="60.481882" lon="22.254701">
        <ele>25</ele>
        <time>1970-01-01T01:00:00Z</time>
      </trkpt>
      <trkpt lat="60.481764" lon="22.25459">
        <ele>25</ele>
        <time>1970-01-01T01:00:00Z</time>
      </trkpt>
      <trkpt lat="60.481505" lon="22.254149">
        <ele>25</ele>
        <time>1970-01-01T01:00:00Z</time>
      </trkpt>
      <trkpt lat="60.481434" lon="22.253696">
        <ele>25</ele>
        <time>1970-01-01T01:00:00Z</time>
      </trkpt>
      <trkpt lat="60.481455" lon="22.253517">
        <ele>25</ele>
        <time>1970-01-01T01:00:00Z</time>
      </trkpt>
      <trkpt lat="60.481457" lon="22.2533">
        <ele>25</ele>
        <time>1970-01-01T01:00:00Z</time>
      </trkpt>
      <trkpt lat="60.481617" lon="22.253001">
        <ele>25</ele>
        <time>1970-01-01T01:00:00Z</time>
      </trkpt>
      <trkpt lat="60.481662" lon="22.252915">
        <ele>25</ele>
        <time>1970-01-01T01:00:00Z</time>
      </trkpt>
      <trkpt lat="60.481784" lon="22.252694">
        <ele>25</ele>
        <time>1970-01-01T01:00:00Z</time>
      </trkpt>
      <trkpt lat="60.481928" lon="22.252455">
        <ele>25</ele>
        <time>1970-01-01T01:00:00Z</time>
      </trkpt>
      <trkpt lat="60.481966" lon="22.252437">
        <ele>25</ele>
        <time>1970-01-01T01:00:00Z</time>
      </trkpt>
      <trkpt lat="60.482167" lon="22.252412">
        <ele>25</ele>
        <time>1970-01-01T01:00:00Z</time>
      </trkpt>
      <trkpt lat="60.482315" lon="22.252324">
        <ele>25</ele>
        <time>1970-01-01T01:00:00Z</time>
      </trkpt>
      <trkpt lat="60.482408" lon="22.252228">
        <ele>25</ele>
        <time>1970-01-01T01:00:00Z</time>
      </trkpt>
      <trkpt lat="60.482509" lon="22.252046">
        <ele>25</ele>
        <time>1970-01-01T01:00:00Z</time>
      </trkpt>
      <trkpt lat="60.482595" lon="22.25203">
        <ele>25</ele>
        <time>1970-01-01T01:00:00Z</time>
      </trkpt>
      <trkpt lat="60.482739" lon="22.252218">
        <ele>25</ele>
        <time>1970-01-01T01:00:00Z</time>
      </trkpt>
      <trkpt lat="60.482815" lon="22.252338">
        <ele>25.7273</ele>
        <time>1970-01-01T01:00:00Z</time>
      </trkpt>
      <trkpt lat="60.482923" lon="22.252572">
        <ele>26.4545</ele>
        <time>1970-01-01T01:00:00Z</time>
      </trkpt>
      <trkpt lat="60.483014" lon="22.252674">
        <ele>27.1818</ele>
        <time>1970-01-01T01:00:00Z</time>
      </trkpt>
      <trkpt lat="60.483111" lon="22.252621">
        <ele>27.9091</ele>
        <time>1970-01-01T01:00:00Z</time>
      </trkpt>
      <trkpt lat="60.483279" lon="22.252473">
        <ele>28.6364</ele>
        <time>1970-01-01T01:00:00Z</time>
      </trkpt>
      <trkpt lat="60.483364" lon="22.25238">
        <ele>29.3636</ele>
        <time>1970-01-01T01:00:00Z</time>
      </trkpt>
      <trkpt lat="60.483417" lon="22.252331">
        <ele>30.0909</ele>
        <time>1970-01-01T01:00:00Z</time>
      </trkpt>
      <trkpt lat="60.48352" lon="22.252177">
        <ele>30.0909</ele>
        <time>1970-01-01T01:00:00Z</time>
      </trkpt>
      <trkpt lat="60.483607" lon="22.251982">
        <ele>30.0909</ele>
        <time>1970-01-01T01:00:00Z</time>
      </trkpt>
      <trkpt lat="60.483612" lon="22.251721">
        <ele>30.0909</ele>
        <time>1970-01-01T01:00:00Z</time>
      </trkpt>
      <trkpt lat="60.483537" lon="22.251488">
        <ele>30.0909</ele>
        <time>1970-01-01T01:00:00Z</time>
      </trkpt>
      <trkpt lat="60.483466" lon="22.251346">
        <ele>29.3636</ele>
        <time>1970-01-01T01:00:00Z</time>
      </trkpt>
      <trkpt lat="60.48332" lon="22.251277">
        <ele>28.6364</ele>
        <time>1970-01-01T01:00:00Z</time>
      </trkpt>
      <trkpt lat="60.483174" lon="22.251339">
        <ele>27.9091</ele>
        <time>1970-01-01T01:00:00Z</time>
      </trkpt>
      <trkpt lat="60.483057" lon="22.251524">
        <ele>27.1818</ele>
        <time>1970-01-01T01:00:00Z</time>
      </trkpt>
      <trkpt lat="60.482931" lon="22.251666">
        <ele>26.4545</ele>
        <time>1970-01-01T01:00:00Z</time>
      </trkpt>
      <trkpt lat="60.482792" lon="22.25187">
        <ele>25.7273</ele>
        <time>1970-01-01T01:00:00Z</time>
      </trkpt>
      <trkpt lat="60.482683" lon="22.252009">
        <ele>25</ele>
        <time>1970-01-01T01:00:00Z</time>
      </trkpt>
      <trkpt lat="60.48254" lon="22.252035">
        <ele>25</ele>
        <time>1970-01-01T01:00:00Z</time>
      </trkpt>
      <trkpt lat="60.482381" lon="22.252117">
        <ele>25</ele>
        <time>1970-01-01T01:00:00Z</time>
      </trkpt>
      <trkpt lat="60.482237" lon="22.252308">
        <ele>25</ele>
        <time>1970-01-01T01:00:00Z</time>
      </trkpt>
      <trkpt lat="60.482056" lon="22.252277">
        <ele>25</ele>
        <time>1970-01-01T01:00:00Z</time>
      </trkpt>
      <trkpt lat="60.48198" lon="22.252102">
        <ele>25</ele>
        <time>1970-01-01T01:00:00Z</time>
      </trkpt>
      <trkpt lat="60.481857" lon="22.251737">
        <ele>25</ele>
        <time>1970-01-01T01:00:00Z</time>
      </trkpt>
      <trkpt lat="60.481759" lon="22.251451">
        <ele>25</ele>
        <time>1970-01-01T01:00:00Z</time>
      </trkpt>
      <trkpt lat="60.481655" lon="22.251443">
        <ele>25</ele>
        <time>1970-01-01T01:00:00Z</time>
      </trkpt>
      <trkpt lat="60.481607" lon="22.25156">
        <ele>25</ele>
        <time>1970-01-01T01:00:00Z</time>
      </trkpt>
      <trkpt lat="60.48154" lon="22.251656">
        <ele>25</ele>
        <time>1970-01-01T01:00:00Z</time>
      </trkpt>
      <trkpt lat="60.48146" lon="22.25174">
        <ele>25</ele>
        <time>1970-01-01T01:00:00Z</time>
      </trkpt>
      <trkpt lat="60.481256" lon="22.251946">
        <ele>25</ele>
        <time>1970-01-01T01:00:00Z</time>
      </trkpt>
      <trkpt lat="60.481181" lon="22.252001">
        <ele>25</ele>
        <time>1970-01-01T01:00:00Z</time>
      </trkpt>
      <trkpt lat="60.481031" lon="22.252079">
        <ele>25</ele>
        <time>1970-01-01T01:00:00Z</time>
      </trkpt>
      <trkpt lat="60.480918" lon="22.252114">
        <ele>25</ele>
        <time>1970-01-01T01:00:00Z</time>
      </trkpt>
      <trkpt lat="60.480685" lon="22.252307">
        <ele>25</ele>
        <time>1970-01-01T01:00:00Z</time>
      </trkpt>
      <trkpt lat="60.480402" lon="22.252561">
        <ele>25</ele>
        <time>1970-01-01T01:00:00Z</time>
      </trkpt>
      <trkpt lat="60.480327" lon="22.25265">
        <ele>25</ele>
        <time>1970-01-01T01:00:00Z</time>
      </trkpt>
      <trkpt lat="60.480269" lon="22.252742">
        <ele>25</ele>
        <time>1970-01-01T01:00:00Z</time>
      </trkpt>
      <trkpt lat="60.480142" lon="22.252919">
        <ele>25</ele>
        <time>1970-01-01T01:00:00Z</time>
      </trkpt>
      <trkpt lat="60.480021" lon="22.253112">
        <ele>25</ele>
        <time>1970-01-01T01:00:00Z</time>
      </trkpt>
      <trkpt lat="60.479992" lon="22.253396">
        <ele>25</ele>
        <time>1970-01-01T01:00:00Z</time>
      </trkpt>
      <trkpt lat="60.480062" lon="22.25351">
        <ele>25</ele>
        <time>1970-01-01T01:00:00Z</time>
      </trkpt>
      <trkpt lat="60.480224" lon="22.253535">
        <ele>25</ele>
        <time>1970-01-01T01:00:00Z</time>
      </trkpt>
      <trkpt lat="60.480327" lon="22.253501">
        <ele>25</ele>
        <time>1970-01-01T01:00:00Z</time>
      </trkpt>
      <trkpt lat="60.480359" lon="22.253473">
        <ele>25</ele>
        <time>1970-01-01T01:00:00Z</time>
      </trkpt>
      <trkpt lat="60.480526" lon="22.253355">
        <ele>25</ele>
        <time>1970-01-01T01:00:00Z</time>
      </trkpt>
      <trkpt lat="60.480644" lon="22.253271">
        <ele>25</ele>
        <time>1970-01-01T01:00:00Z</time>
      </trkpt>
      <trkpt lat="60.480798" lon="22.253298">
        <ele>25</ele>
        <time>1970-01-01T01:00:00Z</time>
      </trkpt>
      <trkpt lat="60.48091" lon="22.253396">
        <ele>25</ele>
        <time>1970-01-01T01:00:00Z</time>
      </trkpt>
      <trkpt lat="60.481039" lon="22.253478">
        <ele>25</ele>
        <time>1970-01-01T01:00:00Z</time>
      </trkpt>
      <trkpt lat="60.481154" lon="22.25359">
        <ele>25</ele>
        <time>1970-01-01T01:00:00Z</time>
      </trkpt>
      <trkpt lat="60.481255" lon="22.253701">
        <ele>25</ele>
        <time>1970-01-01T01:00:00Z</time>
      </trkpt>
      <trkpt lat="60.481321" lon="22.25383">
        <ele>25</ele>
        <time>1970-01-01T01:00:00Z</time>
      </trkpt>
      <trkpt lat="60.481457" lon="22.254066">
        <ele>25</ele>
        <time>1970-01-01T01:00:00Z</time>
      </trkpt>
      <trkpt lat="60.481489" lon="22.254138">
        <ele>25</ele>
        <time>1970-01-01T01:00:00Z</time>
      </trkpt>
      <trkpt lat="60.481553" lon="22.254365">
        <ele>25</ele>
        <time>1970-01-01T01:00:00Z</time>
      </trkpt>
      <trkpt lat="60.481552" lon="22.254415">
        <ele>25</ele>
        <time>1970-01-01T01:00:00Z</time>
      </trkpt>
      <trkpt lat="60.481448" lon="22.254593">
        <ele>25</ele>
        <time>1970-01-01T01:00:00Z</time>
      </trkpt>
      <trkpt lat="60.481416" lon="22.25463">
        <ele>25</ele>
        <time>1970-01-01T01:00:00Z</time>
      </trkpt>
      <trkpt lat="60.481211" lon="22.254866">
        <ele>25</ele>
        <time>1970-01-01T01:00:00Z</time>
      </trkpt>
      <trkpt lat="60.481162" lon="22.254908">
        <ele>25</ele>
        <time>1970-01-01T01:00:00Z</time>
      </trkpt>
      <trkpt lat="60.480994" lon="22.255061">
        <ele>25</ele>
        <time>1970-01-01T01:00:00Z</time>
      </trkpt>
      <trkpt lat="60.480888" lon="22.255224">
        <ele>25</ele>
        <time>1970-01-01T01:00:00Z</time>
      </trkpt>
      <trkpt lat="60.480809" lon="22.255445">
        <ele>25</ele>
        <time>1970-01-01T01:00:00Z</time>
      </trkpt>
      <trkpt lat="60.480771" lon="22.255636">
        <ele>25</ele>
        <time>1970-01-01T01:00:00Z</time>
      </trkpt>
      <trkpt lat="60.480763" lon="22.25577">
        <ele>25</ele>
        <time>1970-01-01T01:00:00Z</time>
      </trkpt>
      <trkpt lat="60.480789" lon="22.255924">
        <ele>25</ele>
        <time>1970-01-01T01:00:00Z</time>
      </trkpt>
      <trkpt lat="60.480796" lon="22.256014">
        <ele>25</ele>
        <time>1970-01-01T01:00:00Z</time>
      </trkpt>
      <trkpt lat="60.480853" lon="22.256183">
        <ele>25</ele>
        <time>1970-01-01T01:00:00Z</time>
      </trkpt>
      <trkpt lat="60.480951" lon="22.256291">
        <ele>25</ele>
        <time>1970-01-01T01:00:00Z</time>
      </trkpt>
      <trkpt lat="60.480976" lon="22.256323">
        <ele>25</ele>
        <time>1970-01-01T01:00:00Z</time>
      </trkpt>
      <trkpt lat="60.481094" lon="22.256531">
        <ele>25</ele>
        <time>1970-01-01T01:00:00Z</time>
      </trkpt>
      <trkpt lat="60.48116" lon="22.256667">
        <ele>25</ele>
        <time>1970-01-01T01:00:00Z</time>
      </trkpt>
      <trkpt lat="60.481214" lon="22.256756">
        <ele>25</ele>
        <time>1970-01-01T01:00:00Z</time>
      </trkpt>
      <trkpt lat="60.481257" lon="22.25701">
        <ele>25</ele>
        <time>1970-01-01T01:00:00Z</time>
      </trkpt>
      <trkpt lat="60.481255" lon="22.257111">
        <ele>25</ele>
        <time>1970-01-01T01:00:00Z</time>
      </trkpt>
      <trkpt lat="60.481248" lon="22.257389">
        <ele>24.9091</ele>
        <time>1970-01-01T01:00:00Z</time>
      </trkpt>
      <trkpt lat="60.481213" lon="22.257534">
        <ele>24.8182</ele>
        <time>1970-01-01T01:00:00Z</time>
      </trkpt>
      <trkpt lat="60.48117" lon="22.257753">
        <ele>24.7273</ele>
        <time>1970-01-01T01:00:00Z</time>
      </trkpt>
      <trkpt lat="60.481137" lon="22.257981">
        <ele>24.6364</ele>
        <time>1970-01-01T01:00:00Z</time>
      </trkpt>
      <trkpt lat="60.481081" lon="22.25836">
        <ele>24.5455</ele>
        <time>1970-01-01T01:00:00Z</time>
      </trkpt>
      <trkpt lat="60.481076" lon="22.258624">
        <ele>24.4545</ele>
        <time>1970-01-01T01:00:00Z</time>
      </trkpt>
      <trkpt lat="60.481153" lon="22.259283">
        <ele>24.3636</ele>
        <time>1970-01-01T01:00:00Z</time>
      </trkpt>
      <trkpt lat="60.481198" lon="22.259809">
        <ele>24.2727</ele>
        <time>1970-01-01T01:00:00Z</time>
      </trkpt>
      <trkpt lat="60.481284" lon="22.2601">
        <ele>24.1818</ele>
        <time>1970-01-01T01:00:00Z</time>
      </trkpt>
      <trkpt lat="60.481391" lon="22.260516">
        <ele>24.0909</ele>
        <time>1970-01-01T01:00:00Z</time>
      </trkpt>
      <trkpt lat="60.481449" lon="22.260774">
        <ele>24</ele>
        <time>1970-01-01T01:00:00Z</time>
      </trkpt>
      <trkpt lat="60.481476" lon="22.260964">
        <ele>24</ele>
        <time>1970-01-01T01:00:00Z</time>
      </trkpt>
      <trkpt lat="60.481504" lon="22.261187">
        <ele>24</ele>
        <time>1970-01-01T01:00:00Z</time>
      </trkpt>
      <trkpt lat="60.481539" lon="22.261383">
        <ele>24</ele>
        <time>1970-01-01T01:00:00Z</time>
      </trkpt>
      <trkpt lat="60.481574" lon="22.261549">
        <ele>24</ele>
        <time>1970-01-01T01:00:00Z</time>
      </trkpt>
      <trkpt lat="60.48163" lon="22.261729">
        <ele>24</ele>
        <time>1970-01-01T01:00:00Z</time>
      </trkpt>
      <trkpt lat="60.481716" lon="22.262226">
        <ele>24</ele>
        <time>1970-01-01T01:00:00Z</time>
      </trkpt>
      <trkpt lat="60.481737" lon="22.262339">
        <ele>24</ele>
        <time>1970-01-01T01:00:00Z</time>
      </trkpt>
      <trkpt lat="60.481779" lon="22.262529">
        <ele>24</ele>
        <time>1970-01-01T01:00:00Z</time>
      </trkpt>
      <trkpt lat="60.481819" lon="22.262672">
        <ele>24</ele>
        <time>1970-01-01T01:00:00Z</time>
      </trkpt>
      <trkpt lat="60.481904" lon="22.262909">
        <ele>24</ele>
        <time>1970-01-01T01:00:00Z</time>
      </trkpt>
      <trkpt lat="60.482054" lon="22.263149">
        <ele>24</ele>
        <time>1970-01-01T01:00:00Z</time>
      </trkpt>
      <trkpt lat="60.482199" lon="22.26331">
        <ele>24</ele>
        <time>1970-01-01T01:00:00Z</time>
      </trkpt>
      <trkpt lat="60.482413" lon="22.263556">
        <ele>24</ele>
        <time>1970-01-01T01:00:00Z</time>
      </trkpt>
      <trkpt lat="60.48256" lon="22.263621">
        <ele>24.3636</ele>
        <time>1970-01-01T01:00:00Z</time>
      </trkpt>
      <trkpt lat="60.482811" lon="22.26361">
        <ele>24.7273</ele>
        <time>1970-01-01T01:00:00Z</time>
      </trkpt>
      <trkpt lat="60.482953" lon="22.263529">
        <ele>25.0909</ele>
        <time>1970-01-01T01:00:00Z</time>
      </trkpt>
      <trkpt lat="60.483154" lon="22.263338">
        <ele>25.4545</ele>
        <time>1970-01-01T01:00:00Z</time>
      </trkpt>
      <trkpt lat="60.483278" lon="22.263242">
        <ele>25.8182</ele>
        <time>1970-01-01T01:00:00Z</time>
      </trkpt>
      <trkpt lat="60.483415" lon="22.263216">
        <ele>26.1818</ele>
        <time>1970-01-01T01:00:00Z</time>
      </trkpt>
      <trkpt lat="60.483602" lon="22.2631">
        <ele>26.5455</ele>
        <time>1970-01-01T01:00:00Z</time>
      </trkpt>
      <trkpt lat="60.483785" lon="22.263008">
        <ele>26.9091</ele>
        <time>1970-01-01T01:00:00Z</time>
      </trkpt>
      <trkpt lat="60.483934" lon="22.262944">
        <ele>27.2727</ele>
        <time>1970-01-01T01:00:00Z</time>
      </trkpt>
      <trkpt lat="60.484018" lon="22.26292">
        <ele>27.6364</ele>
        <time>1970-01-01T01:00:00Z</time>
      </trkpt>
      <trkpt lat="60.484111" lon="22.262885">
        <ele>28</ele>
        <time>1970-01-01T01:00:00Z</time>
      </trkpt>
      <trkpt lat="60.484133" lon="22.262884">
        <ele>28</ele>
        <time>1970-01-01T01:00:00Z</time>
      </trkpt>
      <trkpt lat="60.484258" lon="22.262846">
        <ele>28</ele>
        <time>1970-01-01T01:00:00Z</time>
      </trkpt>
      <trkpt lat="60.484363" lon="22.262833">
        <ele>28</ele>
        <time>1970-01-01T01:00:00Z</time>
      </trkpt>
      <trkpt lat="60.484513" lon="22.262803">
        <ele>28</ele>
        <time>1970-01-01T01:00:00Z</time>
      </trkpt>
      <trkpt lat="60.484686" lon="22.262779">
        <ele>28</ele>
        <time>1970-01-01T01:00:00Z</time>
      </trkpt>
      <trkpt lat="60.484837" lon="22.262811">
        <ele>28</ele>
        <time>1970-01-01T01:00:00Z</time>
      </trkpt>
      <trkpt lat="60.484989" lon="22.262797">
        <ele>28</ele>
        <time>1970-01-01T01:00:00Z</time>
      </trkpt>
      <trkpt lat="60.485132" lon="22.262702">
        <ele>28</ele>
        <time>1970-01-01T01:00:00Z</time>
      </trkpt>
      <trkpt lat="60.485273" lon="22.262558">
        <ele>28</ele>
        <time>1970-01-01T01:00:00Z</time>
      </trkpt>
      <trkpt lat="60.485369" lon="22.262342">
        <ele>28</ele>
        <time>1970-01-01T01:00:00Z</time>
      </trkpt>
      <trkpt lat="60.485408" lon="22.262138">
        <ele>28</ele>
        <time>1970-01-01T01:00:00Z</time>
      </trkpt>
      <trkpt lat="60.485408" lon="22.261858">
        <ele>28</ele>
        <time>1970-01-01T01:00:00Z</time>
      </trkpt>
      <trkpt lat="60.485382" lon="22.261553">
        <ele>28</ele>
        <time>1970-01-01T01:00:00Z</time>
      </trkpt>
      <trkpt lat="60.485348" lon="22.261242">
        <ele>28</ele>
        <time>1970-01-01T01:00:00Z</time>
      </trkpt>
      <trkpt lat="60.485316" lon="22.260952">
        <ele>28</ele>
        <time>1970-01-01T01:00:00Z</time>
      </trkpt>
      <trkpt lat="60.485293" lon="22.260715">
        <ele>28</ele>
        <time>1970-01-01T01:00:00Z</time>
      </trkpt>
      <trkpt lat="60.485278" lon="22.260436">
        <ele>28</ele>
        <time>1970-01-01T01:00:00Z</time>
      </trkpt>
      <trkpt lat="60.485248" lon="22.260099">
        <ele>28</ele>
        <time>1970-01-01T01:00:00Z</time>
      </trkpt>
      <trkpt lat="60.485215" lon="22.259716">
        <ele>28</ele>
        <time>1970-01-01T01:00:00Z</time>
      </trkpt>
      <trkpt lat="60.485177" lon="22.259501">
        <ele>28.4545</ele>
        <time>1970-01-01T01:00:00Z</time>
      </trkpt>
      <trkpt lat="60.48514" lon="22.259265">
        <ele>28.9091</ele>
        <time>1970-01-01T01:00:00Z</time>
      </trkpt>
      <trkpt lat="60.485146" lon="22.258991">
        <ele>29.3636</ele>
        <time>1970-01-01T01:00:00Z</time>
      </trkpt>
      <trkpt lat="60.485151" lon="22.258763">
        <ele>29.8182</ele>
        <time>1970-01-01T01:00:00Z</time>
      </trkpt>
      <trkpt lat="60.485127" lon="22.25845">
        <ele>30.2727</ele>
        <time>1970-01-01T01:00:00Z</time>
      </trkpt>
      <trkpt lat="60.485064" lon="22.258234">
        <ele>30.7273</ele>
        <time>1970-01-01T01:00:00Z</time>
      </trkpt>
      <trkpt lat="60.485042" lon="22.257981">
        <ele>31.1818</ele>
        <time>1970-01-01T01:00:00Z</time>
      </trkpt>
      <trkpt lat="60.485001" lon="22.257704">
        <ele>31.6364</ele>
        <time>1970-01-01T01:00:00Z</time>
      </trkpt>
      <trkpt lat="60.484926" lon="22.257288">
        <ele>32.0909</ele>
        <time>1970-01-01T01:00:00Z</time>
      </trkpt>
      <trkpt lat="60.484909" lon="22.257198">
        <ele>32.5455</ele>
        <time>1970-01-01T01:00:00Z</time>
      </trkpt>
      <trkpt lat="60.484765" lon="22.256696">
        <ele>33</ele>
        <time>1970-01-01T01:00:00Z</time>
      </trkpt>
      <trkpt lat="60.484716" lon="22.256525">
        <ele>33</ele>
        <time>1970-01-01T01:00:00Z</time>
      </trkpt>
      <trkpt lat="60.484607" lon="22.256257">
        <ele>33</ele>
        <time>1970-01-01T01:00:00Z</time>
      </trkpt>
      <trkpt lat="60.484566" lon="22.256181">
        <ele>33</ele>
        <time>1970-01-01T01:00:00Z</time>
      </trkpt>
      <trkpt lat="60.484224" lon="22.255592">
        <ele>33</ele>
        <time>1970-01-01T01:00:00Z</time>
      </trkpt>
      <trkpt lat="60.484081" lon="22.25538">
        <ele>33</ele>
        <time>1970-01-01T01:00:00Z</time>
      </trkpt>
      <trkpt lat="60.483925" lon="22.254926">
        <ele>32.2727</ele>
        <time>1970-01-01T01:00:00Z</time>
      </trkpt>
      <trkpt lat="60.483859" lon="22.254583">
        <ele>31.5455</ele>
        <time>1970-01-01T01:00:00Z</time>
      </trkpt>
      <trkpt lat="60.483783" lon="22.254227">
        <ele>30.8182</ele>
        <time>1970-01-01T01:00:00Z</time>
      </trkpt>
      <trkpt lat="60.483581" lon="22.254032">
        <ele>30.0909</ele>
        <time>1970-01-01T01:00:00Z</time>
      </trkpt>
      <trkpt lat="60.48342" lon="22.254223">
        <ele>29.3636</ele>
        <time>1970-01-01T01:00:00Z</time>
      </trkpt>
      <trkpt lat="60.48323" lon="22.254427">
        <ele>28.6364</ele>
        <time>1970-01-01T01:00:00Z</time>
      </trkpt>
      <trkpt lat="60.483124" lon="22.254548">
        <ele>27.9091</ele>
        <time>1970-01-01T01:00:00Z</time>
      </trkpt>
      <trkpt lat="60.483087" lon="22.254568">
        <ele>27.1818</ele>
        <time>1970-01-01T01:00:00Z</time>
      </trkpt>
      <trkpt lat="60.482896" lon="22.254674">
        <ele>26.4545</ele>
        <time>1970-01-01T01:00:00Z</time>
      </trkpt>
      <trkpt lat="60.482792" lon="22.254664">
        <ele>25.7273</ele>
        <time>1970-01-01T01:00:00Z</time>
      </trkpt>
      <trkpt lat="60.482626" lon="22.254688">
        <ele>25</ele>
        <time>1970-01-01T01:00:00Z</time>
      </trkpt>
      <trkpt lat="60.482519" lon="22.254677">
        <ele>25</ele>
        <time>1970-01-01T01:00:00Z</time>
      </trkpt>
      <trkpt lat="60.482377" lon="22.254641">
        <ele>25</ele>
        <time>1970-01-01T01:00:00Z</time>
      </trkpt>
      <trkpt lat="60.482273" lon="22.254668">
        <ele>25</ele>
        <time>1970-01-01T01:00:00Z</time>
      </trkpt>
      <trkpt lat="60.482184" lon="22.254701">
        <ele>25</ele>
        <time>1970-01-01T01:00:00Z</time>
      </trkpt>
      <trkpt lat="60.482048" lon="22.254681">
        <ele>25</ele>
        <time>1970-01-01T01:00:00Z</time>
      </trkpt>
      <trkpt lat="60.481972" lon="22.254664">
        <ele>25</ele>
        <time>1970-01-01T01:00:00Z</time>
      </trkpt>
      <trkpt lat="60.481786" lon="22.254596">
        <ele>25</ele>
        <time>1970-01-01T01:00:00Z</time>
      </trkpt>
      <trkpt lat="60.481731" lon="22.254545">
        <ele>25</ele>
        <time>1970-01-01T01:00:00Z</time>
      </trkpt>
      <trkpt lat="60.481531" lon="22.254231">
        <ele>25</ele>
        <time>1970-01-01T01:00:00Z</time>
      </trkpt>
      <trkpt lat="60.481414" lon="22.253674">
        <ele>25</ele>
        <time>1970-01-01T01:00:00Z</time>
      </trkpt>
      <trkpt lat="60.481484" lon="22.253373">
        <ele>25</ele>
        <time>1970-01-01T01:00:00Z</time>
      </trkpt>
      <trkpt lat="60.481576" lon="22.253085">
        <ele>25</ele>
        <time>1970-01-01T01:00:00Z</time>
      </trkpt>
      <trkpt lat="60.481687" lon="22.252837">
        <ele>25</ele>
        <time>1970-01-01T01:00:00Z</time>
      </trkpt>
      <trkpt lat="60.481789" lon="22.252531">
        <ele>25</ele>
        <time>1970-01-01T01:00:00Z</time>
      </trkpt>
      <trkpt lat="60.48198" lon="22.252391">
        <ele>25</ele>
        <time>1970-01-01T01:00:00Z</time>
      </trkpt>
      <trkpt lat="60.482235" lon="22.252357">
        <ele>25</ele>
        <time>1970-01-01T01:00:00Z</time>
      </trkpt>
      <trkpt lat="60.482407" lon="22.252163">
        <ele>25</ele>
        <time>1970-01-01T01:00:00Z</time>
      </trkpt>
      <trkpt lat="60.482486" lon="22.252035">
        <ele>25</ele>
        <time>1970-01-01T01:00:00Z</time>
      </trkpt>
      <trkpt lat="60.482625" lon="22.252003">
        <ele>25</ele>
        <time>1970-01-01T01:00:00Z</time>
      </trkpt>
      <trkpt lat="60.482702" lon="22.252142">
        <ele>25</ele>
        <time>1970-01-01T01:00:00Z</time>
      </trkpt>
      <trkpt lat="60.482763" lon="22.252224">
        <ele>25</ele>
        <time>1970-01-01T01:00:00Z</time>
      </trkpt>
      <trkpt lat="60.482861" lon="22.252565">
        <ele>25.7273</ele>
        <time>1970-01-01T01:00:00Z</time>
      </trkpt>
      <trkpt lat="60.482918" lon="22.252762">
        <ele>26.4545</ele>
        <time>1970-01-01T01:00:00Z</time>
      </trkpt>
      <trkpt lat="60.482975" lon="22.252829">
        <ele>27.1818</ele>
        <time>1970-01-01T01:00:00Z</time>
      </trkpt>
      <trkpt lat="60.483159" lon="22.252732">
        <ele>27.9091</ele>
        <time>1970-01-01T01:00:00Z</time>
      </trkpt>
      <trkpt lat="60.483295" lon="22.252627">
        <ele>28.6364</ele>
        <time>1970-01-01T01:00:00Z</time>
      </trkpt>
      <trkpt lat="60.48341" lon="22.252486">
        <ele>29.3636</ele>
        <time>1970-01-01T01:00:00Z</time>
      </trkpt>
      <trkpt lat="60.483535" lon="22.252309">
        <ele>29.3636</ele>
        <time>1970-01-01T01:00:00Z</time>
      </trkpt>
      <trkpt lat="60.483638" lon="22.252079">
        <ele>29.3636</ele>
        <time>1970-01-01T01:00:00Z</time>
      </trkpt>
      <trkpt lat="60.483652" lon="22.252009">
        <ele>29.3636</ele>
        <time>1970-01-01T01:00:00Z</time>
      </trkpt>
      <trkpt lat="60.483603" lon="22.251621">
        <ele>29.3636</ele>
        <time>1970-01-01T01:00:00Z</time>
      </trkpt>
      <trkpt lat="60.483489" lon="22.251383">
        <ele>29.3636</ele>
        <time>1970-01-01T01:00:00Z</time>
      </trkpt>
      <trkpt lat="60.48334" lon="22.251313">
        <ele>28.6364</ele>
        <time>1970-01-01T01:00:00Z</time>
      </trkpt>
      <trkpt lat="60.483201" lon="22.251409">
        <ele>27.9091</ele>
        <time>1970-01-01T01:00:00Z</time>
      </trkpt>
      <trkpt lat="60.483074" lon="22.251547">
        <ele>27.1818</ele>
        <time>1970-01-01T01:00:00Z</time>
      </trkpt>
      <trkpt lat="60.483046" lon="22.251592">
        <ele>26.4545</ele>
        <time>1970-01-01T01:00:00Z</time>
      </trkpt>
      <trkpt lat="60.482902" lon="22.251794">
        <ele>25.7273</ele>
        <time>1970-01-01T01:00:00Z</time>
      </trkpt>
      <trkpt lat="60.482768" lon="22.251947">
        <ele>25</ele>
        <time>1970-01-01T01:00:00Z</time>
      </trkpt>
      <trkpt lat="60.482694" lon="22.252033">
        <ele>25</ele>
        <time>1970-01-01T01:00:00Z</time>
      </trkpt>
      <trkpt lat="60.482502" lon="22.252059">
        <ele>25</ele>
        <time>1970-01-01T01:00:00Z</time>
      </trkpt>
      <trkpt lat="60.482392" lon="22.252177">
        <ele>25</ele>
        <time>1970-01-01T01:00:00Z</time>
      </trkpt>
      <trkpt lat="60.482269" lon="22.252371">
        <ele>25</ele>
        <time>1970-01-01T01:00:00Z</time>
      </trkpt>
      <trkpt lat="60.482072" lon="22.252302">
        <ele>25</ele>
        <time>1970-01-01T01:00:00Z</time>
      </trkpt>
      <trkpt lat="60.48192" lon="22.252022">
        <ele>25</ele>
        <time>1970-01-01T01:00:00Z</time>
      </trkpt>
      <trkpt lat="60.481892" lon="22.251886">
        <ele>25</ele>
        <time>1970-01-01T01:00:00Z</time>
      </trkpt>
      <trkpt lat="60.481851" lon="22.251594">
        <ele>25</ele>
        <time>1970-01-01T01:00:00Z</time>
      </trkpt>
      <trkpt lat="60.481723" lon="22.251363">
        <ele>25</ele>
        <time>1970-01-01T01:00:00Z</time>
      </trkpt>
      <trkpt lat="60.481683" lon="22.25139">
        <ele>25</ele>
        <time>1970-01-01T01:00:00Z</time>
      </trkpt>
      <trkpt lat="60.481615" lon="22.251502">
        <ele>25</ele>
        <time>1970-01-01T01:00:00Z</time>
      </trkpt>
      <trkpt lat="60.481503" lon="22.251635">
        <ele>25</ele>
        <time>1970-01-01T01:00:00Z</time>
      </trkpt>
      <trkpt lat="60.481335" lon="22.251785">
        <ele>25</ele>
        <time>1970-01-01T01:00:00Z</time>
      </trkpt>
      <trkpt lat="60.481171" lon="22.251939">
        <ele>25</ele>
        <time>1970-01-01T01:00:00Z</time>
      </trkpt>
      <trkpt lat="60.481084" lon="22.251999">
        <ele>25</ele>
        <time>1970-01-01T01:00:00Z</time>
      </trkpt>
      <trkpt lat="60.480885" lon="22.252095">
        <ele>25</ele>
        <time>1970-01-01T01:00:00Z</time>
      </trkpt>
      <trkpt lat="60.480692" lon="22.252241">
        <ele>25</ele>
        <time>1970-01-01T01:00:00Z</time>
      </trkpt>
      <trkpt lat="60.480576" lon="22.252341">
        <ele>25</ele>
        <time>1970-01-01T01:00:00Z</time>
      </trkpt>
      <trkpt lat="60.480495" lon="22.252475">
        <ele>25</ele>
        <time>1970-01-01T01:00:00Z</time>
      </trkpt>
      <trkpt lat="60.480302" lon="22.252697">
        <ele>25</ele>
        <time>1970-01-01T01:00:00Z</time>
      </trkpt>
      <trkpt lat="60.480198" lon="22.252787">
        <ele>25</ele>
        <time>1970-01-01T01:00:00Z</time>
      </trkpt>
      <trkpt lat="60.480032" lon="22.252895">
        <ele>25</ele>
        <time>1970-01-01T01:00:00Z</time>
      </trkpt>
      <trkpt lat="60.479984" lon="22.253107">
        <ele>25</ele>
        <time>1970-01-01T01:00:00Z</time>
      </trkpt>
      <trkpt lat="60.480036" lon="22.253349">
        <ele>25</ele>
        <time>1970-01-01T01:00:00Z</time>
      </trkpt>
      <trkpt lat="60.480161" lon="22.253471">
        <ele>25</ele>
        <time>1970-01-01T01:00:00Z</time>
      </trkpt>
      <trkpt lat="60.480272" lon="22.253484">
        <ele>25</ele>
        <time>1970-01-01T01:00:00Z</time>
      </trkpt>
      <trkpt lat="60.480331" lon="22.253451">
        <ele>25</ele>
        <time>1970-01-01T01:00:00Z</time>
      </trkpt>
      <trkpt lat="60.48052" lon="22.253312">
        <ele>25</ele>
        <time>1970-01-01T01:00:00Z</time>
      </trkpt>
      <trkpt lat="60.480603" lon="22.253278">
        <ele>25</ele>
        <time>1970-01-01T01:00:00Z</time>
      </trkpt>
      <trkpt lat="60.480687" lon="22.253232">
        <ele>25</ele>
        <time>1970-01-01T01:00:00Z</time>
      </trkpt>
      <trkpt lat="60.48079" lon="22.253263">
        <ele>25</ele>
        <time>1970-01-01T01:00:00Z</time>
      </trkpt>
      <trkpt lat="60.480895" lon="22.253385">
        <ele>25</ele>
        <time>1970-01-01T01:00:00Z</time>
      </trkpt>
      <trkpt lat="60.480983" lon="22.253467">
        <ele>25</ele>
        <time>1970-01-01T01:00:00Z</time>
      </trkpt>
      <trkpt lat="60.48102" lon="22.253516">
        <ele>25</ele>
        <time>1970-01-01T01:00:00Z</time>
      </trkpt>
      <trkpt lat="60.481113" lon="22.253672">
        <ele>25</ele>
        <time>1970-01-01T01:00:00Z</time>
      </trkpt>
      <trkpt lat="60.481142" lon="22.253721">
        <ele>25</ele>
        <time>1970-01-01T01:00:00Z</time>
      </trkpt>
      <trkpt lat="60.481256" lon="22.253944">
        <ele>25</ele>
        <time>1970-01-01T01:00:00Z</time>
      </trkpt>
      <trkpt lat="60.481327" lon="22.254081">
        <ele>25</ele>
        <time>1970-01-01T01:00:00Z</time>
      </trkpt>
      <trkpt lat="60.481394" lon="22.254249">
        <ele>25</ele>
        <time>1970-01-01T01:00:00Z</time>
      </trkpt>
      <trkpt lat="60.481406" lon="22.254422">
        <ele>25</ele>
        <time>1970-01-01T01:00:00Z</time>
      </trkpt>
      <trkpt lat="60.481411" lon="22.254558">
        <ele>25</ele>
        <time>1970-01-01T01:00:00Z</time>
      </trkpt>
      <trkpt lat="60.481318" lon="22.254626">
        <ele>25</ele>
        <time>1970-01-01T01:00:00Z</time>
      </trkpt>
      <trkpt lat="60.481291" lon="22.254656">
        <ele>25</ele>
        <time>1970-01-01T01:00:00Z</time>
      </trkpt>
      <trkpt lat="60.48107" lon="22.254938">
        <ele>25</ele>
        <time>1970-01-01T01:00:00Z</time>
      </trkpt>
      <trkpt lat="60.480924" lon="22.255128">
        <ele>25</ele>
        <time>1970-01-01T01:00:00Z</time>
      </trkpt>
      <trkpt lat="60.480862" lon="22.255239">
        <ele>25</ele>
        <time>1970-01-01T01:00:00Z</time>
      </trkpt>
      <trkpt lat="60.48082" lon="22.255407">
        <ele>25</ele>
        <time>1970-01-01T01:00:00Z</time>
      </trkpt>
      <trkpt lat="60.480776" lon="22.255605">
        <ele>25</ele>
        <time>1970-01-01T01:00:00Z</time>
      </trkpt>
      <trkpt lat="60.480823" lon="22.255841">
        <ele>25</ele>
        <time>1970-01-01T01:00:00Z</time>
      </trkpt>
      <trkpt lat="60.480871" lon="22.256061">
        <ele>25</ele>
        <time>1970-01-01T01:00:00Z</time>
      </trkpt>
      <trkpt lat="60.480991" lon="22.256194">
        <ele>25</ele>
        <time>1970-01-01T01:00:00Z</time>
      </trkpt>
      <trkpt lat="60.481019" lon="22.256218">
        <ele>25</ele>
        <time>1970-01-01T01:00:00Z</time>
      </trkpt>
      <trkpt lat="60.481143" lon="22.256381">
        <ele>25</ele>
        <time>1970-01-01T01:00:00Z</time>
      </trkpt>
      <trkpt lat="60.481237" lon="22.256474">
        <ele>25</ele>
        <time>1970-01-01T01:00:00Z</time>
      </trkpt>
      <trkpt lat="60.481263" lon="22.256503">
        <ele>25</ele>
        <time>1970-01-01T01:00:00Z</time>
      </trkpt>
      <trkpt lat="60.481309" lon="22.256722">
        <ele>25</ele>
        <time>1970-01-01T01:00:00Z</time>
      </trkpt>
      <trkpt lat="60.481319" lon="22.256959">
        <ele>25</ele>
        <time>1970-01-01T01:00:00Z</time>
      </trkpt>
      <trkpt lat="60.481307" lon="22.257284">
        <ele>24.9091</ele>
        <time>1970-01-01T01:00:00Z</time>
      </trkpt>
      <trkpt lat="60.481266" lon="22.257597">
        <ele>24.8182</ele>
        <time>1970-01-01T01:00:00Z</time>
      </trkpt>
      <trkpt lat="60.481258" lon="22.257643">
        <ele>24.7273</ele>
        <time>1970-01-01T01:00:00Z</time>
      </trkpt>
      <trkpt lat="60.481207" lon="22.25778">
        <ele>24.6364</ele>
        <time>1970-01-01T01:00:00Z</time>
      </trkpt>
      <trkpt lat="60.481119" lon="22.258262">
        <ele>24.5455</ele>
        <time>1970-01-01T01:00:00Z</time>
      </trkpt>
      <trkpt lat="60.481118" lon="22.258506">
        <ele>24.4545</ele>
        <time>1970-01-01T01:00:00Z</time>
      </trkpt>
      <trkpt lat="60.481189" lon="22.259306">
        <ele>24.3636</ele>
        <time>1970-01-01T01:00:00Z</time>
      </trkpt>
      <trkpt lat="60.481264" lon="22.259816">
        <ele>24.2727</ele>
        <time>1970-01-01T01:00:00Z</time>
      </trkpt>
      <trkpt lat="60.481295" lon="22.260129">
        <ele>24.1818</ele>
        <time>1970-01-01T01:00:00Z</time>
      </trkpt>
      <trkpt lat="60.481332" lon="22.260555">
        <ele>24.0909</ele>
        <time>1970-01-01T01:00:00Z</time>
      </trkpt>
      <trkpt lat="60.481361" lon="22.260829">
        <ele>24</ele>
        <time>1970-01-01T01:00:00Z</time>
      </trkpt>
      <trkpt lat="60.481386" lon="22.260973">
        <ele>24</ele>
        <time>1970-01-01T01:00:00Z</time>
      </trkpt>
      <trkpt lat="60.481456" lon="22.261447">
        <ele>24</ele>
        <time>1970-01-01T01:00:00Z</time>
      </trkpt>
      <trkpt lat="60.481546" lon="22.262033">
        <ele>24</ele>
        <time>1970-01-01T01:00:00Z</time>
      </trkpt>
      <trkpt lat="60.481596" lon="22.262237">
        <ele>24</ele>
        <time>1970-01-01T01:00:00Z</time>
      </trkpt>
      <trkpt lat="60.481662" lon="22.262809">
        <ele>24</ele>
        <time>1970-01-01T01:00:00Z</time>
      </trkpt>
      <trkpt lat="60.481707" lon="22.262946">
        <ele>24</ele>
        <time>1970-01-01T01:00:00Z</time>
      </trkpt>
      <trkpt lat="60.481911" lon="22.26321">
        <ele>24</ele>
        <time>1970-01-01T01:00:00Z</time>
      </trkpt>
      <trkpt lat="60.482062" lon="22.263374">
        <ele>24</ele>
        <time>1970-01-01T01:00:00Z</time>
      </trkpt>
      <trkpt lat="60.482156" lon="22.263484">
        <ele>24</ele>
        <time>1970-01-01T01:00:00Z</time>
      </trkpt>
      <trkpt lat="60.482276" lon="22.263587">
        <ele>24</ele>
        <time>1970-01-01T01:00:00Z</time>
      </trkpt>
      <trkpt lat="60.48234" lon="22.263644">
        <ele>24</ele>
        <time>1970-01-01T01:00:00Z</time>
      </trkpt>
      <trkpt lat="60.48249" lon="22.263692">
        <ele>24</ele>
        <time>1970-01-01T01:00:00Z</time>
      </trkpt>
      <trkpt lat="60.482615" lon="22.263668">
        <ele>24.3636</ele>
        <time>1970-01-01T01:00:00Z</time>
      </trkpt>
      <trkpt lat="60.48289" lon="22.263478">
        <ele>24.7273</ele>
        <time>1970-01-01T01:00:00Z</time>
      </trkpt>
      <trkpt lat="60.482933" lon="22.263443">
        <ele>25.0909</ele>
        <time>1970-01-01T01:00:00Z</time>
      </trkpt>
      <trkpt lat="60.483088" lon="22.263316">
        <ele>25.4545</ele>
        <time>1970-01-01T01:00:00Z</time>
      </trkpt>
      <trkpt lat="60.483229" lon="22.263253">
        <ele>25.8182</ele>
        <time>1970-01-01T01:00:00Z</time>
      </trkpt>
      <trkpt lat="60.483357" lon="22.263198">
        <ele>26.1818</ele>
        <time>1970-01-01T01:00:00Z</time>
      </trkpt>
      <trkpt lat="60.483555" lon="22.263092">
        <ele>26.5455</ele>
        <time>1970-01-01T01:00:00Z</time>
      </trkpt>
      <trkpt lat="60.483658" lon="22.263055">
        <ele>26.9091</ele>
        <time>1970-01-01T01:00:00Z</time>
      </trkpt>
      <trkpt lat="60.483771" lon="22.263001">
        <ele>27.2727</ele>
        <time>1970-01-01T01:00:00Z</time>
      </trkpt>
      <trkpt lat="60.48385" lon="22.262961">
        <ele>27.6364</ele>
        <time>1970-01-01T01:00:00Z</time>
      </trkpt>
      <trkpt lat="60.483959" lon="22.262926">
        <ele>28</ele>
        <time>1970-01-01T01:00:00Z</time>
      </trkpt>
      <trkpt lat="60.484119" lon="22.262905">
        <ele>28</ele>
        <time>1970-01-01T01:00:00Z</time>
      </trkpt>
      <trkpt lat="60.484225" lon="22.262884">
        <ele>28</ele>
        <time>1970-01-01T01:00:00Z</time>
      </trkpt>
      <trkpt lat="60.484321" lon="22.262841">
        <ele>28</ele>
        <time>1970-01-01T01:00:00Z</time>
      </trkpt>
      <trkpt lat="60.484428" lon="22.262793">
        <ele>28</ele>
        <time>1970-01-01T01:00:00Z</time>
      </trkpt>
      <trkpt lat="60.484583" lon="22.26277">
        <ele>28</ele>
        <time>1970-01-01T01:00:00Z</time>
      </trkpt>
      <trkpt lat="60.484719" lon="22.262752">
        <ele>28</ele>
        <time>1970-01-01T01:00:00Z</time>
      </trkpt>
      <trkpt lat="60.484879" lon="22.2627">
        <ele>28</ele>
        <time>1970-01-01T01:00:00Z</time>
      </trkpt>
      <trkpt lat="60.485025" lon="22.26259">
        <ele>28</ele>
        <time>1970-01-01T01:00:00Z</time>
      </trkpt>
      <trkpt lat="60.48511" lon="22.262517">
        <ele>28</ele>
        <time>1970-01-01T01:00:00Z</time>
      </trkpt>
      <trkpt lat="60.485218" lon="22.262359">
        <ele>28</ele>
        <time>1970-01-01T01:00:00Z</time>
      </trkpt>
      <trkpt lat="60.485305" lon="22.262147">
        <ele>28</ele>
        <time>1970-01-01T01:00:00Z</time>
      </trkpt>
      <trkpt lat="60.485359" lon="22.2619">
        <ele>28</ele>
        <time>1970-01-01T01:00:00Z</time>
      </trkpt>
      <trkpt lat="60.485356" lon="22.261639">
        <ele>28</ele>
        <time>1970-01-01T01:00:00Z</time>
      </trkpt>
      <trkpt lat="60.485324" lon="22.261301">
        <ele>28</ele>
        <time>1970-01-01T01:00:00Z</time>
      </trkpt>
      <trkpt lat="60.485276" lon="22.261042">
        <ele>28</ele>
        <time>1970-01-01T01:00:00Z</time>
      </trkpt>
      <trkpt lat="60.485251" lon="22.260827">
        <ele>28</ele>
        <time>1970-01-01T01:00:00Z</time>
      </trkpt>
      <trkpt lat="60.485231" lon="22.260729">
        <ele>28</ele>
        <time>1970-01-01T01:00:00Z</time>
      </trkpt>
      <trkpt lat="60.48521" lon="22.260443">
        <ele>28</ele>
        <time>1970-01-01T01:00:00Z</time>
      </trkpt>
      <trkpt lat="60.485181" lon="22.260051">
        <ele>28</ele>
        <time>1970-01-01T01:00:00Z</time>
      </trkpt>
      <trkpt lat="60.485149" lon="22.259774">
        <ele>28</ele>
        <time>1970-01-01T01:00:00Z</time>
      </trkpt>
      <trkpt lat="60.485138" lon="22.259533">
        <ele>28.4545</ele>
        <time>1970-01-01T01:00:00Z</time>
      </trkpt>
      <trkpt lat="60.485124" lon="22.259282">
        <ele>28.9091</ele>
        <time>1970-01-01T01:00:00Z</time>
      </trkpt>
      <trkpt lat="60.485122" lon="22.258984">
        <ele>29.3636</ele>
        <time>1970-01-01T01:00:00Z</time>
      </trkpt>
      <trkpt lat="60.485106" lon="22.258874">
        <ele>29.8182</ele>
        <time>1970-01-01T01:00:00Z</time>
      </trkpt>
      <trkpt lat="60.485062" lon="22.258598">
        <ele>30.2727</ele>
        <time>1970-01-01T01:00:00Z</time>
      </trkpt>
      <trkpt lat="60.485042" lon="22.258356">
        <ele>30.7273</ele>
        <time>1970-01-01T01:00:00Z</time>
      </trkpt>
      <trkpt lat="60.485032" lon="22.258226">
        <ele>31.1818</ele>
        <time>1970-01-01T01:00:00Z</time>
      </trkpt>
      <trkpt lat="60.484987" lon="22.258009">
        <ele>31.6364</ele>
        <time>1970-01-01T01:00:00Z</time>
      </trkpt>
      <trkpt lat="60.484957" lon="22.257696">
        <ele>32.0909</ele>
        <time>1970-01-01T01:00:00Z</time>
      </trkpt>
      <trkpt lat="60.484899" lon="22.257339">
        <ele>32.5455</ele>
        <time>1970-01-01T01:00:00Z</time>
      </trkpt>
      <trkpt lat="60.484857" lon="22.257151">
        <ele>33</ele>
        <time>1970-01-01T01:00:00Z</time>
      </trkpt>
      <trkpt lat="60.484732" lon="22.256651">
        <ele>33</ele>
        <time>1970-01-01T01:00:00Z</time>
      </trkpt>
      <trkpt lat="60.484633" lon="22.256335">
        <ele>33</ele>
        <time>1970-01-01T01:00:00Z</time>
      </trkpt>
      <trkpt lat="60.484419" lon="22.255868">
        <ele>33</ele>
        <time>1970-01-01T01:00:00Z</time>
      </trkpt>
      <trkpt lat="60.484275" lon="22.255629">
        <ele>33</ele>
        <time>1970-01-01T01:00:00Z</time>
      </trkpt>
      <trkpt lat="60.484049" lon="22.255299">
        <ele>33</ele>
        <time>1970-01-01T01:00:00Z</time>
      </trkpt>
      <trkpt lat="60.483922" lon="22.255002">
        <ele>33</ele>
        <time>1970-01-01T01:00:00Z</time>
      </trkpt>
      <trkpt lat="60.483883" lon="22.254795">
        <ele>33</ele>
        <time>1970-01-01T01:00:00Z</time>
      </trkpt>
      <trkpt lat="60.483868" lon="22.254615">
        <ele>33</ele>
        <time>1970-01-01T01:00:00Z</time>
      </trkpt>
      <trkpt lat="60.483805" lon="22.254313">
        <ele>32.2727</ele>
        <time>1970-01-01T01:00:00Z</time>
      </trkpt>
      <trkpt lat="60.483641" lon="22.254091">
        <ele>31.5455</ele>
        <time>1970-01-01T01:00:00Z</time>
      </trkpt>
      <trkpt lat="60.483573" lon="22.254143">
        <ele>30.8182</ele>
        <time>1970-01-01T01:00:00Z</time>
      </trkpt>
      <trkpt lat="60.483516" lon="22.254214">
        <ele>30.0909</ele>
        <time>1970-01-01T01:00:00Z</time>
      </trkpt>
      <trkpt lat="60.483358" lon="22.254386">
        <ele>29.3636</ele>
        <time>1970-01-01T01:00:00Z</time>
      </trkpt>
      <trkpt lat="60.483141" lon="22.254508">
        <ele>28.6364</ele>
        <time>1970-01-01T01:00:00Z</time>
      </trkpt>
      <trkpt lat="60.482985" lon="22.254556">
        <ele>27.9091</ele>
        <time>1970-01-01T01:00:00Z</time>
      </trkpt>
      <trkpt lat="60.482953" lon="22.254564">
        <ele>27.1818</ele>
        <time>1970-01-01T01:00:00Z</time>
      </trkpt>
      <trkpt lat="60.482801" lon="22.254574">
        <ele>26.4545</ele>
        <time>1970-01-01T01:00:00Z</time>
      </trkpt>
      <trkpt lat="60.482698" lon="22.254598">
        <ele>25.7273</ele>
        <time>1970-01-01T01:00:00Z</time>
      </trkpt>
      <trkpt lat="60.482575" lon="22.254609">
        <ele>25</ele>
        <time>1970-01-01T01:00:00Z</time>
      </trkpt>
      <trkpt lat="60.482413" lon="22.254648">
        <ele>25</ele>
        <time>1970-01-01T01:00:00Z</time>
      </trkpt>
      <trkpt lat="60.482306" lon="22.254671">
        <ele>25</ele>
        <time>1970-01-01T01:00:00Z</time>
      </trkpt>
      <trkpt lat="60.482197" lon="22.254685">
        <ele>25</ele>
        <time>1970-01-01T01:00:00Z</time>
      </trkpt>
      <trkpt lat="60.482079" lon="22.254703">
        <ele>25</ele>
        <time>1970-01-01T01:00:00Z</time>
      </trkpt>
      <trkpt lat="60.482032" lon="22.25468">
        <ele>25</ele>
        <time>1970-01-01T01:00:00Z</time>
      </trkpt>
      <trkpt lat="60.4819" lon="22.254557">
        <ele>25</ele>
        <time>1970-01-01T01:00:00Z</time>
      </trkpt>
      <trkpt lat="60.48179" lon="22.254458">
        <ele>25</ele>
        <time>1970-01-01T01:00:00Z</time>
      </trkpt>
      <trkpt lat="60.481468" lon="22.253936">
        <ele>25</ele>
        <time>1970-01-01T01:00:00Z</time>
      </trkpt>
      <trkpt lat="60.481446" lon="22.253505">
        <ele>25</ele>
        <time>1970-01-01T01:00:00Z</time>
      </trkpt>
      <trkpt lat="60.481508" lon="22.253242">
        <ele>25</ele>
        <time>1970-01-01T01:00:00Z</time>
      </trkpt>
      <trkpt lat="60.481497" lon="22.253027">
        <ele>25</ele>
        <time>1970-01-01T01:00:00Z</time>
      </trkpt>
      <trkpt lat="60.481608" lon="22.252848">
        <ele>25</ele>
        <time>1970-01-01T01:00:00Z</time>
      </trkpt>
      <trkpt lat="60.48176" lon="22.252494">
        <ele>25</ele>
        <time>1970-01-01T01:00:00Z</time>
      </trkpt>
      <trkpt lat="60.481926" lon="22.252395">
        <ele>25</ele>
        <time>1970-01-01T01:00:00Z</time>
      </trkpt>
      <trkpt lat="60.482021" lon="22.252392">
        <ele>25</ele>
        <time>1970-01-01T01:00:00Z</time>
      </trkpt>
      <trkpt lat="60.48211" lon="22.252357">
        <ele>25</ele>
        <time>1970-01-01T01:00:00Z</time>
      </trkpt>
      <trkpt lat="60.482296" lon="22.252196">
        <ele>25</ele>
        <time>1970-01-01T01:00:00Z</time>
      </trkpt>
      <trkpt lat="60.482335" lon="22.252144">
        <ele>25</ele>
        <time>1970-01-01T01:00:00Z</time>
      </trkpt>
      <trkpt lat="60.482478" lon="22.251983">
        <ele>25</ele>
        <time>1970-01-01T01:00:00Z</time>
      </trkpt>
      <trkpt lat="60.48262" lon="22.251983">
        <ele>25</ele>
        <time>1970-01-01T01:00:00Z</time>
      </trkpt>
      <trkpt lat="60.482699" lon="22.252128">
        <ele>25</ele>
        <time>1970-01-01T01:00:00Z</time>
      </trkpt>
      <trkpt lat="60.482783" lon="22.252354">
        <ele>25</ele>
        <time>1970-01-01T01:00:00Z</time>
      </trkpt>
      <trkpt lat="60.482859" lon="22.252558">
        <ele>25.7273</ele>
        <time>1970-01-01T01:00:00Z</time>
      </trkpt>
      <trkpt lat="60.482991" lon="22.252701">
        <ele>26.4545</ele>
        <time>1970-01-01T01:00:00Z</time>
      </trkpt>
      <trkpt lat="60.483112" lon="22.25268">
        <ele>27.1818</ele>
        <time>1970-01-01T01:00:00Z</time>
      </trkpt>
      <trkpt lat="60.483196" lon="22.252607">
        <ele>27.9091</ele>
        <time>1970-01-01T01:00:00Z</time>
      </trkpt>
      <trkpt lat="60.483284" lon="22.252522">
        <ele>28.6364</ele>
        <time>1970-01-01T01:00:00Z</time>
      </trkpt>
      <trkpt lat="60.483408" lon="22.252383">
        <ele>28.6364</ele>
        <time>1970-01-01T01:00:00Z</time>
      </trkpt>
      <trkpt lat="60.483567" lon="22.252174">
        <ele>28.6364</ele>
        <time>1970-01-01T01:00:00Z</time>
      </trkpt>
      <trkpt lat="60.48362" lon="22.25194">
        <ele>28.6364</ele>
        <time>1970-01-01T01:00:00Z</time>
      </trkpt>
      <trkpt lat="60.483589" lon="22.251668">
        <ele>28.6364</ele>
        <time>1970-01-01T01:00:00Z</time>
      </trkpt>
      <trkpt lat="60.483465" lon="22.251382">
        <ele>28.6364</ele>
        <time>1970-01-01T01:00:00Z</time>
      </trkpt>
      <trkpt lat="60.483336" lon="22.251263">
        <ele>28.6364</ele>
        <time>1970-01-01T01:00:00Z</time>
      </trkpt>
      <trkpt lat="60.483196" lon="22.251304">
        <ele>27.9091</ele>
        <time>1970-01-01T01:00:00Z</time>
      </trkpt>
      <trkpt lat="60.483079" lon="22.251467">
        <ele>27.1818</ele>
        <time>1970-01-01T01:00:00Z</time>
      </trkpt>
      <trkpt lat="60.482958" lon="22.251656">
        <ele>26.4545</ele>
        <time>1970-01-01T01:00:00Z</time>
      </trkpt>
      <trkpt lat="60.482837" lon="22.251797">
        <ele>25.7273</ele>
        <time>1970-01-01T01:00:00Z</time>
      </trkpt>
      <trkpt lat="60.482692" lon="22.251958">
        <ele>25</ele>
        <time>1970-01-01T01:00:00Z</time>
      </trkpt>
      <trkpt lat="60.482591" lon="22.251972">
        <ele>25</ele>
        <time>1970-01-01T01:00:00Z</time>
      </trkpt>
      <trkpt lat="60.482528" lon="22.251958">
        <ele>25</ele>
        <time>1970-01-01T01:00:00Z</time>
      </trkpt>
      <trkpt lat="60.482391" lon="22.252089">
        <ele>25</ele>
        <time>1970-01-01T01:00:00Z</time>
      </trkpt>
      <trkpt lat="60.482248" lon="22.252297">
        <ele>25</ele>
        <time>1970-01-01T01:00:00Z</time>
      </trkpt>
      <trkpt lat="60.48211" lon="22.252269">
        <ele>25</ele>
        <time>1970-01-01T01:00:00Z</time>
      </trkpt>
      <trkpt lat="60.482088" lon="22.25222">
        <ele>25</ele>
        <time>1970-01-01T01:00:00Z</time>
      </trkpt>
      <trkpt lat="60.481922" lon="22.251858">
        <ele>25</ele>
        <time>1970-01-01T01:00:00Z</time>
      </trkpt>
      <trkpt lat="60.48186" lon="22.251602">
        <ele>25</ele>
        <time>1970-01-01T01:00:00Z</time>
      </trkpt>
      <trkpt lat="60.481818" lon="22.251448">
        <ele>25</ele>
        <time>1970-01-01T01:00:00Z</time>
      </trkpt>
      <trkpt lat="60.481675" lon="22.25136">
        <ele>25</ele>
        <time>1970-01-01T01:00:00Z</time>
      </trkpt>
      <trkpt lat="60.481587" lon="22.251433">
        <ele>25</ele>
        <time>1970-01-01T01:00:00Z</time>
      </trkpt>
      <trkpt lat="60.481344" lon="22.251733">
        <ele>25</ele>
        <time>1970-01-01T01:00:00Z</time>
      </trkpt>
      <trkpt lat="60.481193" lon="22.25184">
        <ele>25</ele>
        <time>1970-01-01T01:00:00Z</time>
      </trkpt>
      <trkpt lat="60.481005" lon="22.251978">
        <ele>25</ele>
        <time>1970-01-01T01:00:00Z</time>
      </trkpt>
      <trkpt lat="60.480849" lon="22.252099">
        <ele>25</ele>
        <time>1970-01-01T01:00:00Z</time>
      </trkpt>
      <trkpt lat="60.480652" lon="22.252282">
        <ele>25</ele>
        <time>1970-01-01T01:00:00Z</time>
      </trkpt>
      <trkpt lat="60.48056" lon="22.252354">
        <ele>25</ele>
        <time>1970-01-01T01:00:00Z</time>
      </trkpt>
      <trkpt lat="60.480415" lon="22.252498">
        <ele>25</ele>
        <time>1970-01-01T01:00:00Z</time>
      </trkpt>
      <trkpt lat="60.480326" lon="22.252624">
        <ele>25</ele>
        <time>1970-01-01T01:00:00Z</time>
      </trkpt>
      <trkpt lat="60.480137" lon="22.252834">
        <ele>25</ele>
        <time>1970-01-01T01:00:00Z</time>
      </trkpt>
      <trkpt lat="60.480017" lon="22.253018">
        <ele>25</ele>
        <time>1970-01-01T01:00:00Z</time>
      </trkpt>
      <trkpt lat="60.47999" lon="22.253236">
        <ele>25</ele>
        <time>1970-01-01T01:00:00Z</time>
      </trkpt>
      <trkpt lat="60.480035" lon="22.253431">
        <ele>25</ele>
        <time>1970-01-01T01:00:00Z</time>
      </trkpt>
      <trkpt lat="60.480208" lon="22.253602">
        <ele>25</ele>
        <time>1970-01-01T01:00:00Z</time>
      </trkpt>
      <trkpt lat="60.480309" lon="22.253564">
        <ele>25</ele>
        <time>1970-01-01T01:00:00Z</time>
      </trkpt>
      <trkpt lat="60.48038" lon="22.253486">
        <ele>25</ele>
        <time>1970-01-01T01:00:00Z</time>
      </trkpt>
      <trkpt lat="60.480517" lon="22.253342">
        <ele>25</ele>
        <time>1970-01-01T01:00:00Z</time>
      </trkpt>
      <trkpt lat="60.480634" lon="22.253276">
        <ele>25</ele>
        <time>1970-01-01T01:00:00Z</time>
      </trkpt>
      <trkpt lat="60.480766" lon="22.253314">
        <ele>25</ele>
        <time>1970-01-01T01:00:00Z</time>
      </trkpt>
      <trkpt lat="60.48086" lon="22.253427">
        <ele>25</ele>
        <time>1970-01-01T01:00:00Z</time>
      </trkpt>
      <trkpt lat="60.480953" lon="22.25351">
        <ele>25</ele>
        <time>1970-01-01T01:00:00Z</time>
      </trkpt>
      <trkpt lat="60.481028" lon="22.253584">
        <ele>25</ele>
        <time>1970-01-01T01:00:00Z</time>
      </trkpt>
      <trkpt lat="60.481104" lon="22.253682">
        <ele>25</ele>
        <time>1970-01-01T01:00:00Z</time>
      </trkpt>
      <trkpt lat="60.481175" lon="22.253756">
        <ele>25</ele>
        <time>1970-01-01T01:00:00Z</time>
      </trkpt>
      <trkpt lat="60.481271" lon="22.25392">
        <ele>25</ele>
        <time>1970-01-01T01:00:00Z</time>
      </trkpt>
      <trkpt lat="60.481363" lon="22.254055">
        <ele>25</ele>
        <time>1970-01-01T01:00:00Z</time>
      </trkpt>
      <trkpt lat="60.481421" lon="22.25419">
        <ele>25</ele>
        <time>1970-01-01T01:00:00Z</time>
      </trkpt>
      <trkpt lat="60.481432" lon="22.254355">
        <ele>25</ele>
        <time>1970-01-01T01:00:00Z</time>
      </trkpt>
      <trkpt lat="60.481494" lon="22.254617">
        <ele>25</ele>
        <time>1970-01-01T01:00:00Z</time>
      </trkpt>
      <trkpt lat="60.481406" lon="22.254707">
        <ele>25</ele>
        <time>1970-01-01T01:00:00Z</time>
      </trkpt>
      <trkpt lat="60.481238" lon="22.254838">
        <ele>25</ele>
        <time>1970-01-01T01:00:00Z</time>
      </trkpt>
      <trkpt lat="60.481207" lon="22.254896">
        <ele>25</ele>
        <time>1970-01-01T01:00:00Z</time>
      </trkpt>
      <trkpt lat="60.481072" lon="22.255127">
        <ele>25</ele>
        <time>1970-01-01T01:00:00Z</time>
      </trkpt>
      <trkpt lat="60.480933" lon="22.255251">
        <ele>25</ele>
        <time>1970-01-01T01:00:00Z</time>
      </trkpt>
      <trkpt lat="60.480907" lon="22.255261">
        <ele>25</ele>
        <time>1970-01-01T01:00:00Z</time>
      </trkpt>
      <trkpt lat="60.480825" lon="22.255391">
        <ele>25</ele>
        <time>1970-01-01T01:00:00Z</time>
      </trkpt>
      <trkpt lat="60.480784" lon="22.255504">
        <ele>25</ele>
        <time>1970-01-01T01:00:00Z</time>
      </trkpt>
      <trkpt lat="60.480769" lon="22.255633">
        <ele>25</ele>
        <time>1970-01-01T01:00:00Z</time>
      </trkpt>
      <trkpt lat="60.48078" lon="22.255842">
        <ele>25</ele>
        <time>1970-01-01T01:00:00Z</time>
      </trkpt>
      <trkpt lat="60.48083" lon="22.25604">
        <ele>25</ele>
        <time>1970-01-01T01:00:00Z</time>
      </trkpt>
      <trkpt lat="60.480879" lon="22.256104">
        <ele>25</ele>
        <time>1970-01-01T01:00:00Z</time>
      </trkpt>
      <trkpt lat="60.480913" lon="22.256147">
        <ele>25</ele>
        <time>1970-01-01T01:00:00Z</time>
      </trkpt>
      <trkpt lat="60.481048" lon="22.256248">
        <ele>25</ele>
        <time>1970-01-01T01:00:00Z</time>
      </trkpt>
      <trkpt lat="60.48111" lon="22.256384">
        <ele>25</ele>
        <time>1970-01-01T01:00:00Z</time>
      </trkpt>
      <trkpt lat="60.481172" lon="22.256509">
        <ele>25</ele>
        <time>1970-01-01T01:00:00Z</time>
      </trkpt>
      <trkpt lat="60.481224" lon="22.256698">
        <ele>25</ele>
        <time>1970-01-01T01:00:00Z</time>
      </trkpt>
      <trkpt lat="60.481274" lon="22.256842">
        <ele>25</ele>
        <time>1970-01-01T01:00:00Z</time>
      </trkpt>
      <trkpt lat="60.48128" lon="22.257122">
        <ele>24.9091</ele>
        <time>1970-01-01T01:00:00Z</time>
      </trkpt>
      <trkpt lat="60.481294" lon="22.257304">
        <ele>24.8182</ele>
        <time>1970-01-01T01:00:00Z</time>
      </trkpt>
      <trkpt lat="60.481261" lon="22.2576">
        <ele>24.7273</ele>
        <time>1970-01-01T01:00:00Z</time>
      </trkpt>
      <trkpt lat="60.481217" lon="22.257756">
        <ele>24.6364</ele>
        <time>1970-01-01T01:00:00Z</time>
      </trkpt>
      <trkpt lat="60.481159" lon="22.25816">
        <ele>24.5455</ele>
        <time>1970-01-01T01:00:00Z</time>
      </trkpt>
      <trkpt lat="60.481149" lon="22.258598">
        <ele>24.4545</ele>
        <time>1970-01-01T01:00:00Z</time>
      </trkpt>
      <trkpt lat="60.481175" lon="22.259381">
        <ele>24.3636</ele>
        <time>1970-01-01T01:00:00Z</time>
      </trkpt>
      <trkpt lat="60.481205" lon="22.259712">
        <ele>24.2727</ele>
        <time>1970-01-01T01:00:00Z</time>
      </trkpt>
      <trkpt lat="60.481251" lon="22.260087">
        <ele>24.1818</ele>
        <time>1970-01-01T01:00:00Z</time>
      </trkpt>
      <trkpt lat="60.48131" lon="22.260545">
        <ele>24.0909</ele>
        <time>1970-01-01T01:00:00Z</time>
      </trkpt>
      <trkpt lat="60.481385" lon="22.261027">
        <ele>24</ele>
        <time>1970-01-01T01:00:00Z</time>
      </trkpt>
      <trkpt lat="60.481424" lon="22.261291">
        <ele>24</ele>
        <time>1970-01-01T01:00:00Z</time>
      </trkpt>
      <trkpt lat="60.481461" lon="22.261549">
        <ele>24</ele>
        <time>1970-01-01T01:00:00Z</time>
      </trkpt>
      <trkpt lat="60.481651" lon="22.261995">
        <ele>24</ele>
        <time>1970-01-01T01:00:00Z</time>
      </trkpt>
      <trkpt lat="60.481759" lon="22.262451">
        <ele>24</ele>
        <time>1970-01-01T01:00:00Z</time>
      </trkpt>
      <trkpt lat="60.481812" lon="22.262739">
        <ele>24</ele>
        <time>1970-01-01T01:00:00Z</time>
      </trkpt>
      <trkpt lat="60.481906" lon="22.263013">
        <ele>24</ele>
        <time>1970-01-01T01:00:00Z</time>
      </trkpt>
      <trkpt lat="60.481964" lon="22.263111">
        <ele>24</ele>
        <time>1970-01-01T01:00:00Z</time>
      </trkpt>
      <trkpt lat="60.48211" lon="22.26329">
        <ele>24</ele>
        <time>1970-01-01T01:00:00Z</time>
      </trkpt>
      <trkpt lat="60.482249" lon="22.263468">
        <ele>24</ele>
        <time>1970-01-01T01:00:00Z</time>
      </trkpt>
      <trkpt lat="60.482473" lon="22.263617">
        <ele>24</ele>
        <time>1970-01-01T01:00:00Z</time>
      </trkpt>
      <trkpt lat="60.48266" lon="22.263655">
        <ele>24</ele>
        <time>1970-01-01T01:00:00Z</time>
      </trkpt>
      <trkpt lat="60.482732" lon="22.263682">
        <ele>24.3636</ele>
        <time>1970-01-01T01:00:00Z</time>
      </trkpt>
      <trkpt lat="60.482896" lon="22.263675">
        <ele>24.7273</ele>
        <time>1970-01-01T01:00:00Z</time>
      </trkpt>
      <trkpt lat="60.48305" lon="22.263546">
        <ele>25.0909</ele>
        <time>1970-01-01T01:00:00Z</time>
      </trkpt>
      <trkpt lat="60.483137" lon="22.263392">
        <ele>25.4545</ele>
        <time>1970-01-01T01:00:00Z</time>
      </trkpt>
      <trkpt lat="60.483275" lon="22.263277">
        <ele>25.8182</ele>
        <time>1970-01-01T01:00:00Z</time>
      </trkpt>
      <trkpt lat="60.483442" lon="22.263157">
        <ele>26.1818</ele>
        <time>1970-01-01T01:00:00Z</time>
      </trkpt>
      <trkpt lat="60.48361" lon="22.263064">
        <ele>26.5455</ele>
        <time>1970-01-01T01:00:00Z</time>
      </trkpt>
      <trkpt lat="60.483758" lon="22.263">
        <ele>26.9091</ele>
        <time>1970-01-01T01:00:00Z</time>
      </trkpt>
      <trkpt lat="60.483884" lon="22.262924">
        <ele>27.2727</ele>
        <time>1970-01-01T01:00:00Z</time>
      </trkpt>
      <trkpt lat="60.483977" lon="22.262883">
        <ele>27.6364</ele>
        <time>1970-01-01T01:00:00Z</time>
      </trkpt>
      <trkpt lat="60.483994" lon="22.262878">
        <ele>28</ele>
        <time>1970-01-01T01:00:00Z</time>
      </trkpt>
      <trkpt lat="60.484083" lon="22.262862">
        <ele>28</ele>
        <time>1970-01-01T01:00:00Z</time>
      </trkpt>
      <trkpt lat="60.484224" lon="22.262805">
        <ele>28</ele>
        <time>1970-01-01T01:00:00Z</time>
      </trkpt>
      <trkpt lat="60.484315" lon="22.262778">
        <ele>28</ele>
        <time>1970-01-01T01:00:00Z</time>
      </trkpt>
      <trkpt lat="60.484445" lon="22.262754">
        <ele>28</ele>
        <time>1970-01-01T01:00:00Z</time>
      </trkpt>
      <trkpt lat="60.484505" lon="22.262736">
        <ele>28</ele>
        <time>1970-01-01T01:00:00Z</time>
      </trkpt>
      <trkpt lat="60.484687" lon="22.262777">
        <ele>28</ele>
        <time>1970-01-01T01:00:00Z</time>
      </trkpt>
      <trkpt lat="60.48488" lon="22.2628">
        <ele>28</ele>
        <time>1970-01-01T01:00:00Z</time>
      </trkpt>
      <trkpt lat="60.484965" lon="22.26276">
        <ele>28</ele>
        <time>1970-01-01T01:00:00Z</time>
      </trkpt>
      <trkpt lat="60.485087" lon="22.26266">
        <ele>28</ele>
        <time>1970-01-01T01:00:00Z</time>
      </trkpt>
      <trkpt lat="60.485218" lon="22.262552">
        <ele>28</ele>
        <time>1970-01-01T01:00:00Z</time>
      </trkpt>
      <trkpt lat="60.485369" lon="22.262363">
        <ele>28</ele>
        <time>1970-01-01T01:00:00Z</time>
      </trkpt>
      <trkpt lat="60.485415" lon="22.262073">
        <ele>28</ele>
        <time>1970-01-01T01:00:00Z</time>
      </trkpt>
      <trkpt lat="60.485385" lon="22.261772">
        <ele>28</ele>
        <time>1970-01-01T01:00:00Z</time>
      </trkpt>
      <trkpt lat="60.485356" lon="22.261502">
        <ele>28</ele>
        <time>1970-01-01T01:00:00Z</time>
      </trkpt>
      <trkpt lat="60.485306" lon="22.261208">
        <ele>28</ele>
        <time>1970-01-01T01:00:00Z</time>
      </trkpt>
      <trkpt lat="60.485272" lon="22.260891">
        <ele>28</ele>
        <time>1970-01-01T01:00:00Z</time>
      </trkpt>
      <trkpt lat="60.485226" lon="22.260731">
        <ele>28</ele>
        <time>1970-01-01T01:00:00Z</time>
      </trkpt>
      <trkpt lat="60.485154" lon="22.260489">
        <ele>28</ele>
        <time>1970-01-01T01:00:00Z</time>
      </trkpt>
      <trkpt lat="60.485137" lon="22.260283">
        <ele>28</ele>
        <time>1970-01-01T01:00:00Z</time>
      </trkpt>
      <trkpt lat="60.485096" lon="22.259961">
        <ele>28</ele>
        <time>1970-01-01T01:00:00Z</time>
      </trkpt>
      <trkpt lat="60.485054" lon="22.259636">
        <ele>28</ele>
        <time>1970-01-01T01:00:00Z</time>
      </trkpt>
      <trkpt lat="60.485051" lon="22.259584">
        <ele>28</ele>
        <time>1970-01-01T01:00:00Z</time>
      </trkpt>
      <trkpt lat="60.485043" lon="22.259387">
        <ele>28.4545</ele>
        <time>1970-01-01T01:00:00Z</time>
      </trkpt>
      <trkpt lat="60.485029" lon="22.259174">
        <ele>28.9091</ele>
        <time>1970-01-01T01:00:00Z</time>
      </trkpt>
      <trkpt lat="60.485018" lon="22.25896">
        <ele>29.3636</ele>
        <time>1970-01-01T01:00:00Z</time>
      </trkpt>
      <trkpt lat="60.485031" lon="22.25873">
        <ele>29.8182</ele>
        <time>1970-01-01T01:00:00Z</time>
      </trkpt>
      <trkpt lat="60.485026" lon="22.258507">
        <ele>30.2727</ele>
        <time>1970-01-01T01:00:00Z</time>
      </trkpt>
      <trkpt lat="60.484974" lon="22.258292">
        <ele>30.7273</ele>
        <time>1970-01-01T01:00:00Z</time>
      </trkpt>
      <trkpt lat="60.484932" lon="22.258213">
        <ele>31.1818</ele>
        <time>1970-01-01T01:00:00Z</time>
      </trkpt>
      <trkpt lat="60.484899" lon="22.258015">
        <ele>31.6364</ele>
        <time>1970-01-01T01:00:00Z</time>
      </trkpt>
      <trkpt lat="60.484868" lon="22.257806">
        <ele>32.0909</ele>
        <time>1970-01-01T01:00:00Z</time>
      </trkpt>
      <trkpt lat="60.484846" lon="22.257746">
        <ele>32.5455</ele>
        <time>1970-01-01T01:00:00Z</time>
      </trkpt>
      <trkpt lat="60.484766" lon="22.257522">
        <ele>33</ele>
        <time>1970-01-01T01:00:00Z</time>
      </trkpt>
      <trkpt lat="60.484696" lon="22.257129">
        <ele>33</ele>
        <time>1970-01-01T01:00:00Z</time>
      </trkpt>
      <trkpt lat="60.484603" lon="22.256653">
        <ele>33</ele>
        <time>1970-01-01T01:00:00Z</time>
      </trkpt>
      <trkpt lat="60.484585" lon="22.25657">
        <ele>33</ele>
        <time>1970-01-01T01:00:00Z</time>
      </trkpt>
      <trkpt lat="60.48447" lon="22.256184">
        <ele>33</ele>
        <time>1970-01-01T01:00:00Z</time>
      </trkpt>
      <trkpt lat="60.484439" lon="22.256124">
        <ele>33</ele>
        <time>1970-01-01T01:00:00Z</time>
      </trkpt>
      <trkpt lat="60.484326" lon="22.2559">
        <ele>33</ele>
        <time>1970-01-01T01:00:00Z</time>
      </trkpt>
      <trkpt lat="60.484061" lon="22.255412">
        <ele>33</ele>
        <time>1970-01-01T01:00:00Z</time>
      </trkpt>
      <trkpt lat="60.483978" lon="22.255261">
        <ele>33</ele>
        <time>1970-01-01T01:00:00Z</time>
      </trkpt>
      <trkpt lat="60.48381" lon="22.254807">
        <ele>32.2727</ele>
        <time>1970-01-01T01:00:00Z</time>
      </trkpt>
      <trkpt lat="60.483741" lon="22.254373">
        <ele>31.5455</ele>
        <time>1970-01-01T01:00:00Z</time>
      </trkpt>
      <trkpt lat="60.48368" lon="22.253959">
        <ele>30.8182</ele>
        <time>1970-01-01T01:00:00Z</time>
      </trkpt>
      <trkpt lat="60.48359" lon="22.253938">
        <ele>30.0909</ele>
        <time>1970-01-01T01:00:00Z</time>
      </trkpt>
      <trkpt lat="60.483461" lon="22.254102">
        <ele>29.3636</ele>
        <time>1970-01-01T01:00:00Z</time>
      </trkpt>
      <trkpt lat="60.483335" lon="22.254291">
        <ele>28.6364</ele>
        <time>1970-01-01T01:00:00Z</time>
      </trkpt>
      <trkpt lat="60.483183" lon="22.254403">
        <ele>27.9091</ele>
        <time>1970-01-01T01:00:00Z</time>
      </trkpt>
      <trkpt lat="60.482983" lon="22.254505">
        <ele>27.1818</ele>
        <time>1970-01-01T01:00:00Z</time>
      </trkpt>
      <trkpt lat="60.482874" lon="22.254546">
        <ele>26.4545</ele>
        <time>1970-01-01T01:00:00Z</time>
      </trkpt>
      <trkpt lat="60.482747" lon="22.254588">
        <ele>25.7273</ele>
        <time>1970-01-01T01:00:00Z</time>
      </trkpt>
      <trkpt lat="60.482669" lon="22.25459">
        <ele>25</ele>
        <time>1970-01-01T01:00:00Z</time>
      </trkpt>
      <trkpt lat="60.482519" lon="22.254619">
        <ele>25</ele>
        <time>1970-01-01T01:00:00Z</time>
      </trkpt>
      <trkpt lat="60.482362" lon="22.254684">
        <ele>25</ele>
        <time>1970-01-01T01:00:00Z</time>
      </trkpt>
      <trkpt lat="60.482267" lon="22.254701">
        <ele>25</ele>
        <time>1970-01-01T01:00:00Z</time>
      </trkpt>
      <trkpt lat="60.482112" lon="22.254727">
        <ele>25</ele>
        <time>1970-01-01T01:00:00Z</time>
      </trkpt>
      <trkpt lat="60.481961" lon="22.254629">
        <ele>25</ele>
        <time>1970-01-01T01:00:00Z</time>
      </trkpt>
      <trkpt lat="60.481758" lon="22.254458">
        <ele>25</ele>
        <time>1970-01-01T01:00:00Z</time>
      </trkpt>
      <trkpt lat="60.481464" lon="22.253909">
        <ele>25</ele>
        <time>1970-01-01T01:00:00Z</time>
      </trkpt>
      <trkpt lat="60.481424" lon="22.253572">
        <ele>25</ele>
        <time>1970-01-01T01:00:00Z</time>
      </trkpt>
      <trkpt lat="60.481483" lon="22.253265">
        <ele>25</ele>
        <time>1970-01-01T01:00:00Z</time>
      </trkpt>
      <trkpt lat="60.481557" lon="22.253009">
        <ele>25</ele>
        <time>1970-01-01T01:00:00Z</time>
      </trkpt>
      <trkpt lat="60.481604" lon="22.25287">
        <ele>25</ele>
        <time>1970-01-01T01:00:00Z</time>
      </trkpt>
      <trkpt lat="60.481647" lon="22.252766">
        <ele>25</ele>
        <time>1970-01-01T01:00:00Z</time>
      </trkpt>
      <trkpt lat="60.481689" lon="22.252647">
        <ele>25</ele>
        <time>1970-01-01T01:00:00Z</time>
      </trkpt>
      <trkpt lat="60.481831" lon="22.252416">
        <ele>25</ele>
        <time>1970-01-01T01:00:00Z</time>
      </trkpt>
      <trkpt lat="60.481977" lon="22.252406">
        <ele>25</ele>
        <time>1970-01-01T01:00:00Z</time>
      </trkpt>
      <trkpt lat="60.482275" lon="22.252232">
        <ele>25</ele>
        <time>1970-01-01T01:00:00Z</time>
      </trkpt>
      <trkpt lat="60.4824" lon="22.252099">
        <ele>25</ele>
        <time>1970-01-01T01:00:00Z</time>
      </trkpt>
      <trkpt lat="60.48253" lon="22.251989">
        <ele>25</ele>
        <time>1970-01-01T01:00:00Z</time>
      </trkpt>
      <trkpt lat="60.48263" lon="22.252075">
        <ele>25</ele>
        <time>1970-01-01T01:00:00Z</time>
      </trkpt>
      <trkpt lat="60.482703" lon="22.2522">
        <ele>25</ele>
        <time>1970-01-01T01:00:00Z</time>
      </trkpt>
      <trkpt lat="60.482766" lon="22.252383">
        <ele>25</ele>
        <time>1970-01-01T01:00:00Z</time>
      </trkpt>
      <trkpt lat="60.482862" lon="22.252661">
        <ele>25.7273</ele>
        <time>1970-01-01T01:00:00Z</time>
      </trkpt>
      <trkpt lat="60.482963" lon="22.252766">
        <ele>26.4545</ele>
        <time>1970-01-01T01:00:00Z</time>
      </trkpt>
      <trkpt lat="60.483064" lon="22.252778">
        <ele>27.1818</ele>
        <time>1970-01-01T01:00:00Z</time>
      </trkpt>
      <trkpt lat="60.483152" lon="22.252663">
        <ele>27.9091</ele>
        <time>1970-01-01T01:00:00Z</time>
      </trkpt>
      <trkpt lat="60.483282" lon="22.252525">
        <ele>28.6364</ele>
        <time>1970-01-01T01:00:00Z</time>
      </trkpt>
      <trkpt lat="60.483411" lon="22.252387">
        <ele>29.3636</ele>
        <time>1970-01-01T01:00:00Z</time>
      </trkpt>
      <trkpt lat="60.483441" lon="22.252347">
        <ele>30.0909</ele>
        <time>1970-01-01T01:00:00Z</time>
      </trkpt>
      <trkpt lat="60.483536" lon="22.252166">
        <ele>30.0909</ele>
        <time>1970-01-01T01:00:00Z</time>
      </trkpt>
      <trkpt lat="60.483575" lon="22.251937">
        <ele>30.0909</ele>
        <time>1970-01-01T01:00:00Z</time>
      </trkpt>
      <trkpt lat="60.483553" lon="22.251647">
        <ele>30.0909</ele>
        <time>1970-01-01T01:00:00Z</time>
      </trkpt>
      <trkpt lat="60.483459" lon="22.251397">
        <ele>30.0909</ele>
        <time>1970-01-01T01:00:00Z</time>
      </trkpt>
      <trkpt lat="60.483382" lon="22.251262">
        <ele>29.3636</ele>
        <time>1970-01-01T01:00:00Z</time>
      </trkpt>
      <trkpt lat="60.483264" lon="22.251247">
        <ele>28.6364</ele>
        <time>1970-01-01T01:00:00Z</time>
      </trkpt>
      <trkpt lat="60.483138" lon="22.251324">
        <ele>27.9091</ele>
        <time>1970-01-01T01:00:00Z</time>
      </trkpt>
      <trkpt lat="60.482986" lon="22.25149">
        <ele>27.1818</ele>
        <time>1970-01-01T01:00:00Z</time>
      </trkpt>
      <trkpt lat="60.482848" lon="22.251726">
        <ele>26.4545</ele>
        <time>1970-01-01T01:00:00Z</time>
      </trkpt>
      <trkpt lat="60.482739" lon="22.251913">
        <ele>25.7273</ele>
        <time>1970-01-01T01:00:00Z</time>
      </trkpt>
      <trkpt lat="60.482711" lon="22.251962">
        <ele>25</ele>
        <time>1970-01-01T01:00:00Z</time>
      </trkpt>
      <trkpt lat="60.482597" lon="22.252013">
        <ele>25</ele>
        <time>1970-01-01T01:00:00Z</time>
      </trkpt>
      <trkpt lat="60.482534" lon="22.252023">
        <ele>25</ele>
        <time>1970-01-01T01:00:00Z</time>
      </trkpt>
      <trkpt lat="60.482374" lon="22.252103">
        <ele>25</ele>
        <time>1970-01-01T01:00:00Z</time>
      </trkpt>
      <trkpt lat="60.482219" lon="22.252228">
        <ele>25</ele>
        <time>1970-01-01T01:00:00Z</time>
      </trkpt>
      <trkpt lat="60.482092" lon="22.252121">
        <ele>25</ele>
        <time>1970-01-01T01:00:00Z</time>
      </trkpt>
      <trkpt lat="60.481989" lon="22.251911">
        <ele>25</ele>
        <time>1970-01-01T01:00:00Z</time>
      </trkpt>
      <trkpt lat="60.481863" lon="22.251555">
        <ele>25</ele>
        <time>1970-01-01T01:00:00Z</time>
      </trkpt>
      <trkpt lat="60.481701" lon="22.251279">
        <ele>25</ele>
        <time>1970-01-01T01:00:00Z</time>
      </trkpt>
      <trkpt lat="60.481572" lon="22.25139">
        <ele>25</ele>
        <time>1970-01-01T01:00:00Z</time>
      </trkpt>
      <trkpt lat="60.481498" lon="22.251484">
        <ele>25</ele>
        <time>1970-01-01T01:00:00Z</time>
      </trkpt>
      <trkpt lat="60.481255" lon="22.251769">
        <ele>25</ele>
        <time>1970-01-01T01:00:00Z</time>
      </trkpt>
      <trkpt lat="60.481168" lon="22.251851">
        <ele>25</ele>
        <time>1970-01-01T01:00:00Z</time>
      </trkpt>
      <trkpt lat="60.48103" lon="22.251989">
        <ele>25</ele>
        <time>1970-01-01T01:00:00Z</time>
      </trkpt>
      <trkpt lat="60.480928" lon="22.25204">
        <ele>25</ele>
        <time>1970-01-01T01:00:00Z</time>
      </trkpt>
      <trkpt lat="60.480725" lon="22.252226">
        <ele>25</ele>
        <time>1970-01-01T01:00:00Z</time>
      </trkpt>
      <trkpt lat="60.480512" lon="22.252424">
        <ele>25</ele>
        <time>1970-01-01T01:00:00Z</time>
      </trkpt>
      <trkpt lat="60.480353" lon="22.252561">
        <ele>25</ele>
        <time>1970-01-01T01:00:00Z</time>
      </trkpt>
      <trkpt lat="60.480202" lon="22.252703">
        <ele>25</ele>
        <time>1970-01-01T01:00:00Z</time>
      </trkpt>
      <trkpt lat="60.480071" lon="22.252856">
        <ele>25</ele>
        <time>1970-01-01T01:00:00Z</time>
      </trkpt>
      <trkpt lat="60.479981" lon="22.253107">
        <ele>25</ele>
        <time>1970-01-01T01:00:00Z</time>
      </trkpt>
      <trkpt lat="60.480064" lon="22.253439">
        <ele>25</ele>
        <time>1970-01-01T01:00:00Z</time>
      </trkpt>
      <trkpt lat="60.480097" lon="22.253472">
        <ele>25</ele>
        <time>1970-01-01T01:00:00Z</time>
      </trkpt>
      <trkpt lat="60.480294" lon="22.253475">
        <ele>25</ele>
        <time>1970-01-01T01:00:00Z</time>
      </trkpt>
      <trkpt lat="60.480411" lon="22.253396">
        <ele>25</ele>
        <time>1970-01-01T01:00:00Z</time>
      </trkpt>
      <trkpt lat="60.480472" lon="22.253347">
        <ele>25</ele>
        <time>1970-01-01T01:00:00Z</time>
      </trkpt>
      <trkpt lat="60.480583" lon="22.253267">
        <ele>25</ele>
        <time>1970-01-01T01:00:00Z</time>
      </trkpt>
      <trkpt lat="60.480641" lon="22.253231">
        <ele>25</ele>
        <time>1970-01-01T01:00:00Z</time>
      </trkpt>
      <trkpt lat="60.480756" lon="22.253246">
        <ele>25</ele>
        <time>1970-01-01T01:00:00Z</time>
      </trkpt>
      <trkpt lat="60.480834" lon="22.253338">
        <ele>25</ele>
        <time>1970-01-01T01:00:00Z</time>
      </trkpt>
      <trkpt lat="60.480888" lon="22.253377">
        <ele>25</ele>
        <time>1970-01-01T01:00:00Z</time>
      </trkpt>
      <trkpt lat="60.480965" lon="22.253447">
        <ele>25</ele>
        <time>1970-01-01T01:00:00Z</time>
      </trkpt>
      <trkpt lat="60.48107" lon="22.253561">
        <ele>25</ele>
        <time>1970-01-01T01:00:00Z</time>
      </trkpt>
      <trkpt lat="60.481178" lon="22.253735">
        <ele>25</ele>
        <time>1970-01-01T01:00:00Z</time>
      </trkpt>
      <trkpt lat="60.481245" lon="22.25386">
        <ele>25</ele>
        <time>1970-01-01T01:00:00Z</time>
      </trkpt>
      <trkpt lat="60.48132" lon="22.25403">
        <ele>25</ele>
        <time>1970-01-01T01:00:00Z</time>
      </trkpt>
      <trkpt lat="60.481366" lon="22.254136">
        <ele>25</ele>
        <time>1970-01-01T01:00:00Z</time>
      </trkpt>
      <trkpt lat="60.481413" lon="22.254319">
        <ele>25</ele>
        <time>1970-01-01T01:00:00Z</time>
      </trkpt>
      <trkpt lat="60.481453" lon="22.25448">
        <ele>25</ele>
        <time>1970-01-01T01:00:00Z</time>
      </trkpt>
      <trkpt lat="60.481436" lon="22.254584">
        <ele>25</ele>
        <time>1970-01-01T01:00:00Z</time>
      </trkpt>
      <trkpt lat="60.481275" lon="22.254769">
        <ele>25</ele>
        <time>1970-01-01T01:00:00Z</time>
      </trkpt>
      <trkpt lat="60.481147" lon="22.254934">
        <ele>25</ele>
        <time>1970-01-01T01:00:00Z</time>
      </trkpt>
      <trkpt lat="60.481024" lon="22.25512">
        <ele>25</ele>
        <time>1970-01-01T01:00:00Z</time>
      </trkpt>
      <trkpt lat="60.480906" lon="22.255222">
        <ele>25</ele>
        <time>1970-01-01T01:00:00Z</time>
      </trkpt>
      <trkpt lat="60.480835" lon="22.255307">
        <ele>25</ele>
        <time>1970-01-01T01:00:00Z</time>
      </trkpt>
      <trkpt lat="60.480786" lon="22.255451">
        <ele>25</ele>
        <time>1970-01-01T01:00:00Z</time>
      </trkpt>
      <trkpt lat="60.480739" lon="22.255648">
        <ele>25</ele>
        <time>1970-01-01T01:00:00Z</time>
      </trkpt>
      <trkpt lat="60.48073" lon="22.255682">
        <ele>25</ele>
        <time>1970-01-01T01:00:00Z</time>
      </trkpt>
      <trkpt lat="60.480733" lon="22.255815">
        <ele>25</ele>
        <time>1970-01-01T01:00:00Z</time>
      </trkpt>
      <trkpt lat="60.480816" lon="22.256044">
        <ele>25</ele>
        <time>1970-01-01T01:00:00Z</time>
      </trkpt>
      <trkpt lat="60.480916" lon="22.256213">
        <ele>25</ele>
        <time>1970-01-01T01:00:00Z</time>
      </trkpt>
      <trkpt lat="60.480971" lon="22.256296">
        <ele>25</ele>
        <time>1970-01-01T01:00:00Z</time>
      </trkpt>
      <trkpt lat="60.481036" lon="22.256452">
        <ele>25</ele>
        <time>1970-01-01T01:00:00Z</time>
      </trkpt>
      <trkpt lat="60.481097" lon="22.256573">
        <ele>25</ele>
        <time>1970-01-01T01:00:00Z</time>
      </trkpt>
      <trkpt lat="60.481138" lon="22.256636">
        <ele>25</ele>
        <time>1970-01-01T01:00:00Z</time>
      </trkpt>
      <trkpt lat="60.48119" lon="22.256732">
        <ele>25</ele>
        <time>1970-01-01T01:00:00Z</time>
      </trkpt>
      <trkpt lat="60.481235" lon="22.256914">
        <ele>25</ele>
        <time>1970-01-01T01:00:00Z</time>
      </trkpt>
      <trkpt lat="60.481248" lon="22.257067">
        <ele>25</ele>
        <time>1970-01-01T01:00:00Z</time>
      </trkpt>
      <trkpt lat="60.481262" lon="22.257285">
        <ele>24.9091</ele>
        <time>1970-01-01T01:00:00Z</time>
      </trkpt>
      <trkpt lat="60.481233" lon="22.25758">
        <ele>24.8182</ele>
        <time>1970-01-01T01:00:00Z</time>
      </trkpt>
      <trkpt lat="60.481203" lon="22.257665">
        <ele>24.7273</ele>
        <time>1970-01-01T01:00:00Z</time>
      </trkpt>
      <trkpt lat="60.48117" lon="22.257927">
        <ele>24.6364</ele>
        <time>1970-01-01T01:00:00Z</time>
      </trkpt>
      <trkpt lat="60.481135" lon="22.258285">
        <ele>24.5455</ele>
        <time>1970-01-01T01:00:00Z</time>
      </trkpt>
      <trkpt lat="60.481132" lon="22.258515">
        <ele>24.4545</ele>
        <time>1970-01-01T01:00:00Z</time>
      </trkpt>
      <trkpt lat="60.481177" lon="22.259303">
        <ele>24.3636</ele>
        <time>1970-01-01T01:00:00Z</time>
      </trkpt>
      <trkpt lat="60.481204" lon="22.259504">
        <ele>24.2727</ele>
        <time>1970-01-01T01:00:00Z</time>
      </trkpt>
      <trkpt lat="60.481218" lon="22.259714">
        <ele>24.1818</ele>
        <time>1970-01-01T01:00:00Z</time>
      </trkpt>
      <trkpt lat="60.481248" lon="22.26001">
        <ele>24.0909</ele>
        <time>1970-01-01T01:00:00Z</time>
      </trkpt>
      <trkpt lat="60.48127" lon="22.260168">
        <ele>24</ele>
        <time>1970-01-01T01:00:00Z</time>
      </trkpt>
      <trkpt lat="60.481331" lon="22.260553">
        <ele>24</ele>
        <time>1970-01-01T01:00:00Z</time>
      </trkpt>
      <trkpt lat="60.481378" lon="22.260857">
        <ele>24</ele>
        <time>1970-01-01T01:00:00Z</time>
      </trkpt>
      <trkpt lat="60.481394" lon="22.26095">
        <ele>24</ele>
        <time>1970-01-01T01:00:00Z</time>
      </trkpt>
      <trkpt lat="60.481419" lon="22.261136">
        <ele>24</ele>
        <time>1970-01-01T01:00:00Z</time>
      </trkpt>
      <trkpt lat="60.481475" lon="22.261444">
        <ele>24</ele>
        <time>1970-01-01T01:00:00Z</time>
      </trkpt>
      <trkpt lat="60.481506" lon="22.261645">
        <ele>24</ele>
        <time>1970-01-01T01:00:00Z</time>
      </trkpt>
      <trkpt lat="60.481595" lon="22.262175">
        <ele>24</ele>
        <time>1970-01-01T01:00:00Z</time>
      </trkpt>
      <trkpt lat="60.481719" lon="22.262514">
        <ele>24</ele>
        <time>1970-01-01T01:00:00Z</time>
      </trkpt>
      <trkpt lat="60.481746" lon="22.262588">
        <ele>24</ele>
        <time>1970-01-01T01:00:00Z</time>
      </trkpt>
      <trkpt lat="60.481796" lon="22.262733">
        <ele>24</ele>
        <time>1970-01-01T01:00:00Z</time>
      </trkpt>
      <trkpt lat="60.481921" lon="22.262982">
        <ele>24</ele>
        <time>1970-01-01T01:00:00Z</time>
      </trkpt>
      <trkpt lat="60.48217" lon="22.263216">
        <ele>24</ele>
        <time>1970-01-01T01:00:00Z</time>
      </trkpt>
      <trkpt lat="60.482383" lon="22.263448">
        <ele>24</ele>
        <time>1970-01-01T01:00:00Z</time>
      </trkpt>
      <trkpt lat="60.482549" lon="22.263559">
        <ele>24</ele>
        <time>1970-01-01T01:00:00Z</time>
      </trkpt>
      <trkpt lat="60.482742" lon="22.263595">
        <ele>24</ele>
        <time>1970-01-01T01:00:00Z</time>
      </trkpt>
      <trkpt lat="60.482885" lon="22.26355">
        <ele>24.3636</ele>
        <time>1970-01-01T01:00:00Z</time>
      </trkpt>
      <trkpt lat="60.483035" lon="22.263372">
        <ele>24.7273</ele>
        <time>1970-01-01T01:00:00Z</time>
      </trkpt>
      <trkpt lat="60.483125" lon="22.263234">
        <ele>25.0909</ele>
        <time>1970-01-01T01:00:00Z</time>
      </trkpt>
      <trkpt lat="60.483233" lon="22.263185">
        <ele>25.4545</ele>
        <time>1970-01-01T01:00:00Z</time>
      </trkpt>
      <trkpt lat="60.483286" lon="22.263167">
        <ele>25.8182</ele>
        <time>1970-01-01T01:00:00Z</time>
      </trkpt>
      <trkpt lat="60.483514" lon="22.26303">
        <ele>26.1818</ele>
        <time>1970-01-01T01:00:00Z</time>
      </trkpt>
      <trkpt lat="60.483638" lon="22.262991">
        <ele>26.5455</ele>
        <time>1970-01-01T01:00:00Z</time>
      </trkpt>
      <trkpt lat="60.483753" lon="22.262934">
        <ele>26.9091</ele>
        <time>1970-01-01T01:00:00Z</time>
      </trkpt>
      <trkpt lat="60.483914" lon="22.262901">
        <ele>27.2727</ele>
        <time>1970-01-01T01:00:00Z</time>
      </trkpt>
      <trkpt lat="60.48402" lon="22.262856">
        <ele>27.6364</ele>
        <time>1970-01-01T01:00:00Z</time>
      </trkpt>
      <trkpt lat="60.484138" lon="22.26284">
        <ele>28</ele>
        <time>1970-01-01T01:00:00Z</time>
      </trkpt>
      <trkpt lat="60.48425" lon="22.26282">
        <ele>28</ele>
        <time>1970-01-01T01:00:00Z</time>
      </trkpt>
      <trkpt lat="60.484359" lon="22.262781">
        <ele>28</ele>
        <time>1970-01-01T01:00:00Z</time>
      </trkpt>
      <trkpt lat="60.484474" lon="22.262745">
        <ele>28</ele>
        <time>1970-01-01T01:00:00Z</time>
      </trkpt>
      <trkpt lat="60.484661" lon="22.262762">
        <ele>28</ele>
        <time>1970-01-01T01:00:00Z</time>
      </trkpt>
      <trkpt lat="60.48481" lon="22.262781">
        <ele>28</ele>
        <time>1970-01-01T01:00:00Z</time>
      </trkpt>
      <trkpt lat="60.48493" lon="22.262729">
        <ele>28</ele>
        <time>1970-01-01T01:00:00Z</time>
      </trkpt>
      <trkpt lat="60.485071" lon="22.262651">
        <ele>28</ele>
        <time>1970-01-01T01:00:00Z</time>
      </trkpt>
      <trkpt lat="60.485162" lon="22.262577">
        <ele>28</ele>
        <time>1970-01-01T01:00:00Z</time>
      </trkpt>
      <trkpt lat="60.485216" lon="22.262509">
        <ele>28</ele>
        <time>1970-01-01T01:00:00Z</time>
      </trkpt>
      <trkpt lat="60.485322" lon="22.262262">
        <ele>28</ele>
        <time>1970-01-01T01:00:00Z</time>
      </trkpt>
      <trkpt lat="60.485345" lon="22.261977">
        <ele>28</ele>
        <time>1970-01-01T01:00:00Z</time>
      </trkpt>
      <trkpt lat="60.485302" lon="22.261684">
        <ele>28</ele>
        <time>1970-01-01T01:00:00Z</time>
      </trkpt>
      <trkpt lat="60.485257" lon="22.261373">
        <ele>28</ele>
        <time>1970-01-01T01:00:00Z</time>
      </trkpt>
      <trkpt lat="60.485226" lon="22.261103">
        <ele>28</ele>
        <time>1970-01-01T01:00:00Z</time>
      </trkpt>
      <trkpt lat="60.485202" lon="22.260962">
        <ele>28</ele>
        <time>1970-01-01T01:00:00Z</time>
      </trkpt>
      <trkpt lat="60.485177" lon="22.260743">
        <ele>28</ele>
        <time>1970-01-01T01:00:00Z</time>
      </trkpt>
      <trkpt lat="60.485156" lon="22.260498">
        <ele>28</ele>
        <time>1970-01-01T01:00:00Z</time>
      </trkpt>
      <trkpt lat="60.485116" lon="22.260227">
        <ele>28</ele>
        <time>1970-01-01T01:00:00Z</time>
      </trkpt>
      <trkpt lat="60.485045" lon="22.259733">
        <ele>28</ele>
        <time>1970-01-01T01:00:00Z</time>
      </trkpt>
      <trkpt lat="60.485017" lon="22.259483">
        <ele>28.4545</ele>
        <time>1970-01-01T01:00:00Z</time>
      </trkpt>
      <trkpt lat="60.484989" lon="22.259263">
        <ele>28.9091</ele>
        <time>1970-01-01T01:00:00Z</time>
      </trkpt>
      <trkpt lat="60.485" lon="22.259">
        <ele>29.3636</ele>
        <time>1970-01-01T01:00:00Z</time>
      </trkpt>
      <trkpt lat="60.484995" lon="22.25878">
        <ele>29.8182</ele>
        <time>1970-01-01T01:00:00Z</time>
      </trkpt>
      <trkpt lat="60.484989" lon="22.258552">
        <ele>30.2727</ele>
        <time>1970-01-01T01:00:00Z</time>
      </trkpt>
      <trkpt lat="60.48497" lon="22.258377">
        <ele>30.7273</ele>
        <time>1970-01-01T01:00:00Z</time>
      </trkpt>
      <trkpt lat="60.484931" lon="22.258159">
        <ele>31.1818</ele>
        <time>1970-01-01T01:00:00Z</time>
      </trkpt>
      <trkpt lat="60.48488" lon="22.257898">
        <ele>31.6364</ele>
        <time>1970-01-01T01:00:00Z</time>
      </trkpt>
      <trkpt lat="60.484793" lon="22.257634">
        <ele>32.0909</ele>
        <time>1970-01-01T01:00:00Z</time>
      </trkpt>
      <trkpt lat="60.484729" lon="22.257432">
        <ele>32.5455</ele>
        <time>1970-01-01T01:00:00Z</time>
      </trkpt>
      <trkpt lat="60.484713" lon="22.25733">
        <ele>33</ele>
        <time>1970-01-01T01:00:00Z</time>
      </trkpt>
      <trkpt lat="60.484668" lon="22.256794">
        <ele>33</ele>
        <time>1970-01-01T01:00:00Z</time>
      </trkpt>
      <trkpt lat="60.484572" lon="22.256337">
        <ele>33</ele>
        <time>1970-01-01T01:00:00Z</time>
      </trkpt>
      <trkpt lat="60.484429" lon="22.256006">
        <ele>33</ele>
        <time>1970-01-01T01:00:00Z</time>
      </trkpt>
      <trkpt lat="60.484247" lon="22.255593">
        <ele>33</ele>
        <time>1970-01-01T01:00:00Z</time>
      </trkpt>
      <trkpt lat="60.48403" lon="22.255209">
        <ele>33</ele>
        <time>1970-01-01T01:00:00Z</time>
      </trkpt>
      <trkpt lat="60.4839" lon="22.254878">
        <ele>33</ele>
        <time>1970-01-01T01:00:00Z</time>
      </trkpt>
      <trkpt lat="60.483877" lon="22.254793">
        <ele>33</ele>
        <time>1970-01-01T01:00:00Z</time>
      </trkpt>
      <trkpt lat="60.483833" lon="22.254615">
        <ele>33</ele>
        <time>1970-01-01T01:00:00Z</time>
      </trkpt>
      <trkpt lat="60.483772" lon="22.254251">
        <ele>32.2727</ele>
        <time>1970-01-01T01:00:00Z</time>
      </trkpt>
      <trkpt lat="60.483723" lon="22.254069">
        <ele>31.5455</ele>
        <time>1970-01-01T01:00:00Z</time>
      </trkpt>
      <trkpt lat="60.483539" lon="22.253895">
        <ele>30.8182</ele>
        <time>1970-01-01T01:00:00Z</time>
      </trkpt>
      <trkpt lat="60.48343" lon="22.254088">
        <ele>30.0909</ele>
        <time>1970-01-01T01:00:00Z</time>
      </trkpt>
      <trkpt lat="60.48336" lon="22.254217">
        <ele>29.3636</ele>
        <time>1970-01-01T01:00:00Z</time>
      </trkpt>
      <trkpt lat="60.483313" lon="22.254276">
        <ele>28.6364</ele>
        <time>1970-01-01T01:00:00Z</time>
      </trkpt>
      <trkpt lat="60.483124" lon="22.254403">
        <ele>27.9091</ele>
        <time>1970-01-01T01:00:00Z</time>
      </trkpt>
      <trkpt lat="60.483014" lon="22.254458">
        <ele>27.1818</ele>
        <time>1970-01-01T01:00:00Z</time>
      </trkpt>
      <trkpt lat="60.48289" lon="22.254452">
        <ele>26.4545</ele>
        <time>1970-01-01T01:00:00Z</time>
      </trkpt>
      <trkpt lat="60.48275" lon="22.25449">
        <ele>25.7273</ele>
        <time>1970-01-01T01:00:00Z</time>
      </trkpt>
      <trkpt lat="60.482595" lon="22.254516">
        <ele>25</ele>
        <time>1970-01-01T01:00:00Z</time>
      </trkpt>
      <trkpt lat="60.482459" lon="22.254553">
        <ele>25</ele>
        <time>1970-01-01T01:00:00Z</time>
      </trkpt>
      <trkpt lat="60.482361" lon="22.254562">
        <ele>25</ele>
        <time>1970-01-01T01:00:00Z</time>
      </trkpt>
      <trkpt lat="60.482235" lon="22.254576">
        <ele>25</ele>
        <time>1970-01-01T01:00:00Z</time>
      </trkpt>
      <trkpt lat="60.482111" lon="22.254626">
        <ele>25</ele>
        <time>1970-01-01T01:00:00Z</time>
      </trkpt>
      <trkpt lat="60.481958" lon="22.25457">
        <ele>25</ele>
        <time>1970-01-01T01:00:00Z</time>
      </trkpt>
      <trkpt lat="60.481811" lon="22.25448">
        <ele>25</ele>
        <time>1970-01-01T01:00:00Z</time>
      </trkpt>
      <trkpt lat="60.481635" lon="22.254292">
        <ele>25</ele>
        <time>1970-01-01T01:00:00Z</time>
      </trkpt>
      <trkpt lat="60.481418" lon="22.253754">
        <ele>25</ele>
        <time>1970-01-01T01:00:00Z</time>
      </trkpt>
      <trkpt lat="60.48142" lon="22.253545">
        <ele>25</ele>
        <time>1970-01-01T01:00:00Z</time>
      </trkpt>
      <trkpt lat="60.481533" lon="22.253197">
        <ele>25</ele>
        <time>1970-01-01T01:00:00Z</time>
      </trkpt>
      <trkpt lat="60.48158" lon="22.252954">
        <ele>25</ele>
        <time>1970-01-01T01:00:00Z</time>
      </trkpt>
      <trkpt lat="60.481631" lon="22.252831">
        <ele>25</ele>
        <time>1970-01-01T01:00:00Z</time>
      </trkpt>
      <trkpt lat="60.481715" lon="22.252558">
        <ele>25</ele>
        <time>1970-01-01T01:00:00Z</time>
      </trkpt>
      <trkpt lat="60.481756" lon="22.252416">
        <ele>25</ele>
        <time>1970-01-01T01:00:00Z</time>
      </trkpt>
      <trkpt lat="60.481917" lon="22.252335">
        <ele>25</ele>
        <time>1970-01-01T01:00:00Z</time>
      </trkpt>
      <trkpt lat="60.481969" lon="22.252338">
        <ele>25</ele>
        <time>1970-01-01T01:00:00Z</time>
      </trkpt>
      <trkpt lat="60.482078" lon="22.252328">
        <ele>25</ele>
        <time>1970-01-01T01:00:00Z</time>
      </trkpt>
      <trkpt lat="60.482313" lon="22.25223">
        <ele>25</ele>
        <time>1970-01-01T01:00:00Z</time>
      </trkpt>
      <trkpt lat="60.482389" lon="22.252151">
        <ele>25</ele>
        <time>1970-01-01T01:00:00Z</time>
      </trkpt>
      <trkpt lat="60.482471" lon="22.252037">
        <ele>25</ele>
        <time>1970-01-01T01:00:00Z</time>
      </trkpt>
      <trkpt lat="60.482601" lon="22.252012">
        <ele>25</ele>
        <time>1970-01-01T01:00:00Z</time>
      </trkpt>
      <trkpt lat="60.482672" lon="22.252116">
        <ele>25</ele>
        <time>1970-01-01T01:00:00Z</time>
      </trkpt>
      <trkpt lat="60.482686" lon="22.252224">
        <ele>25</ele>
        <time>1970-01-01T01:00:00Z</time>
      </trkpt>
      <trkpt lat="60.48269" lon="22.252271">
        <ele>25</ele>
        <time>1970-01-01T01:00:00Z</time>
      </trkpt>
      <trkpt lat="60.48278" lon="22.252545">
        <ele>25</ele>
        <time>1970-01-01T01:00:00Z</time>
      </trkpt>
      <trkpt lat="60.482874" lon="22.252678">
        <ele>25.7273</ele>
        <time>1970-01-01T01:00:00Z</time>
      </trkpt>
      <trkpt lat="60.483027" lon="22.252717">
        <ele>26.4545</ele>
        <time>1970-01-01T01:00:00Z</time>
      </trkpt>
      <trkpt lat="60.483134" lon="22.252625">
        <ele>27.1818</ele>
        <time>1970-01-01T01:00:00Z</time>
      </trkpt>
      <trkpt lat="60.483274" lon="22.252494">
        <ele>27.9091</ele>
        <time>1970-01-01T01:00:00Z</time>
      </trkpt>
      <trkpt lat="60.483312" lon="22.252468">
        <ele>28.6364</ele>
        <time>1970-01-01T01:00:00Z</time>
      </trkpt>
      <trkpt lat="60.483444" lon="22.252318">
        <ele>29.3636</ele>
        <time>1970-01-01T01:00:00Z</time>
      </trkpt>
      <trkpt lat="60.483534" lon="22.252181">
        <ele>29.3636</ele>
        <time>1970-01-01T01:00:00Z</time>
      </trkpt>
      <trkpt lat="60.483598" lon="22.251946">
        <ele>29.3636</ele>
        <time>1970-01-01T01:00:00Z</time>
      </trkpt>
      <trkpt lat="60.483597" lon="22.251711">
        <ele>29.3636</ele>
        <time>1970-01-01T01:00:00Z</time>
      </trkpt>
      <trkpt lat="60.483506" lon="22.251478">
        <ele>29.3636</ele>
        <time>1970-01-01T01:00:00Z</time>
      </trkpt>
      <trkpt lat="60.483451" lon="22.251386">
        <ele>29.3636</ele>
        <time>1970-01-01T01:00:00Z</time>
      </trkpt>
      <trkpt lat="60.483341" lon="22.251301">
        <ele>28.6364</ele>
        <time>1970-01-01T01:00:00Z</time>
      </trkpt>
      <trkpt lat="60.483232" lon="22.251322">
        <ele>27.9091</ele>
        <time>1970-01-01T01:00:00Z</time>
      </trkpt>
      <trkpt lat="60.483047" lon="22.251539">
        <ele>27.1818</ele>
        <time>1970-01-01T01:00:00Z</time>
      </trkpt>
      <trkpt lat="60.482961" lon="22.251636">
        <ele>26.4545</ele>
        <time>1970-01-01T01:00:00Z</time>
      </trkpt>
      <trkpt lat="60.482885" lon="22.251769">
        <ele>25.7273</ele>
        <time>1970-01-01T01:00:00Z</time>
      </trkpt>
      <trkpt lat="60.482722" lon="22.251978">
        <ele>25</ele>
        <time>1970-01-01T01:00:00Z</time>
      </trkpt>
      <trkpt lat="60.482568" lon="22.251992">
        <ele>25</ele>
        <time>1970-01-01T01:00:00Z</time>
      </trkpt>
      <trkpt lat="60.482469" lon="22.252001">
        <ele>25</ele>
        <time>1970-01-01T01:00:00Z</time>
      </trkpt>
      <trkpt lat="60.482383" lon="22.252111">
        <ele>25</ele>
        <time>1970-01-01T01:00:00Z</time>
      </trkpt>
      <trkpt lat="60.48228" lon="22.252255">
        <ele>25</ele>
        <time>1970-01-01T01:00:00Z</time>
      </trkpt>
      <trkpt lat="60.482168" lon="22.252291">
        <ele>25</ele>
        <time>1970-01-01T01:00:00Z</time>
      </trkpt>
      <trkpt lat="60.482135" lon="22.252282">
        <ele>25</ele>
        <time>1970-01-01T01:00:00Z</time>
      </trkpt>
      <trkpt lat="60.48203" lon="22.252087">
        <ele>25</ele>
        <time>1970-01-01T01:00:00Z</time>
      </trkpt>
      <trkpt lat="60.481907" lon="22.251835">
        <ele>25</ele>
        <time>1970-01-01T01:00:00Z</time>
      </trkpt>
      <trkpt lat="60.481862" lon="22.251677">
        <ele>25</ele>
        <time>1970-01-01T01:00:00Z</time>
      </trkpt>
      <trkpt lat="60.481769" lon="22.251416">
        <ele>25</ele>
        <time>1970-01-01T01:00:00Z</time>
      </trkpt>
      <trkpt lat="60.481655" lon="22.251336">
        <ele>25</ele>
        <time>1970-01-01T01:00:00Z</time>
      </trkpt>
      <trkpt lat="60.481498" lon="22.251456">
        <ele>25</ele>
        <time>1970-01-01T01:00:00Z</time>
      </trkpt>
      <trkpt lat="60.481433" lon="22.251524">
        <ele>25</ele>
        <time>1970-01-01T01:00:00Z</time>
      </trkpt>
      <trkpt lat="60.481277" lon="22.2517">
        <ele>25</ele>
        <time>1970-01-01T01:00:00Z</time>
      </trkpt>
      <trkpt lat="60.481142" lon="22.251847">
        <ele>25</ele>
        <time>1970-01-01T01:00:00Z</time>
      </trkpt>
      <trkpt lat="60.480954" lon="22.252007">
        <ele>25</ele>
        <time>1970-01-01T01:00:00Z</time>
      </trkpt>
      <trkpt lat="60.480766" lon="22.252176">
        <ele>25</ele>
        <time>1970-01-01T01:00:00Z</time>
      </trkpt>
      <trkpt lat="60.480547" lon="22.252371">
        <ele>25</ele>
        <time>1970-01-01T01:00:00Z</time>
      </trkpt>
      <trkpt lat="60.480503" lon="22.252412">
        <ele>25</ele>
        <time>1970-01-01T01:00:00Z</time>
      </trkpt>
      <trkpt lat="60.480302" lon="22.252662">
        <ele>25</ele>
        <time>1970-01-01T01:00:00Z</time>
      </trkpt>
      <trkpt lat="60.4801" lon="22.252948">
        <ele>25</ele>
        <time>1970-01-01T01:00:00Z</time>
      </trkpt>
      <trkpt lat="60.48001" lon="22.25313">
        <ele>25</ele>
        <time>1970-01-01T01:00:00Z</time>
      </trkpt>
      <trkpt lat="60.480006" lon="22.253387">
        <ele>25</ele>
        <time>1970-01-01T01:00:00Z</time>
      </trkpt>
      <trkpt lat="60.480067" lon="22.253519">
        <ele>25</ele>
        <time>1970-01-01T01:00:00Z</time>
      </trkpt>
      <trkpt lat="60.480165" lon="22.253562">
        <ele>25</ele>
        <time>1970-01-01T01:00:00Z</time>
      </trkpt>
      <trkpt lat="60.480275" lon="22.253524">
        <ele>25</ele>
        <time>1970-01-01T01:00:00Z</time>
      </trkpt>
      <trkpt lat="60.480452" lon="22.253418">
        <ele>25</ele>
        <time>1970-01-01T01:00:00Z</time>
      </trkpt>
      <trkpt lat="60.480544" lon="22.253344">
        <ele>25</ele>
        <time>1970-01-01T01:00:00Z</time>
      </trkpt>
      <trkpt lat="60.480632" lon="22.253272">
        <ele>25</ele>
        <time>1970-01-01T01:00:00Z</time>
      </trkpt>
      <trkpt lat="60.480682" lon="22.253233">
        <ele>25</ele>
        <time>1970-01-01T01:00:00Z</time>
      </trkpt>
      <trkpt lat="60.480779" lon="22.253276">
        <ele>25</ele>
        <time>1970-01-01T01:00:00Z</time>
      </trkpt>
      <trkpt lat="60.480864" lon="22.253398">
        <ele>25</ele>
        <time>1970-01-01T01:00:00Z</time>
      </trkpt>
      <trkpt lat="60.480957" lon="22.253505">
        <ele>25</ele>
        <time>1970-01-01T01:00:00Z</time>
      </trkpt>
      <trkpt lat="60.481006" lon="22.253565">
        <ele>25</ele>
        <time>1970-01-01T01:00:00Z</time>
      </trkpt>
      <trkpt lat="60.481104" lon="22.25367">
        <ele>25</ele>
        <time>1970-01-01T01:00:00Z</time>
      </trkpt>
      <trkpt lat="60.481164" lon="22.253743">
        <ele>25</ele>
        <time>1970-01-01T01:00:00Z</time>
      </trkpt>
      <trkpt lat="60.481228" lon="22.253874">
        <ele>25</ele>
        <time>1970-01-01T01:00:00Z</time>
      </trkpt>
      <trkpt lat="60.48132" lon="22.254049">
        <ele>25</ele>
        <time>1970-01-01T01:00:00Z</time>
      </trkpt>
      <trkpt lat="60.481392" lon="22.254212">
        <ele>25</ele>
        <time>1970-01-01T01:00:00Z</time>
      </trkpt>
      <trkpt lat="60.481408" lon="22.254241">
        <ele>25</ele>
        <time>1970-01-01T01:00:00Z</time>
      </trkpt>
      <trkpt lat="60.481456" lon="22.254441">
        <ele>25</ele>
        <time>1970-01-01T01:00:00Z</time>
      </trkpt>
      <trkpt lat="60.481457" lon="22.254589">
        <ele>25</ele>
        <time>1970-01-01T01:00:00Z</time>
      </trkpt>
      <trkpt lat="60.481417" lon="22.254672">
        <ele>25</ele>
        <time>1970-01-01T01:00:00Z</time>
      </trkpt>
      <trkpt lat="60.481285" lon="22.254773">
        <ele>25</ele>
        <time>1970-01-01T01:00:00Z</time>
      </trkpt>
      <trkpt lat="60.481229" lon="22.254838">
        <ele>25</ele>
        <time>1970-01-01T01:00:00Z</time>
      </trkpt>
      <trkpt lat="60.481203" lon="22.254868">
        <ele>25</ele>
        <time>1970-01-01T01:00:00Z</time>
      </trkpt>
      <trkpt lat="60.481068" lon="22.254965">
        <ele>25</ele>
        <time>1970-01-01T01:00:00Z</time>
      </trkpt>
      <trkpt lat="60.480965" lon="22.255138">
        <ele>25</ele>
        <time>1970-01-01T01:00:00Z</time>
      </trkpt>
      <trkpt lat="60.480946" lon="22.255157">
        <ele>25</ele>
        <time>1970-01-01T01:00:00Z</time>
      </trkpt>
      <trkpt lat="60.480836" lon="22.255236">
        <ele>25</ele>
        <time>1970-01-01T01:00:00Z</time>
      </trkpt>
      <trkpt lat="60.48077" lon="22.255351">
        <ele>25</ele>
        <time>1970-01-01T01:00:00Z</time>
      </trkpt>
      <trkpt lat="60.480756" lon="22.255391">
        <ele>25</ele>
        <time>1970-01-01T01:00:00Z</time>
      </trkpt>
      <trkpt lat="60.480706" lon="22.255579">
        <ele>25</ele>
        <time>1970-01-01T01:00:00Z</time>
      </trkpt>
      <trkpt lat="60.480697" lon="22.255687">
        <ele>25</ele>
        <time>1970-01-01T01:00:00Z</time>
      </trkpt>
      <trkpt lat="60.480697" lon="22.25573">
        <ele>25</ele>
        <time>1970-01-01T01:00:00Z</time>
      </trkpt>
      <trkpt lat="60.480787" lon="22.255986">
        <ele>25</ele>
        <time>1970-01-01T01:00:00Z</time>
      </trkpt>
      <trkpt lat="60.480858" lon="22.256112">
        <ele>25</ele>
        <time>1970-01-01T01:00:00Z</time>
      </trkpt>
      <trkpt lat="60.480879" lon="22.256135">
        <ele>25</ele>
        <time>1970-01-01T01:00:00Z</time>
      </trkpt>
      <trkpt lat="60.481009" lon="22.256299">
        <ele>25</ele>
        <time>1970-01-01T01:00:00Z</time>
      </trkpt>
      <trkpt lat="60.48109" lon="22.256454">
        <ele>25</ele>
        <time>1970-01-01T01:00:00Z</time>
      </trkpt>
      <trkpt lat="60.481151" lon="22.256626">
        <ele>25</ele>
        <time>1970-01-01T01:00:00Z</time>
      </trkpt>
      <trkpt lat="60.481175" lon="22.256716">
        <ele>25</ele>
        <time>1970-01-01T01:00:00Z</time>
      </trkpt>
      <trkpt lat="60.481205" lon="22.256871">
        <ele>25</ele>
        <time>1970-01-01T01:00:00Z</time>
      </trkpt>
      <trkpt lat="60.481214" lon="22.256959">
        <ele>25</ele>
        <time>1970-01-01T01:00:00Z</time>
      </trkpt>
      <trkpt lat="60.481259" lon="22.257128">
        <ele>25</ele>
        <time>1970-01-01T01:00:00Z</time>
      </trkpt>
      <trkpt lat="60.481276" lon="22.257356">
        <ele>24.9091</ele>
        <time>1970-01-01T01:00:00Z</time>
      </trkpt>
      <trkpt lat="60.481255" lon="22.257452">
        <ele>24.8182</ele>
        <time>1970-01-01T01:00:00Z</time>
      </trkpt>
      <trkpt lat="60.481198" lon="22.257711">
        <ele>24.7273</ele>
        <time>1970-01-01T01:00:00Z</time>
      </trkpt>
      <trkpt lat="60.48119" lon="22.25793">
        <ele>24.6364</ele>
        <time>1970-01-01T01:00:00Z</time>
      </trkpt>
      <trkpt lat="60.481131" lon="22.258207">
        <ele>24.5455</ele>
        <time>1970-01-01T01:00:00Z</time>
      </trkpt>
      <trkpt lat="60.481093" lon="22.258438">
        <ele>24.4545</ele>
        <time>1970-01-01T01:00:00Z</time>
      </trkpt>
      <trkpt lat="60.481099" lon="22.258911">
        <ele>24.3636</ele>
        <time>1970-01-01T01:00:00Z</time>
      </trkpt>
      <trkpt lat="60.48114" lon="22.259436">
        <ele>24.2727</ele>
        <time>1970-01-01T01:00:00Z</time>
      </trkpt>
      <trkpt lat="60.481194" lon="22.259745">
        <ele>24.1818</ele>
        <time>1970-01-01T01:00:00Z</time>
      </trkpt>
      <trkpt lat="60.481231" lon="22.260103">
        <ele>24.0909</ele>
        <time>1970-01-01T01:00:00Z</time>
      </trkpt>
      <trkpt lat="60.481243" lon="22.260246">
        <ele>24</ele>
        <time>1970-01-01T01:00:00Z</time>
      </trkpt>
      <trkpt lat="60.481286" lon="22.260687">
        <ele>24</ele>
        <time>1970-01-01T01:00:00Z</time>
      </trkpt>
      <trkpt lat="60.481325" lon="22.261">
        <ele>24</ele>
        <time>1970-01-01T01:00:00Z</time>
      </trkpt>
      <trkpt lat="60.48136" lon="22.261344">
        <ele>24</ele>
        <time>1970-01-01T01:00:00Z</time>
      </trkpt>
      <trkpt lat="60.481483" lon="22.261872">
        <ele>24</ele>
        <time>1970-01-01T01:00:00Z</time>
      </trkpt>
      <trkpt lat="60.481625" lon="22.262426">
        <ele>24</ele>
        <time>1970-01-01T01:00:00Z</time>
      </trkpt>
    </trkseg>
  </trk>
</gpx>